GFSWCAN_prec_radar_054.txt.gz
Reflectivity
3 -20 11 -18 -20 14 28 25 17 20 23 10 -14 27 24 32 36 7 13 20 18 15 5 15 18 20 -8 -9 -8 -20 13 -20 -20 -20 -20 -20 -20 -20 -20 -12 4 -17 -5 -20 -20 -20 -20 -11 -20 -20 -20 -20 -20 -20
-2 -20 2 13 18 -1 12 15 10 14 7 -20 23 27 25 32 20 -14 -20 -19 6 23 19 -20 -16 29 26 -9 -20 12 -20 -20 -20 -20 -20 -20 -19 -20 -18 -20 -20 -20 -5 -15 -20 -20 -20 -20 -20 -20 -20 -20 -20 -20
-3 -20 -20 -20 17 11 -4 -6 -20 -20 -20 20 22 20 25 20 16 -20 9 -2 -19 -13 -17 -19 22 -4 33 -7 -17 -20 -20 -20 -20 -20 -20 -20 -18 -20 -20 -16 -16 -7 -20 -17 -20 -20 -20 -20 -20 -20 -20 -20 -20 -20
13 -12 -20 -20 12 22 25 16 -15 22 21 23 23 28 28 29 32 12 16 19 3 2 1 -18 11 18 4 19 -20 -20 -20 -20 -20 -20 -20 -20 -19 -20 -20 -20 -20 -20 -19 7 -5 -20 -13 -20 -19 -20 -20 -20 -20 -20
29 21 12 12 22 26 26 22 21 24 33 30 27 28 28 34 23 6 14 12 -20 -20 5 7 11 -1 8 12 -19 -20 -1 -1 -9 -20 -17 -20 -20 -20 -20 -20 -20 -20 -20 -20 -20 11 22 -5 -19 -10 -20 -20 -20 -20
17 32 28 20 16 17 21 26 26 28 23 21 24 28 25 24 12 -18 15 9 0 -20 -20 -8 22 24 36 20 -8 23 -20 -8 23 18 15 -10 -20 -20 -20 -20 -20 -20 -20 -20 -11 -20 -16 -20 -20 -20 -20 -20 -20 -20
-9 15 19 18 15 11 19 18 16 6 12 11 17 19 14 -19 -20 -20 -20 -20 -20 -20 -18 -11 16 6 7 31 30 25 0 -10 2 17 19 15 17 -19 -17 -20 -20 -20 -20 -20 -20 -20 -20 -20 -20 -1 -18 -20 -20 -20
17 -14 -20 7 19 12 10 5 9 16 21 26 29 29 30 26 -20 -20 6 -20 -20 -4 -13 29 21 21 18 36 26 28 -5 22 23 18 -12 1 6 -7 14 -20 -20 -20 -20 -20 -20 -20 -20 -20 -20 -20 12 -5 -20 -20
-20 -18 -20 -20 -20 -20 -20 -20 -20 -20 -13 0 7 9 8 3 -11 -19 -1 4 -19 -5 29 -2 18 24 26 -4 11 14 -4 3 6 -8 15 18 -19 -15 -20 -20 -20 -20 -20 -20 -20 -20 -20 -20 -20 -20 -20 -20 -20 -20
-20 -20 -20 -20 -20 -20 -17 -20 -5 3 6 -20 -20 2 2 -16 15 -8 0 22 30 29 27 -6 1 5 10 24 10 39 27 -12 16 4 18 -6 -2 -19 -20 -20 -20 -20 -20 -20 -20 -20 -20 -20 -20 2 -12 -20 -20 -20
18 -2 -20 -20 -20 -20 -20 -20 -20 -20 -20 -20 -20 6 -16 4 27 20 10 4 -13 13 -12 3 29 38 14 17 11 -20 -7 29 29 13 18 -0 -20 -1 -20 -20 -20 -20 -20 -20 -20 -20 -20 -20 -20 -20 -20 -20 -20 -20
12 12 16 -20 -20 -20 -20 -20 -20 -20 -2 7 7 -8 -3 15 6 -10 -4 -11 4 -5 8 16 30 35 31 17 -20 -20 -13 -17 2 18 37 26 -2 -12 -20 -20 -20 -20 -20 -20 -20 -20 -20 -20 -20 -20 -20 -20 -20 -20
-2 15 -18 -20 -20 -20 -20 -6 -7 12 26 23 2 -20 -11 -20 9 -7 -20 -12 -19 -20 -8 7 6 13 8 -20 -19 -20 2 6 -8 21 13 9 5 4 12 -8 -20 -20 -20 -20 -20 -20 -20 -20 -8 -20 -20 -8 6 19
-20 20 13 -9 5 5 -17 -11 23 40 -14 -11 -14 -19 13 -2 -8 -2 -3 -18 -20 -19 -20 -20 -20 -17 -19 -20 -6 4 17 14 17 6 6 5 8 26 28 29 27 21 23 32 31 32 30 34 28 28 22 18 17 20
-15 -2 25 13 11 23 17 8 4 -2 -6 -1 24 21 22 22 17 7 1 6 -7 -1 -8 -16 13 19 21 29 20 19 22 -1 -2 3 6 2 18 31 33 36 29 23 21 17 8 17 24 25 23 25 27 28 26 22
-20 -20 8 -14 -13 -13 -17 9 28 24 33 23 21 19 20 23 22 19 22 22 28 14 29 31 36 32 14 1 5 2 -2 1 1 1 6 8 6 5 15 20 18 15 13 16 16 12 7 11 12 17 19 18 17 16
14 -9 7 -20 -20 -20 6 12 29 31 19 21 21 24 26 25 25 25 25 25 24 33 25 22 17 -16 -5 0 -2 -3 -6 -0 -1 4 3 11 8 8 12 13 9 8 5 2 -2 11 14 12 6 3 7 14 10 7
15 6 12 9 -2 6 19 29 21 13 8 17 14 18 19 19 22 22 21 21 27 17 -0 1 -8 -20 -17 -17 -17 0 0 -2 11 4 9 13 14 14 15 16 16 13 8 15 16 14 8 8 5 6 -1 -1 -17 -18
18 12 26 29 25 15 -3 11 -20 -18 0 7 13 9 -6 -9 -20 -20 -20 -20 -20 -20 -20 -20 -20 -13 -0 1 -1 -0 1 6 7 8 10 14 15 16 16 15 12 5 -19 -19 -17 -12 -6 -3 -1 -3 -3 -3 -1 2
30 23 24 8 3 16 4 4 1 -14 -12 -20 -20 -20 -20 -20 -20 -20 -20 -20 -20 -20 -20 -20 1 4 2 1 5 6 8 10 9 11 10 12 15 14 13 11 6 7 -9 -14 -15 -15 -19 -18 -8 -6 -10 -14 -20 -7
20 24 18 -11 7 14 -20 -20 4 -20 -20 -20 -20 -20 -20 -20 -20 -20 -20 -20 -20 -20 -0 8 5 4 5 5 6 6 2 4 5 8 10 9 13 12 11 12 11 8 1 -1 -17 -15 -20 -20 -3 -19 -20 -3 -3 -0
23 -6 -20 -20 -20 -20 -20 -20 1 -2 -1 -3 -18 -20 -20 -20 -20 -20 -20 -20 -5 6 9 1 2 0 -17 -15 -4 -2 5 0 3 4 7 9 8 8 4 8 2 -17 -20 -20 -20 -20 -20 -20 -20 -20 -8 -0 -8 -20
-20 -20 -20 -20 -20 -20 -20 -20 -20 -20 -20 -20 -20 -20 -20 -20 -20 -20 -20 -5 2 5 5 4 1 -2 -3 -2 -14 -14 -2 3 -1 1 -1 -6 -13 -14 -19 -20 -20 -20 -20 -20 -20 -20 -20 -20 -20 -20 -20 -20 -20 -20
-20 -20 -20 -20 -20 -20 -20 -20 -20 -20 -20 -20 -20 -4 -19 -20 -20 -20 -17 2 3 1 -5 -20 -4 -19 -20 -20 -20 -20 -20 -20 -20 -20 -20 -20 -20 -20 -20 -20 -20 -20 -20 -20 -20 -20 -20 -20 -20 -20 -20 -20 -20 -20
-20 -20 -20 -20 -20 -20 -20 -20 -20 -20 -20 -20 -20 -20 -20 -20 -20 -20 -18 -1 -1 -2 -2 -3 -20 -20 -20 -20 -20 -20 -20 -20 -20 -20 -20 -20 -20 -20 -20 -20 -20 -20 -20 -20 -20 -20 -20 -20 -20 -20 -20 -20 -20 -20
-20 -20 -20 -20 -20 -20 -20 -20 -20 -20 -20 -20 -20 -20 -20 -20 -20 -14 -2 1 -1 -19 -13 -1 -3 -20 -20 -20 -20 -20 -20 -20 -20 -20 -20 -20 -20 -20 -20 -20 -20 -20 -15 -4 -6 -20 -20 -20 -20 -20 -20 -4 -15 -20
-20 -20 -20 -20 -20 -20 -20 -20 -20 -20 -20 -20 -20 -20 -20 -20 -20 0 2 -1 -20 -20 -20 -12 -16 -20 -20 -20 -20 -20 -20 -20 -20 -20 -20 -20 -20 -20 -20 -20 -20 -18 -20 -20 -20 -9 -9 -20 -20 -20 -20 -14 -5 -4
-20 -20 -20 -20 -20 -20 -20 -20 -20 -20 -20 -11 -20 -20 -20 -20 -12 1 -0 -20 -20 -20 -20 -20 -20 -20 -20 -20 -20 -7 -20 -20 -20 -20 -20 -20 -20 -20 -20 -10 -20 -20 -20 -20 -2 -4 -20 -20 -20 -20 -20 -20 -20 -20
-20 -20 -20 -20 -20 -20 -18 -20 -20 -20 -20 -20 -20 -20 -5 -13 -2 1 1 -0 -3 -20 -20 -20 -20 -20 -20 -20 -20 -20 -20 -20 -20 -20 -20 -20 -20 -18 -20 -20 -20 -20 -20 -20 -19 -12 -3 -20 -20 -20 -20 -20 -20 -20
-20 -20 -20 -20 -20 -20 -20 -14 -20 -20 -20 -7 -20 -18 -20 -4 -9 -10 -0 -1 -5 -19 -20 -20 -20 -20 -20 -20 -20 -20 -20 -20 -20 -20 -20 -20 -20 -18 -20 -20 -20 -20 -20 -20 -20 -20 -20 -20 -20 -20 -20 -20 -20 -20
-20 -20 -20 -20 -20 -20 -20 -20 -20 -20 -20 -20 -20 -20 -8 -3 -7 -19 -20 -20 -20 -20 -20 -20 -20 -20 -20 -20 -20 -20 -20 -20 -20 -20 -20 -20 -20 -20 -20 -20 -20 -20 -20 -20 -20 -20 -20 -20 -20 -20 -20 -20 -20 -20
-20 -20 -20 -20 -20 -20 -20 -20 -20 -20 -20 -20 -20 -20 -20 -20 -19 -17 -20 -20 -20 -20 -20 -20 -20 -20 -20 -20 -20 -20 -20 -20 -20 -20 -20 -20 -19 -20 -20 -20 -20 -20 -20 -20 -20 -20 -20 -20 -20 -20 -20 -20 -20 -20
-20 -20 -20 -20 -20 -20 -20 -20 -20 -20 -20 -20 -20 -20 -20 -20 -20 -20 -20 -20 -20 -20 -20 -20 -20 -20 -20 -20 -20 -20 -20 -20 -20 -18 -20 -20 -20 -20 -20 -20 -20 -20 -20 -20 -20 -20 -20 -20 -20 -20 -20 -20 -20 -20

GFSWCAN_prec_radar_057.txt.gz
Reflectivity
13 -13 12 3 -13 10 22 21 13 -20 14 16 16 16 17 14 11 35 35 -11 -20 6 15 9 -11 3 -1 -12 18 -16 -1 22 14 18 4 -20 -20 -20 -20 -20 3 19 3 -20 9 -2 -14 -20 -8 -10 -20 -20 -20 -20
-5 -20 -20 -14 15 28 -15 -16 -6 5 5 16 19 16 11 10 17 29 28 -6 10 25 17 9 28 31 7 4 -20 -19 24 -20 -20 -20 -8 -15 12 3 -20 -7 0 2 -14 24 -16 -18 -20 -14 -20 -20 -20 -20 -20 -20
-20 -20 -20 16 16 26 13 -15 21 -8 20 -13 13 13 20 22 29 36 19 12 15 17 -20 16 2 -20 6 -20 16 25 7 8 -20 -20 -20 -20 -18 -20 -20 -20 0 -9 -20 6 -10 -20 -20 -20 -20 -18 -20 -20 -20 -20
-20 -6 14 29 7 8 14 14 13 -3 13 14 11 -2 26 29 33 15 7 11 18 15 27 15 -20 -20 15 25 10 3 -1 -13 5 -20 -20 -6 -19 -20 -20 -20 -20 -20 -20 -20 -20 -20 -20 6 -11 13 5 -20 -20 -20
5 -20 9 25 17 -20 -20 -20 -12 -18 8 -12 20 15 28 30 28 7 16 15 13 2 6 16 -20 -20 2 33 5 -7 20 -12 -20 -16 1 -16 -20 -20 -20 -20 -20 -20 -20 -20 -20 -20 -1 -4 9 3 -19 -20 -20 -20
27 17 -4 12 11 2 -3 -20 1 7 16 24 33 27 19 17 20 -1 34 23 10 7 14 -7 1 -20 -20 13 29 13 -20 20 -15 -20 -2 -20 -20 -20 -20 -20 -20 -20 -16 -18 -20 -5 -5 -17 -10 -9 -4 -20 -20 -20
25 25 8 14 6 16 15 17 15 26 27 27 32 25 8 7 13 20 16 -12 -20 -20 -20 -20 -20 -20 -18 1 21 -20 -20 1 21 23 21 -20 -20 -20 -20 -20 -20 -20 -20 -20 -20 -20 -10 -18 -20 4 3 -20 -20 -20
17 17 14 16 18 16 26 17 20 24 27 22 15 13 24 29 23 22 -10 -8 2 -10 -16 -16 -12 21 12 7 -14 -20 10 13 3 13 -1 11 -1 22 11 -20 -20 -20 -20 -20 -20 -20 -20 -20 -19 -20 -20 -20 -18 -20
-13 1 22 18 11 5 12 3 2 15 23 23 26 24 21 7 -4 20 -20 -20 13 -11 -7 3 19 32 31 9 15 20 26 24 11 14 4 8 10 16 -2 -20 -20 -20 -20 -20 -20 -20 -20 -20 -20 -20 -20 -20 -20 -20
-20 -20 -20 -20 -8 -18 7 11 3 -10 -2 -10 -8 6 10 12 -20 -20 24 -7 -20 15 -6 6 8 34 29 34 38 32 24 24 9 -12 25 22 8 -20 -20 -20 -20 -20 -20 -20 -20 -20 -20 -20 -20 -20 -20 -20 -20 -20
-20 -20 -20 -20 -20 -6 4 -1 -20 -20 -20 1 10 20 15 -20 14 27 21 13 17 15 1 -0 16 39 41 41 -5 14 -17 -13 -18 9 16 19 15 -18 -9 -16 -20 -20 -20 -20 -20 -20 -20 -20 -20 -20 -20 -20 -20 -20
-20 -20 -20 -20 -20 -19 -19 -15 -12 20 19 0 -6 8 8 14 15 -10 11 -8 4 12 11 13 13 25 31 36 35 36 29 5 21 9 27 18 16 0 1 -19 0 -20 -20 -20 -20 -20 -20 -20 -20 -20 -20 -20 -20 -20
-20 -20 -20 -20 -20 -1 12 -1 -20 -20 -20 -14 0 21 20 8 -6 -12 1 -13 -18 7 -11 -3 -11 -2 -19 -9 28 15 19 19 27 14 11 13 4 1 4 -3 -5 -20 -20 -20 -20 -20 -20 -20 -20 -20 -20 -20 -20 -20
-20 -20 -20 -20 -20 -20 -11 -12 3 -9 -18 -13 -0 3 7 16 1 6 7 6 -2 11 10 17 -18 -20 -0 27 31 5 13 16 11 8 8 2 3 6 14 24 14 11 11 10 12 10 7 7 8 6 -3 11 18 22
-20 -20 -20 -19 -12 9 -2 -9 8 -20 -20 -0 -16 -13 1 6 8 -0 1 2 3 17 24 4 6 39 39 25 24 22 14 3 2 8 7 8 14 12 9 17 18 22 20 19 18 14 6 12 17 18 19 21 21 24
-8 2 22 5 -13 0 16 19 14 -4 -2 -10 -10 6 -19 -9 3 4 1 -3 1 4 30 34 34 29 0 4 -18 -1 -4 -2 6 11 8 9 9 9 12 13 14 12 9 7 4 8 10 9 13 16 16 14 18 18
-8 7 -16 -19 -20 -10 19 0 -14 -4 6 11 13 11 7 -2 6 6 8 6 5 24 18 14 1 -8 7 -2 -3 2 6 9 13 11 8 9 4 9 8 8 10 10 7 11 13 13 12 12 9 9 14 20 20 18
8 -3 -20 -20 -20 4 3 1 2 10 11 16 17 18 17 18 16 12 11 7 9 4 7 8 18 6 13 10 15 16 11 15 7 12 14 13 9 8 14 16 14 12 9 11 12 13 13 14 13 14 11 9 0 -7
-1 -5 -11 -10 9 -7 9 19 11 5 15 14 19 21 20 22 22 23 22 22 23 24 25 24 20 14 9 5 4 6 4 12 3 7 8 9 8 13 15 14 13 10 6 7 5 7 8 5 7 6 5 -0 3 6
26 23 22 15 -19 -17 -4 3 -6 -14 5 6 -7 -1 0 0 -6 5 -4 1 2 2 3 6 6 10 8 9 7 3 2 15 7 7 8 9 11 9 9 8 7 9 3 -0 -1 -3 -3 -10 1 -4 -2 -0 -2 -2
11 -20 -20 -20 -6 13 -19 8 4 -6 9 10 7 -20 0 -20 -13 -20 -20 -20 -5 0 5 8 6 7 5 7 7 2 1 2 3 3 5 1 7 7 7 8 7 5 -4 -3 -8 -7 -10 -2 3 1 -1 -1 -2 2
-20 -20 -20 -10 -2 -19 -20 -20 2 8 1 -17 -20 -20 -20 -20 -20 -20 -20 -20 3 9 7 6 9 5 0 3 4 3 4 -3 -2 -18 -20 -20 -19 -19 -13 -0 -18 -20 -20 -11 -20 -20 -20 -20 -20 -20 -11 -9 -20 -20
-20 -20 -20 -11 -14 -19 -20 -20 -20 -4 4 -2 -12 -20 -19 -20 -20 -20 -19 -16 6 7 6 2 1 0 0 -8 -20 -13 -13 -20 -20 -13 -20 -20 -14 -19 -20 -20 -20 -20 -20 -20 -20 -20 -20 -20 -20 -20 -20 -20 -13 -5
-20 -20 -20 -20 -20 -20 -20 -20 -20 -20 -16 -20 -20 -19 -19 -20 -20 -20 -1 4 4 2 -2 -2 2 -20 -20 -20 -20 -20 -20 -20 -20 -20 -20 -20 -20 -20 -20 -20 -20 -20 -20 -20 -20 -20 -20 -6 -20 -20 -20 -20 -20 -3
-20 -20 -20 -20 -20 -20 -20 -20 -20 -20 -4 -2 -3 0 -1 -14 -15 -3 -1 2 2 2 4 -2 -6 -20 -20 -20 -20 -20 -20 -20 -20 -20 -20 -20 -20 -20 -20 -20 -20 -20 -20 -2 -1 -2 -2 -2 -4 -4 -5 -19 -20 -5
-20 -13 -16 -20 -20 -20 -20 -20 -20 -4 -4 -2 -3 -20 -2 -20 -17 -0 -0 7 5 2 3 6 2 -15 -20 -20 -20 -20 -20 -20 -20 -20 -20 -20 -20 -20 -20 -20 -20 -20 -14 -1 -1 -3 -20 -20 -20 -20 -13 -5 -20 -20
-20 -13 -20 -20 -20 -20 -20 -20 -20 -18 -20 -4 -8 -18 -20 -20 -3 1 3 5 1 1 -1 0 -16 -20 -20 -20 -20 -20 -20 -20 -20 -20 -20 -20 -20 -20 -20 -20 -20 -4 -20 -3 -1 -2 -4 -19 -20 -20 -20 -14 -6 -4
-20 -20 -20 -20 -20 -20 -20 -20 -20 -20 -18 -11 -20 -20 -20 -20 -2 7 2 2 2 -1 -3 -11 -20 -20 -20 -20 -20 -20 -20 -20 -20 -20 -20 -20 -20 -20 -19 -6 -20 -20 -9 -20 -0 -2 -6 -4 -20 -20 -20 -20 -20 -3
-20 -20 -20 -20 -20 -20 -20 -18 -14 -14 -4 -14 -20 -20 -3 -2 6 3 2 -0 1 -1 -3 -18 -18 -20 -20 -20 -20 -20 -20 -20 -20 -20 -20 -20 -6 -4 -4 -2 -0 -3 -1 1 -20 -14 -12 -20 -20 -20 -20 -6 -2 -1
-20 -20 -20 -20 -20 -20 -0 -1 -0 1 -20 -8 -20 -18 -0 2 0 5 3 3 3 4 2 1 -2 0 -5 -2 -12 -20 -20 -20 -20 -6 -16 -20 -4 -3 -1 -1 -1 -2 -2 -2 -6 -7 -20 -20 -19 -14 -20 -20 -20 -16
-20 -20 -20 -20 -15 3 3 1 -6 -10 -2 0 -7 -9 -1 1 1 0 1 1 -1 -14 -15 -20 -20 -3 -8 -20 -20 -20 -16 -10 -20 -20 -20 -7 -3 -0 -3 -7 -3 -2 -2 -4 -20 -20 -20 -20 -20 -20 -20 -20 -20 -20
-20 -20 -20 -20 -12 2 -4 2 0 -2 -1 -2 -1 -7 -3 2 -1 1 -0 2 2 2 -19 0 2 1 -5 -20 -20 -20 -20 -20 -7 -20 -20 -4 -1 -3 -3 -3 -5 -2 -11 -20 -20 -20 -20 -20 -20 -20 -20 -20 -20 -20
-20 -20 -20 -20 -20 -3 -0 -3 -17 -3 -3 -4 -1 -1 0 -1 -2 -5 -17 -4 -0 3 0 1 2 -1 -20 -20 -20 -20 -16 -6 -20 -18 -20 -20 -20 -20 -11 -1 -3 -17 -20 -20 -20 -20 -20 -20 -20 -20 -20 -20 -20 -20

GFSWCAN_prec_radar_060.txt.gz
Reflectivity
10 17 -5 -16 -6 8 6 5 -1 0 -7 16 7 23 35 22 32 24 3 28 30 23 -11 28 19 31 -0 -20 -10 -20 -11 17 39 28 21 -3 -20 -12 -12 -20 -16 2 13 24 -2 16 6 -4 17 3 -11 -1 -20 -20
10 -5 -20 -20 13 7 -14 -20 8 26 15 24 21 16 35 23 34 26 12 7 27 19 -11 26 3 -8 -14 -17 -19 -20 -20 -20 10 38 8 -7 -20 -20 -20 -13 -11 -19 -20 -20 -5 6 -20 13 26 9 6 -7 -20 -8
6 -12 -20 8 -11 7 -14 0 13 14 24 28 21 23 27 19 33 29 18 19 29 33 31 19 4 14 -20 -20 -20 21 -20 -11 32 -8 -19 -20 -19 -20 -8 -20 -5 -19 -19 -20 -4 -20 -19 18 9 13 10 -20 -10 -20
-12 14 -2 -5 14 11 17 -3 12 -16 13 9 19 19 18 26 11 -6 -0 23 34 38 9 -11 -0 -20 -20 -20 -20 -20 -17 -9 -18 -7 1 3 15 -20 -20 -20 1 -3 11 4 8 -14 8 20 22 30 16 2 -20 -16
19 10 15 -16 -2 -4 1 10 7 1 5 4 19 17 15 5 18 33 19 9 22 1 -14 -6 -18 10 -20 -20 6 -20 -20 -20 0 33 9 -20 -5 -15 -20 -16 -18 -20 -20 -20 -20 -20 8 3 4 0 -3 -16 -20 -20
18 4 -20 -9 -20 13 8 12 9 14 13 5 21 25 25 17 20 39 23 24 9 -15 24 29 11 -20 -20 -20 -20 -20 -9 -19 22 20 26 -9 20 -20 -20 -20 -20 -20 -20 -20 -15 -17 2 1 -12 -2 -20 -13 -6 -20
17 8 -14 -20 -20 -13 8 4 2 3 7 16 14 19 28 34 26 6 28 26 19 -11 -18 -20 -14 -20 -16 -20 -20 -20 7 21 7 25 36 -5 -20 -20 -20 -20 -20 -20 -20 -5 -7 -15 -17 -20 -20 -20 -20 -20 -20 -20
20 24 22 16 7 -0 29 26 27 23 29 29 32 33 34 19 26 17 -14 13 2 -20 -19 -4 -20 -2 2 6 -18 -20 -20 -6 21 27 5 2 -20 -2 -9 -20 -17 -17 -20 -20 -20 -20 -20 -20 -20 -20 -20 -20 -20 -20
-2 4 26 19 20 21 18 19 12 17 23 28 30 28 21 23 18 1 -20 -20 -19 19 -1 -20 -20 19 19 7 -20 6 -19 31 26 18 28 26 17 25 -16 -20 -20 -19 -20 -20 -20 -20 -20 -20 -20 -20 -20 -20 -20 -20
19 13 7 6 13 18 28 25 12 10 19 25 27 27 23 11 -19 -20 -20 -20 -18 -18 -12 -20 1 4 33 20 12 19 18 19 19 -19 25 20 26 -12 -20 -20 -4 -20 -20 -20 -20 -20 -20 -20 -20 -20 -20 -20 -20 -20
-20 -3 15 15 15 26 29 30 31 29 16 1 16 17 15 -4 -16 5 -15 -18 -13 -3 -20 -17 1 9 21 24 -1 15 4 -9 13 22 25 21 9 1 1 -17 -18 -20 -20 -20 -20 -20 -20 -20 -20 -20 -20 -20 -20 -20
-20 -20 -20 2 3 -3 6 14 13 20 10 3 3 7 -6 22 8 -0 18 12 20 6 25 -6 8 25 31 32 14 4 35 29 20 23 19 23 13 -1 -13 -17 1 -20 -20 -20 -20 -20 -20 -20 -20 -20 -20 -20 -20 -20
-20 -20 -20 -20 -20 -20 -20 -20 -20 -20 -20 16 9 -15 22 -13 6 18 -20 -7 14 18 -14 4 25 31 37 41 41 31 21 18 2 13 4 9 7 0 2 -20 -6 -20 -20 -20 -20 -20 -20 -20 -20 -20 -20 -20 -16 9
-20 -20 -20 -20 -20 -20 -20 -20 -20 -20 -20 -13 -19 -19 12 -19 -20 -2 -17 1 -0 -4 -20 19 19 36 31 34 34 29 37 33 31 17 17 12 10 6 5 6 -18 -5 -11 -9 0 -1 -4 -0 4 -0 -4 -14 -14 -0
-20 -20 -20 -20 -20 -12 -14 -20 -20 -20 -20 -20 -20 -2 -1 6 -10 -6 2 -13 2 -6 3 11 11 19 27 26 31 22 11 -2 -3 10 7 8 13 8 6 6 6 1 2 10 11 11 13 13 7 9 13 13 9 6
-20 -20 -20 -20 -20 -17 -19 -20 -20 -20 -13 -17 -5 6 2 -13 -12 -20 -9 -16 -13 -20 4 27 16 7 1 -2 -18 -7 -20 -0 10 9 8 5 10 11 10 5 4 7 9 9 7 4 5 7 9 15 15 14 9 8
-20 -20 1 -20 -0 22 8 -9 -20 -20 -6 9 9 2 5 -2 6 6 6 -2 -19 -14 -1 4 -10 0 -8 -18 -1 4 8 6 1 -1 7 13 12 11 12 11 11 12 12 12 10 7 11 13 11 11 9 14 10 11
3 -20 -20 -20 2 16 0 -10 -20 -1 8 9 7 10 8 8 6 8 5 3 7 -3 -9 2 -18 -20 -17 -17 -0 7 10 7 9 11 15 18 15 12 10 8 9 10 9 9 8 9 9 10 9 14 12 12 7 6
9 -9 -20 -20 -20 -11 -8 -4 -13 1 12 17 17 9 6 8 6 7 11 7 -7 -20 -19 -8 -14 -2 4 12 18 19 20 17 14 13 13 11 10 14 15 15 13 11 10 9 6 -5 -13 -12 -1 1 -1 -11 3 8
-14 -20 -20 -20 -20 -18 -20 -2 -11 -2 7 11 15 15 14 14 13 15 14 14 14 14 18 18 21 21 19 16 12 9 16 12 1 1 3 5 7 5 5 4 6 7 3 -1 -14 -15 -7 -6 -2 -6 -4 0 -10 -9
-3 -20 -20 -20 -16 1 5 4 2 5 5 12 -5 -20 7 -20 -20 -18 -16 -13 -4 1 2 7 7 5 -1 5 4 -9 -9 -20 -5 -2 2 -1 6 3 3 5 4 -0 -2 -2 -5 -14 -3 -1 5 0 -10 -20 -20 5
-20 -20 -20 -20 -20 -20 -16 -14 5 7 3 -2 -20 -8 -0 0 -7 -20 -20 -9 2 5 9 7 9 5 2 4 7 5 6 -1 -2 -4 -14 -16 -14 -14 -2 1 -18 -17 -20 -20 -16 -4 -20 -20 -2 -20 -4 5 -16 -20
-20 -20 -20 -20 -20 -20 -20 -20 -20 -10 -3 -6 -8 -5 -2 -3 -13 -20 -11 1 11 13 4 2 6 0 -1 -19 -18 -11 -13 -6 -8 -17 -12 -18 -19 -20 -20 -20 -20 -20 -20 -20 -20 -20 -5 -20 -20 -4 -10 -14 -11 2
-20 -20 -20 -20 -20 -20 -20 -20 -20 -17 -6 -18 -18 -16 -3 -3 -18 -20 -2 6 9 2 5 12 -1 -20 -20 -20 -20 -20 -20 -20 -20 -20 -20 -20 -20 -20 -20 -20 -20 -20 -20 -18 -5 1 -0 0 -14 -20 -20 -20 -17 -2
-20 -20 -20 -20 -20 -20 -20 -20 -20 -20 -19 -20 -20 -5 -2 -16 -11 -4 2 7 6 9 7 -0 -1 -2 -20 -20 -20 -20 -20 -20 -20 -20 -20 -20 -20 -19 -20 -20 -20 -20 -20 -0 1 -15 -3 -5 -7 -9 -20 -20 -17 -19
-20 -20 -20 -20 -20 -20 -20 -20 -20 -7 -16 -3 -2 -1 -1 -16 -17 -0 4 9 6 5 7 10 1 -20 -20 -20 -20 -20 -20 -20 -20 -20 -20 -20 -20 -20 -20 -20 -20 -16 -4 -3 -7 -6 -20 -20 -20 -20 -2 -20 -20 -20
-20 -9 -20 -20 -20 -20 -20 -20 -20 -19 -14 -3 -3 -2 -11 -20 -4 2 5 7 -3 -1 -1 -5 -20 -20 -20 -20 -20 -20 -20 -20 -20 -20 -20 -20 -20 -20 -20 -20 -20 -4 -9 -17 -8 -16 -7 -7 -20 -20 -20 -20 -9 -8
-19 -20 -20 -20 -20 -20 -20 -20 -20 -20 -5 -20 -20 -20 -20 -7 1 9 0 1 2 -4 -20 -20 -20 -20 -20 -18 -10 -9 -20 -20 -20 -20 -20 -20 -20 -18 -6 -20 -20 -20 -19 -20 -18 -10 -20 -20 -20 -20 -20 -20 -20 -2
-20 -20 -20 -20 -20 -20 -18 -20 -20 -16 -20 -16 -14 -10 -4 -1 6 3 3 3 2 -2 -0 -0 -1 -18 -14 -20 -20 -20 -20 -20 -20 -20 -20 -7 -7 -18 -6 -5 -2 -17 -3 -0 -20 -20 -20 -20 -20 -20 -20 -6 -4 -3
-20 -20 -20 -20 -20 -20 0 -9 1 -9 -20 -20 -20 -20 -5 -2 5 3 4 5 8 7 6 3 5 7 -1 2 -15 -20 -20 -20 -20 -20 -16 -20 -10 -4 -5 -4 -3 -2 -4 -5 -15 -7 -18 -20 -19 -17 -20 -20 -20 -20
-20 -20 -20 -20 -14 3 -1 -13 -7 -3 -9 -0 -8 -18 -8 -0 -0 -2 -2 -6 -2 0 -1 -0 0 -1 -3 -11 -5 -20 -20 -20 -20 -20 -20 -20 -4 -5 -16 -13 -7 -6 -1 -7 -20 -11 -20 -20 -15 -20 -20 -20 -20 -20
-20 -20 -20 -20 -12 -1 -1 11 2 -0 3 -1 -1 -7 -7 4 -1 0 1 2 3 6 -18 3 0 -19 -20 -20 -20 -20 -20 -20 -20 -20 -20 -20 -7 -17 -4 -4 -8 -3 -13 -20 -8 -20 -20 -20 -20 -20 -20 -20 -20 -20
-20 -20 -20 -20 -9 -4 -4 -3 -19 -3 -2 -1 -1 -4 -10 -1 -3 -3 -17 -13 -1 5 -6 -2 -20 -20 -20 -20 -20 -20 -15 -20 -20 -20 -20 -20 -20 -20 -20 -20 -11 -9 -20 -20 -20 -6 -20 -20 -20 -20 -20 -20 -20 -20

GFSWCAN_prec_radar_063.txt.gz
Reflectivity
13 11 16 14 -4 -17 0 2 2 -0 17 -4 -8 12 4 23 20 27 22 -9 32 36 -9 5 -19 -20 -20 -10 7 -20 -0 -6 -20 -20 -20 -20 -20 -2 -20 11 10 21 16 11 12 25 7 -20 -2 7 9 -17 13 5
21 19 9 9 -20 2 11 7 13 9 10 23 -1 10 13 14 26 33 32 2 7 41 19 3 -5 -20 16 -6 -1 -20 -19 -20 -20 -20 -20 -20 -5 -20 -20 -8 -20 5 -13 -20 -1 -17 -15 -2 7 -18 11 19 6 -18
29 17 9 -17 -9 9 -18 -19 -6 -3 14 -20 16 3 18 12 19 36 21 -12 32 39 30 16 -20 -20 19 8 -20 20 -4 -17 -13 -20 -20 -20 19 -20 -20 -20 -20 -20 -20 -20 -17 -20 -18 14 6 -18 8 5 -18 18
2 5 -4 -20 1 -20 -2 -20 -20 32 16 18 6 15 14 13 29 38 13 15 18 41 30 -16 -20 -20 -10 8 24 18 -20 -20 2 -20 23 24 26 -15 -20 -20 -20 -20 -20 -20 -20 -10 8 -14 -20 -2 10 6 15 -9
9 -11 -17 -20 -20 -2 -20 -20 3 22 38 27 19 -3 23 38 37 25 7 5 19 31 -20 -14 -20 32 -11 -20 -20 -20 -20 -20 -8 -8 -6 2 11 -6 -20 -11 -20 -20 -20 -20 -20 15 25 13 15 1 6 29 23 9
-6 -20 -18 -20 -1 -17 -20 -20 -4 20 25 1 10 22 30 20 23 34 35 26 21 -13 4 28 24 20 1 2 -20 -20 -20 -20 26 26 5 37 20 -0 24 -20 -20 -20 -20 -20 -20 12 10 9 -3 0 -11 -16 8 -2
-12 -20 3 -20 -20 -20 -20 -2 -2 -4 9 11 -7 -17 12 23 22 20 18 -16 24 38 28 2 -20 -16 -7 -20 -20 -20 -20 -20 16 -14 28 32 26 22 -20 -20 -20 -20 -20 -14 1 -3 -18 -20 -20 -20 -20 -20 -20 -20
-11 14 -6 -10 -3 -12 -10 6 12 14 15 0 11 18 39 43 23 -19 -20 -14 22 -8 -18 -19 10 -20 -20 -20 -20 -20 -20 -20 -20 21 26 18 -20 21 3 32 -20 -20 -20 -20 -20 -20 -20 -20 -20 -20 -20 -20 -20 -20
7 15 15 14 6 -20 1 23 13 3 27 20 22 21 36 34 8 2 16 1 -20 -20 -20 -20 -20 -20 -20 -8 -18 -20 -10 -2 -7 -18 -10 20 34 20 17 -8 -20 -20 -20 -20 -20 -20 -5 -20 -19 -9 -15 -20 -20 -20
12 19 24 26 20 22 24 25 22 13 19 25 17 19 38 10 -18 -8 28 28 23 1 -20 -20 -20 -20 -18 26 -10 -16 18 -7 -20 -20 20 1 36 27 -5 1 -0 -5 -20 -20 -20 -20 -20 -20 -19 -20 -18 -20 -20 -20
6 10 23 29 30 28 29 29 17 17 2 15 -7 -1 2 -17 -20 -20 -20 -20 -20 -20 -20 -20 -20 -20 -18 12 23 14 15 12 -6 -20 10 24 17 4 32 23 -4 -18 -20 -20 -20 -20 -20 -20 -20 -20 -20 -20 -20 -20
10 -18 -19 -19 -9 -9 -18 -19 -16 -19 -17 -9 -18 -20 -19 -14 -20 -20 -20 -20 -20 -20 -17 -11 -17 -3 6 -6 -20 17 14 -20 -18 -1 -16 2 8 4 -0 14 -12 -19 -20 -20 -20 -20 -20 -20 -20 -20 -20 -20 -20 -20
-20 -20 -20 -20 -20 -20 -14 -13 -16 -20 -20 -20 -20 -19 -12 -20 -20 -20 -17 -18 17 29 -0 11 -9 11 15 33 10 1 -16 -4 6 -4 6 8 8 1 0 2 -3 -16 -16 -18 -19 -20 -20 -20 -20 -20 -20 -20 -20 -20
-20 -20 -20 -20 -20 -20 -20 -20 -20 -20 -20 -20 -20 -20 -20 -20 -14 -12 -14 -10 -13 -2 -12 26 24 8 27 17 16 20 2 10 32 -6 -2 -10 5 0 3 -1 -20 -3 -9 -13 -5 1 4 -1 3 -1 6 11 10 12
-20 -20 -20 -16 -13 -20 -20 -20 -20 -20 -20 -20 -20 -17 -20 7 -14 -20 -17 -14 -18 -20 -9 4 24 18 25 27 22 29 22 29 11 -6 8 0 4 1 1 5 8 14 16 6 2 3 6 4 -6 -7 2 6 4 9
-20 -16 -0 1 -20 -20 -20 -20 -20 -20 -20 -20 -20 -20 -20 -20 -20 -20 -16 -20 -20 -20 -11 17 7 15 19 24 23 16 16 19 8 25 13 22 23 20 18 17 16 14 7 3 4 4 3 0 -4 4 -3 -6 1 -1
-20 -20 -18 14 5 -20 -20 -20 -20 -20 -20 -1 8 -14 -20 -18 -20 -18 -6 -20 -18 -16 -8 -20 -14 2 -16 -19 -8 2 -3 -8 -12 2 11 12 14 18 17 14 12 9 10 11 10 5 1 2 -6 -19 -2 7 -3 -4
3 -19 14 33 26 -16 -20 -20 -20 -20 -16 -12 -6 -6 3 -19 -20 2 -3 -18 -20 -20 -20 -1 -20 -20 -20 -20 -15 11 -15 -17 -14 -2 6 11 12 13 12 10 10 11 12 11 9 5 0 -11 -18 0 -1 -14 -19 -17
-20 -6 11 22 14 0 -20 -15 -16 -14 7 12 2 -2 -5 -3 -8 -17 -20 -18 -20 -20 -20 -20 -20 -5 -10 -19 -8 2 -0 -0 3 13 16 17 16 14 13 11 10 8 4 3 -4 -14 -19 -20 -20 -20 -20 -20 -16 -3
-20 -20 -20 -20 -20 -19 -20 5 2 -10 12 9 7 -1 -7 -0 1 -11 -2 -5 -10 -4 -14 -20 -9 7 6 11 11 15 14 12 10 9 8 6 5 2 6 6 7 7 1 -2 -15 -20 -20 -20 -20 -20 -20 -20 -20 -20
-20 -20 -20 -20 -5 -10 -20 1 -11 -20 -3 13 2 3 -1 2 -1 -8 -20 -18 -20 -20 3 2 -1 2 -12 -9 -11 -12 -15 -20 -20 -9 -5 -19 -2 -17 -12 -6 -8 -9 -13 -15 -17 -17 -18 -15 -3 -20 -20 -20 -20 -20
-20 -20 -20 -20 -20 -20 -20 -20 -11 -3 -15 -20 -20 -20 -20 -17 -16 -20 -15 -16 -5 -4 4 -12 -12 -19 -1 2 2 -15 -11 -20 -11 -20 -20 -19 -18 -12 -8 -3 -8 -11 -14 -20 -20 -20 -20 -20 -20 -20 -14 -20 -20 -20
-20 -20 -20 -20 -20 -20 -20 -20 -20 -6 -20 -11 -20 -20 -19 -20 -14 -20 -20 -1 13 -8 -15 -20 -9 -11 -12 -20 -11 6 3 -9 -19 -20 -20 -20 -20 -20 -20 -20 -20 -20 -20 -2 -20 -20 -20 -20 -20 -20 -20 -20 -20 -20
-20 -20 -20 -20 -20 -20 -20 -20 -20 -20 -20 -20 -20 -20 -20 -11 -20 -20 1 7 -6 -13 5 -1 -20 -20 -20 -20 -20 -20 -20 -20 -20 -20 -20 -20 -20 -20 -20 -20 -20 -20 -12 -20 -20 -20 -20 -20 -20 -20 -20 -20 -20 -20
-20 -20 -20 -20 -20 -20 -20 -20 -20 -20 -20 -20 -20 -20 -20 -20 -20 -4 1 4 1 -17 -19 -20 -20 -20 -20 -20 -20 -20 -20 -20 -20 -20 -20 -20 -20 -20 -20 -20 -20 -20 -20 -20 -20 -20 -20 -20 -20 -20 -20 -20 -20 -20
-20 -20 -20 -20 -20 -20 -20 -20 -20 -20 -20 -20 -13 -7 -20 -20 -20 -20 4 -11 -20 -20 -19 -19 -20 -20 -20 -20 -20 -20 -20 -20 -20 -20 -20 -20 -20 -20 -20 -20 -20 -20 -20 -20 -20 -20 -20 -20 -20 -20 -20 -20 -20 -20
-20 -20 -20 -20 -20 -20 -20 -20 -20 -20 -20 -20 -13 -19 -20 -20 -20 0 -0 -19 -20 -20 -20 -20 -20 -20 -20 -20 -20 -20 -20 -20 -20 -20 -20 -20 -20 -20 -20 -20 -20 -20 -20 -20 -20 -20 -20 -20 -20 -20 -20 -20 -20 -20
-8 -20 -20 -20 -20 -20 -20 -20 -20 -20 -20 -20 -20 -20 -20 -20 -20 -10 -20 -20 -20 -20 -20 -20 -20 -20 -20 -20 -20 -20 -20 -20 -20 -20 -20 -20 -20 -20 -20 -20 -20 -20 -20 -20 -20 -20 -20 -20 -20 -20 -20 -20 -20 -20
-20 -20 -20 -20 -20 -20 -20 -20 -20 -20 -20 -20 -20 -20 -8 -9 -20 -20 -20 -20 -20 -20 -20 -20 -20 -20 -20 -20 -20 -20 -20 -20 -20 -20 -20 -20 -20 -20 -20 -20 -20 -20 -20 -20 -20 -20 -20 -20 -20 -20 -20 -20 -20 -20
-20 -20 -20 -20 -20 -20 -1 -20 -0 -13 -20 -20 -20 -17 -20 -20 -14 -20 -20 -1 -4 -19 -20 -20 -20 -20 -20 -20 -20 -20 -20 -20 -20 -20 -20 -20 -20 -20 -20 -20 -20 -20 -20 -20 -20 -20 -20 -20 -20 -20 -20 -20 -20 -20
-20 -20 -20 -20 -15 -18 -20 -20 -20 -20 -20 -20 -20 -20 -12 -20 -20 -20 -20 -20 -20 -20 -20 -20 -20 -20 -20 -20 -20 -20 -20 -20 -20 -20 -20 -20 -20 -20 -20 -20 -20 -20 -20 -20 -20 -20 -20 -20 -20 -20 -20 -20 -20 -20
-20 -20 -20 -20 -11 -20 -20 -11 -19 -20 -20 -20 -20 -20 -20 -20 -20 -20 -20 -20 -20 -20 -20 -20 -20 -20 -20 -20 -20 -20 -20 -20 -20 -20 -20 -20 -20 -20 -20 -20 -20 -20 -20 -20 -20 -20 -20 -20 -20 -20 -20 -20 -20 -20
-20 -20 -20 -20 -20 -20 -20 -20 -20 -20 -20 -20 -20 -20 -20 -20 -20 -20 -20 -20 -19 -20 -20 -20 -20 -20 -20 -20 -20 -20 -20 -20 -20 -20 -20 -20 -20 -20 -20 -20 -20 -20 -20 -20 -20 -20 -20 -20 -20 -20 -20 -20 -20 -20

GFSWCAN_prec_radar_066.txt.gz
Reflectivity
28 28 25 12 -1 11 10 14 16 17 16 14 3 6 14 -20 6 21 21 17 20 37 6 -4 -20 -20 -20 -20 -20 -20 -20 -20 -20 -20 -20 -20 -20 -20 -16 -9 5 10 -20 -19 18 28 26 -20 -5 9 2 -17 -19 -11
28 30 28 22 19 10 -16 -14 8 11 -12 6 14 20 8 20 23 21 12 3 5 26 27 2 -20 -20 -20 -20 -20 -20 -20 -20 -20 -20 -20 -20 -20 -20 -20 -20 -20 1 -20 7 13 31 22 0 20 -3 -20 -20 -20 -5
18 14 12 -6 -11 16 15 9 15 13 10 16 15 17 4 19 29 37 30 14 22 20 26 29 -15 -20 -20 -20 -20 -20 -20 -20 -20 -20 -20 -10 -19 -20 -7 -20 -16 -20 -20 9 6 13 8 -17 -18 -20 17 21 5 20
-7 2 2 -8 -13 2 -7 -16 -12 -20 -6 9 10 24 28 14 14 33 40 9 -19 -1 9 -14 -20 -20 -18 -20 -20 -20 -20 -11 12 19 -3 -20 -20 -20 -20 -1 -20 -20 -20 -16 4 4 -20 1 -4 -20 -15 -1 11 31
8 7 15 18 2 0 -20 -18 7 14 13 27 15 23 33 26 19 29 27 -10 -20 -20 -19 33 31 2 -3 -9 -20 -12 -20 -9 19 34 24 17 -20 2 -20 -9 -11 -20 -20 -9 -14 -20 -20 -19 -19 -20 -20 12 9 -9
-19 -16 -13 10 17 -20 -20 14 15 -19 6 -12 18 27 13 27 35 35 25 32 -11 11 44 33 17 20 20 -20 -13 0 9 -3 30 15 20 -20 18 -20 19 -20 -20 18 25 -20 -20 -20 -20 -20 -20 3 -20 -20 -20 -20
-20 -19 2 1 -8 -1 11 14 19 8 21 14 15 18 31 32 19 15 24 12 -11 29 44 28 24 12 -20 -20 -6 -20 -20 -20 -7 -20 -20 -2 6 27 28 11 4 14 18 19 -18 -20 -20 -20 -20 -20 -20 -20 -20 -19
-20 -12 13 10 8 3 -11 4 12 20 27 22 32 33 23 12 28 34 -12 -20 19 35 24 14 27 7 -20 -20 -16 -20 -20 -20 -20 -20 -4 -20 -1 12 16 22 -20 -4 -20 -20 -20 -20 -20 -20 -20 -20 -20 -20 -20 -20
-7 -0 -9 5 -7 -2 1 10 16 7 10 4 20 24 28 20 10 0 13 23 10 -17 0 -20 -20 -19 -20 -20 -20 -20 -20 -20 -20 5 -14 11 32 28 6 -2 -20 -19 -4 -20 -20 -20 15 -10 -20 -20 -20 -20 -20 -20
12 2 11 20 -14 5 5 -1 14 16 31 34 27 23 28 28 31 27 30 27 30 -2 -4 -20 -20 -20 -20 -20 -19 -20 -20 -20 7 -10 -4 19 1 25 4 5 3 -18 -15 -20 -20 -20 -20 -20 -20 -20 -20 -20 -20 -20
22 16 20 15 10 -17 -7 -1 10 3 19 21 12 32 27 23 -2 -10 3 -20 -20 -20 -20 -20 -20 -20 -20 -20 -20 -20 -8 -9 18 -9 4 -7 -10 1 3 16 19 -8 -11 -20 -20 -20 -20 -16 -20 -8 8 0 -14 -20
22 17 11 -12 -10 -15 -20 -20 -20 -20 -20 -20 -20 -20 -20 -20 -20 -20 -20 -20 -20 -20 -20 -16 -20 -20 -20 -20 -20 5 27 21 -3 -17 -10 -20 8 3 4 1 13 -13 -20 -20 -13 8 16 23 27 19 -16 -20 -20 -20
10 10 10 -1 -20 -3 -13 -20 -20 -20 -20 -20 -20 -20 -20 -20 -20 -20 -20 -20 -3 -3 -14 -10 -20 -20 -20 -20 -20 -15 8 -2 10 4 -2 2 6 -18 -7 -15 -13 -12 -15 -15 -16 -17 -17 -19 -19 2 7 -7 -20 -20
-20 -20 -20 -19 -3 -1 11 -20 -20 -20 -20 -20 -20 -20 -20 -20 -20 -20 -19 -20 -9 4 -14 -3 -9 26 12 6 14 11 -3 -17 9 7 -19 -12 2 -11 -2 -2 -20 -20 -20 -20 -12 -7 -8 -8 2 5 10 14 14 13
-20 -19 -5 -20 -20 -20 -20 -20 -20 -20 -20 -20 -20 -20 -20 -17 -20 -20 -20 -20 -20 -4 16 23 26 28 16 13 -2 7 14 -20 -20 -20 -4 -10 -4 -17 -11 -6 -20 -20 -17 -8 5 11 13 14 12 12 13 13 10 11
16 21 9 -20 -20 -20 -20 -20 -20 -20 -20 -20 -20 -20 -20 -20 -20 -20 -20 -20 -20 -14 9 0 -3 5 2 4 -20 -10 -20 -20 -16 4 -1 -17 -17 -17 -11 -0 0 7 13 11 17 17 15 13 9 11 8 6 9 6
15 19 28 -8 -20 -20 -20 -20 -20 -20 -20 -20 -20 -20 -20 -20 -20 -18 -20 -20 -18 -20 -9 -8 -2 2 -0 -4 17 18 15 21 21 22 23 13 15 18 17 17 16 16 16 17 18 18 15 12 8 2 -1 10 5 6
-2 21 30 15 -20 -20 -20 -20 -20 -10 -15 -20 -20 -19 -20 -20 -20 -20 -20 -20 -20 -20 -20 -20 -20 -20 -20 -18 2 -0 4 3 -12 -0 8 9 9 14 16 16 15 14 13 12 11 10 9 9 1 -15 -4 -10 -20 -15
-1 13 20 -20 -20 -20 -20 -18 -16 -13 3 1 -11 -20 -19 -5 -14 -11 -20 -20 -20 -20 -20 -20 -20 -20 -20 -20 -3 -13 -15 -20 -19 -15 -19 -19 -15 -11 -2 5 7 3 2 4 4 -1 -11 -19 -20 -20 -20 -20 -20 -20
3 -16 -6 -20 -18 -20 -9 3 -18 -5 11 10 -3 -8 -7 1 -14 -20 -20 -20 -20 -20 -20 -20 -20 -19 -19 -6 -20 -11 -20 -16 -19 -20 -18 -15 -0 -1 -1 -2 -6 -2 -7 -12 -17 -19 -20 -20 -20 -20 -20 -20 -20 -20
-20 -20 -20 -9 -0 -15 -20 -20 -20 -20 -9 7 0 -12 4 -4 -20 -20 -20 -20 -20 -20 -2 -10 -20 -17 -19 -19 -20 -20 -20 -20 -20 -20 -20 -16 -3 -13 -12 -16 -18 -20 -20 -20 -20 -20 -20 -20 -20 -20 -20 -20 -20 -20
-20 -20 -20 -16 -20 -20 -20 -20 -10 -2 -20 -11 -11 -18 -20 -20 -20 -20 -20 -20 -14 -20 -20 -20 -20 -2 -20 -20 -19 -20 -19 -20 -20 -20 -20 -20 -20 -20 -20 -20 -20 -20 -20 -20 -20 -20 -20 -20 -20 -20 -20 -20 -20 -20
-20 -20 -20 -20 -20 -20 -20 -20 -20 -20 -20 -20 -20 -20 -20 -20 -20 -19 -20 5 5 -7 -20 -20 -20 -20 -3 -4 -8 -10 -19 -20 -20 -20 -20 -20 -20 -20 -20 -20 -20 -20 -20 -20 -20 -20 -20 -20 -20 -20 -20 -20 -20 -20
-20 -20 -20 -20 -20 -20 -20 -20 -20 -20 -20 -20 -20 -20 -20 -20 -20 -20 -18 -12 11 1 -10 -20 -20 -20 -20 -20 -20 -20 -20 -20 -20 -20 -20 -20 -20 -20 -20 -20 -20 -20 -20 -20 -20 -20 -20 -20 -20 -20 -20 -20 -20 -20
-20 -20 -20 -20 -20 -20 -20 -20 -20 -20 -20 -20 -20 -20 -20 -20 -20 -20 -19 -20 -20 -20 -20 -20 -20 -20 -20 -20 -20 -20 -20 -20 -20 -20 -20 -20 -20 -20 -20 -20 -20 -20 -20 -20 -20 -20 -20 -20 -20 -20 -20 -20 -20 -20
-20 -20 -20 -20 -20 -20 -20 -20 -20 -20 -20 -20 -20 -20 -20 -20 -20 -20 -20 -20 -20 -20 -20 -20 -20 -20 -20 -20 -20 -20 -20 -20 -20 -20 -20 -20 -20 -20 -20 -20 -20 -20 -20 -20 -20 -20 -20 -20 -20 -20 -20 -20 -20 -20
-20 -20 -20 -20 -20 -20 -20 -20 -20 -20 -20 -20 -20 -20 -20 -20 -20 -10 -20 -20 -20 -20 -20 -20 -20 -20 -20 -20 -20 -20 -20 -20 -20 -20 -20 -20 -20 -20 -20 -20 -20 -20 -20 -20 -20 -20 -20 -20 -20 -20 -20 -20 -20 -20
-20 -20 -20 -20 -20 -20 -20 -20 -20 -20 -20 -20 -20 -20 -20 -20 -17 -20 -20 -20 -20 -20 -20 -20 -20 -20 -20 -20 -20 -20 -20 -20 -20 -20 -20 -20 -20 -20 -20 -20 -20 -20 -20 -20 -20 -20 -20 -20 -20 -20 -20 -20 -20 -20
-20 -20 -20 -20 -20 -20 -20 -20 -20 -20 -20 -20 -20 -20 -20 -20 -20 -20 -20 -20 -20 -20 -20 -20 -20 -20 -20 -20 -20 -20 -20 -20 -20 -20 -20 -20 -20 -20 -20 -20 -20 -20 -20 -20 -20 -20 -20 -20 -20 -20 -20 -20 -20 -20
-20 -20 -20 -20 -20 -20 -14 -20 -20 -20 -20 -20 -16 -10 -20 -20 -16 -20 -20 -20 -20 -20 -20 -20 -20 -20 -20 -20 -20 -20 -20 -20 -20 -20 -20 -20 -20 -20 -20 -20 -20 -20 -20 -20 -20 -20 -20 -20 -20 -20 -20 -20 -20 -20
-20 -20 -20 -20 -20 -20 -20 -20 -20 -20 -20 -20 -20 -20 -20 -20 -20 -20 -20 -20 -20 -20 -20 -20 -20 -20 -20 -20 -20 -20 -20 -20 -20 -20 -20 -20 -20 -20 -20 -20 -20 -20 -20 -20 -20 -20 -20 -20 -20 -20 -20 -20 -20 -20
-20 -20 -20 -20 -20 -20 -20 -20 -20 -20 -20 -20 -20 -20 -20 -20 -20 -20 -20 -20 -20 -20 -20 -20 -20 -20 -20 -20 -20 -20 -20 -20 -20 -20 -20 -20 -20 -20 -20 -20 -20 -20 -20 -20 -20 -20 -20 -20 -20 -20 -20 -20 -20 -20
-20 -20 -20 -20 -20 -20 -20 -20 -20 -20 -20 -20 -20 -20 -20 -20 -20 -20 -20 -20 -20 -20 -20 -20 -20 -20 -20 -20 -20 -20 -20 -20 -20 -20 -20 -20 -20 -20 -20 -20 -20 -20 -20 -20 -20 -20 -20 -20 -20 -20 -20 -20 -20 -20

GFSWCAN_prec_radar_069.txt.gz
Reflectivity
27 21 17 15 22 14 6 9 12 17 -19 -20 -9 15 -8 17 6 23 27 2 28 31 27 26 3 -20 -20 -19 -20 -20 6 -18 -20 -20 -20 -20 -20 -20 -20 -20 -20 -20 -16 -20 -6 -10 -20 -20 -4 6 6 -13 -20 -20
15 -1 17 12 16 19 26 10 5 28 19 16 -2 -20 -20 10 14 19 27 13 23 26 15 15 -2 -20 -20 -20 1 7 6 0 -19 -20 -20 -20 -20 -20 -20 -20 -20 2 -20 -20 -20 -18 -16 -20 -19 21 32 31 18 -20
15 2 6 17 -17 5 6 3 13 16 20 15 17 17 -20 -10 -0 20 23 28 22 31 12 9 -18 -20 -20 -20 -0 -17 -20 -20 -20 -20 -20 -20 -20 -20 -20 -20 -20 -20 -20 -20 -20 -20 -20 -10 -20 13 17 -6 3 24
8 5 -20 2 -20 -20 -20 -1 12 16 20 -3 -4 12 15 18 -20 19 19 22 10 23 12 -20 -20 10 -20 -18 -20 -20 -20 -20 -20 -20 -15 -20 -20 -20 -20 -20 -20 -20 -20 -20 -20 -20 -20 -20 -20 -13 5 3 -20 -20
6 -6 -20 -20 -20 -20 3 1 -20 -20 -20 11 20 18 10 16 16 25 34 25 -10 -16 5 -13 18 14 12 20 3 -0 10 9 -20 -20 -13 -20 -20 3 -4 -20 -20 -20 -20 -20 -20 -20 -15 -17 4 -7 -14 -14 -20 -20
-9 16 12 -20 -9 -3 20 -20 -6 10 7 13 17 18 4 17 36 38 41 35 10 8 6 7 19 -18 -18 -0 21 17 2 -10 -20 -16 0 -15 13 24 22 -20 -20 -20 -20 -20 -9 -20 -5 -19 -20 -2 -4 -11 -20 -20
15 16 -9 -4 15 24 -18 -18 -20 -11 21 16 -1 18 26 33 6 14 15 18 22 19 23 22 5 18 -12 -20 6 -7 -20 -20 -18 -10 -3 31 29 23 33 21 4 -20 -20 -20 -18 -0 26 -20 -11 -18 -15 -20 -20 -20
3 5 -18 -8 1 18 -3 8 5 17 22 8 16 28 34 25 11 15 -20 -20 -15 16 33 31 26 20 25 17 23 -14 8 7 2 -20 -20 -20 -1 23 25 -7 -16 -10 -20 23 32 12 12 -15 -20 -20 5 2 -3 -20
9 24 1 12 2 -1 20 10 24 21 24 26 24 34 37 28 27 -1 4 4 13 29 19 31 5 19 5 5 -5 -0 -20 -14 -20 -20 -20 10 -20 2 -15 -20 -19 -17 -10 1 -5 -9 -20 15 -11 20 5 -20 5 -20
19 7 2 -2 5 21 21 13 30 28 13 22 -9 12 36 25 -1 4 23 39 36 13 1 -15 -20 -20 -20 -20 -20 -20 -20 -20 -20 -20 -8 -20 -3 -1 -20 1 5 -11 -20 -3 -20 -2 -20 -20 -20 10 -20 9 -20 -19
16 7 4 4 2 13 19 17 11 18 -3 9 23 24 28 21 2 35 24 8 -20 -20 -20 -20 -20 -20 -20 -20 -20 -20 -20 -20 -20 -20 -5 -15 -15 -0 -8 -20 -20 -10 -2 -4 -20 -20 -17 5 -20 -20 -19 -14 -19 -19
15 5 -4 13 13 8 3 13 10 3 8 18 13 17 31 24 21 -4 -20 -20 -20 -12 -20 -20 -20 -20 -20 -20 -20 -20 -20 7 12 -4 7 -10 6 -5 -16 -20 -14 -18 -20 -20 -20 -20 -20 -20 -20 -19 -5 3 1 11
22 22 21 3 -13 -14 -20 -20 -17 9 -0 8 -16 -20 -18 -20 -20 -20 -20 -20 -19 -17 -20 -20 -19 -20 -20 -16 -20 -20 -10 26 23 3 -8 -7 0 -20 -12 -16 -20 -20 -20 -18 -18 -20 -17 -14 -16 -17 -14 -11 2 10
-20 -6 -9 -1 -4 -16 -20 -20 -20 -16 -8 -16 -20 -20 -20 -20 -20 -20 -20 -20 -15 -20 -20 -20 -20 -18 -7 -20 1 8 9 14 19 -7 -19 -20 -3 -4 -18 -3 -20 -20 -20 -20 -20 -20 -16 -18 -14 -10 -4 5 6 6
-9 17 -19 -17 -14 -20 -20 -20 -20 -20 -20 -20 -20 -20 -20 -10 -17 -18 -19 -20 -20 -19 -14 -5 14 15 16 18 4 -20 -20 -20 -20 -20 -20 -20 -18 -5 -13 -18 -18 -19 -20 -20 -20 -20 -17 -9 -20 -14 -3 1 2 7
24 10 10 -20 -20 -20 -20 -20 -20 -20 -20 -20 -20 -20 -20 -20 -20 -20 -20 -20 -20 -1 15 4 3 -4 2 -19 -20 -20 -20 -20 -17 -17 -14 -13 -15 -1 2 -3 -4 -6 -14 -8 1 4 1 -18 -18 -5 -0 5 9 10
30 -9 -2 1 -14 -20 -20 -20 -20 -20 -20 -20 -20 -20 -20 -20 -20 -20 -20 -20 -20 -19 9 12 7 3 -2 6 3 -19 -13 -8 -11 0 4 7 5 -5 5 5 2 1 8 10 11 12 6 4 -3 -6 -2 6 4 7
17 21 -17 -20 -20 -20 -20 -20 -20 -20 -20 -20 -20 -20 -20 -20 -20 -20 -20 -20 -20 -17 8 -1 -17 -3 -20 -20 -20 -4 -17 -15 -20 -9 3 9 9 10 13 13 15 16 15 15 14 14 14 12 7 3 1 -1 -2 -20
16 5 -18 -20 -20 -20 -20 -20 -20 -14 -20 -20 -20 -20 -20 -20 -20 -20 -20 -20 -20 -20 -20 -11 -20 -20 -20 -20 -20 -18 -20 -20 -20 -19 -18 -19 -8 2 7 7 -1 -1 5 6 6 -3 -16 -20 -20 -20 -20 -20 -20 -20
5 -20 -20 -20 -20 -20 -20 -20 -20 -20 -12 -17 -20 -20 -20 -20 -20 -20 -20 -20 -20 -20 -20 -20 -20 -20 -20 -20 -20 -20 -20 -20 -20 -20 -20 -19 -9 -8 -17 -19 -18 -17 -19 -20 -20 -20 -20 -20 -20 -20 -20 -20 -20 -20
-20 -20 -20 -20 -20 -20 -20 -20 -20 -20 -20 -20 -20 -20 -20 -20 -20 -20 -20 -20 -20 -1 -20 -20 -20 -19 -20 -20 -20 -20 -20 -20 -20 -20 -20 -20 -20 -20 -20 -20 -20 -20 -20 -20 -20 -20 -20 -20 -20 -20 -20 -20 -20 -20
-20 -20 -20 -5 -12 -20 -20 -20 -20 -20 -15 -2 -6 -20 -20 -20 -20 -20 -20 -20 -12 -19 -19 -18 -19 -20 -20 -20 -20 -20 -20 -20 -20 -20 -20 -20 -20 -20 -20 -20 -20 -20 -20 -20 -20 -20 -20 -20 -20 -20 -20 -20 -20 -20
-20 -20 -20 -20 -20 -20 -7 -20 -20 -20 -20 -20 -20 -20 -20 -20 -20 -20 -20 -4 -1 -13 -20 -20 -20 -14 -20 -20 -20 -20 -20 -20 -20 -20 -20 -20 -20 -20 -20 -20 -20 -20 -20 -20 -20 -20 -20 -20 -20 -20 -20 -20 -20 -20
-20 -20 -20 -20 -20 -20 -20 -20 -20 -20 -20 -20 -20 -20 -20 -20 -20 -20 -20 -20 -5 -20 -20 -20 -20 -20 -20 -20 -20 -20 -20 -20 -20 -20 -20 -20 -20 -20 -20 -20 -20 -20 -20 -20 -20 -20 -20 -20 -20 -20 -20 -20 -20 -20
-20 -20 -20 -20 -20 -20 -20 -20 -20 -20 -20 -20 -20 -20 -20 -20 -20 -20 -20 -20 -20 -20 -20 -20 -20 -20 -20 -20 -20 -20 -20 -20 -20 -20 -20 -20 -20 -20 -20 -20 -20 -20 -20 -20 -20 -20 -20 -20 -20 -20 -20 -20 -20 -20
-20 -20 -20 -20 -20 -20 -20 -20 -20 -20 -20 -20 -20 -20 -20 -20 -20 -20 -20 -20 -20 -20 -20 -20 -20 -20 -20 -20 -20 -20 -20 -20 -20 -20 -20 -20 -20 -20 -20 -20 -20 -20 -20 -20 -20 -20 -20 -20 -20 -20 -20 -20 -20 -20
-20 -20 -20 -20 -20 -20 -20 -20 -20 -20 -20 -20 -20 -20 -20 -20 -20 -20 -20 -20 -20 -20 -20 -20 -20 -20 -20 -20 -20 -20 -20 -20 -20 -20 -20 -20 -20 -20 -20 -20 -20 -20 -20 -20 -20 -20 -20 -20 -20 -20 -20 -20 -20 -20
-20 -20 -20 -20 -20 -20 -20 -20 -20 -20 -20 -20 -20 -20 -20 -20 -20 -20 -20 -20 -20 -20 -20 -20 -20 -20 -20 -20 -20 -20 -20 -20 -20 -20 -20 -20 -20 -20 -20 -20 -20 -20 -20 -20 -20 -20 -20 -20 -20 -20 -20 -20 -20 -20
-20 -20 -20 -20 -20 -20 -20 -20 -20 -20 -20 -20 -20 -20 -20 -20 -20 -20 -20 -20 -20 -20 -20 -20 -20 -20 -20 -20 -20 -20 -20 -20 -20 -20 -20 -20 -20 -20 -20 -20 -20 -20 -20 -20 -20 -20 -20 -20 -20 -20 -20 -20 -20 -20
-20 -20 -20 -20 -20 -20 -20 -20 -20 -20 -20 -20 -15 -17 -20 -20 -20 -20 -20 -20 -20 -20 -20 -20 -20 -20 -20 -20 -20 -20 -20 -20 -20 -20 -20 -20 -20 -20 -20 -20 -20 -20 -20 -20 -20 -20 -20 -20 -20 -20 -20 -20 -20 -20
-20 -20 -20 -20 -20 -20 -20 -20 -20 -20 -20 -20 -20 -20 -20 -20 -20 -20 -20 -20 -20 -20 -20 -20 -20 -20 -20 -20 -20 -20 -20 -20 -20 -20 -20 -20 -20 -20 -20 -20 -20 -20 -20 -20 -20 -20 -20 -20 -20 -20 -20 -20 -20 -20
-20 -20 -20 -20 -20 -20 -20 -20 -20 -20 -20 -20 -20 -20 -20 -20 -20 -20 -20 -20 -20 -20 -20 -20 -20 -20 -20 -20 -20 -20 -20 -20 -20 -20 -20 -20 -20 -20 -20 -20 -20 -20 -20 -20 -20 -20 -20 -20 -20 -20 -20 -20 -20 -20
-20 -20 -20 -20 -20 -20 -20 -20 -20 -20 -20 -20 -20 -20 -20 -20 -20 -20 -20 -20 -20 -20 -20 -20 -20 -20 -20 -20 -20 -20 -20 -20 -20 -20 -20 -20 -20 -20 -20 -20 -20 -20 -20 -20 -20 -20 -20 -20 -20 -20 -20 -20 -20 -20

GFSWCAN_prec_radar_072.txt.gz
Reflectivity
19 28 16 7 13 12 19 12 2 1 9 -0 6 19 23 26 29 31 32 25 29 31 24 17 -3 3 -5 8 6 5 23 7 -3 -3 -12 -3 -20 -20 -20 -20 -20 5 -6 9 17 12 -2 -20 20 -7 -2 -20 -20 -20
19 -8 21 11 16 25 11 20 24 10 -6 18 19 10 16 28 31 34 36 25 29 30 27 11 -20 -20 -20 -5 17 19 2 -20 -20 -20 -20 -20 -20 -20 -20 -20 -20 -20 -20 -20 -20 -20 -20 -20 -20 -20 -20 -20 -20 -20
12 11 11 -20 -20 -20 -20 -14 14 29 11 15 28 15 21 29 31 32 34 29 31 35 34 29 16 2 -19 -18 12 10 -20 -20 -20 -20 -20 -20 -20 -20 -20 -20 -20 -20 -20 -20 -20 -20 -20 -20 -20 -20 -20 -17 -20 -13
14 15 -11 -18 -9 -6 -19 -20 -20 12 24 24 30 18 7 11 11 29 24 24 9 16 -0 -12 3 24 -12 -20 -18 1 13 6 -3 -2 -19 -20 -20 -20 -20 -20 -20 -20 -19 -20 -20 -20 -20 -20 -20 -20 5 -6 -20 -20
-7 12 4 16 10 2 2 14 -13 -15 9 21 35 35 14 -2 13 17 20 7 -15 -16 2 -16 -20 -3 -6 -20 -14 -8 -1 3 -18 5 0 -20 -20 -20 -20 -20 -20 -20 -20 -20 -20 -20 -20 -20 -20 -20 -20 -20 -10 -12
-19 -11 5 -15 17 9 -19 -20 -20 -20 5 19 23 25 25 15 17 18 28 14 -20 -20 -13 -19 -20 -20 -20 -20 1 5 2 -0 4 -1 -20 -20 -20 18 -20 -20 -20 -20 -20 -20 -20 -20 -20 -20 -20 -20 -20 -20 -19 -2
-4 10 10 9 8 -14 -20 11 -1 12 14 19 26 11 17 11 6 21 15 0 18 -12 12 -20 -0 2 -18 8 35 36 23 19 24 27 -20 -20 -20 -20 -20 -15 12 -13 -16 -20 -16 -20 -20 -20 -3 -20 0 -14 14 22
11 -9 9 17 11 -3 3 14 19 17 21 19 21 15 18 25 34 16 -19 -16 -16 22 -3 -20 8 23 18 33 35 33 25 15 20 -11 -20 -20 -20 -17 -5 7 -20 4 21 20 -12 -18 -20 -20 -20 -20 -15 5 2 17
3 1 15 28 28 26 2 26 22 20 24 19 33 15 36 39 37 25 15 19 6 14 -5 13 22 24 5 -9 -2 -4 -9 28 1 -20 -20 -4 -20 -20 -7 -19 -20 -1 -3 -3 -20 -18 -13 2 28 -19 1 -19 -20 -17
-14 3 18 21 27 35 22 21 26 23 28 37 29 38 35 18 10 17 30 30 27 19 30 13 29 17 28 26 14 -2 -19 -5 -20 -20 -20 -15 -19 -17 -2 -20 -20 -19 -12 1 -19 -20 7 12 -20 -20 -20 -20 -20 -20
-20 -20 -20 3 21 6 19 28 24 34 35 32 34 28 14 -4 -1 13 18 20 27 9 24 27 -12 5 16 -16 -20 -7 2 -20 -20 -20 -13 -20 -18 2 -14 -20 -20 -20 -10 -20 -10 -17 -20 -2 -6 -12 -10 -20 -20 -20
4 -19 -13 -14 3 -18 -20 -11 -20 -20 -12 15 18 19 20 13 20 21 13 -3 -19 -11 -17 -20 -20 -20 -16 -20 -20 -20 -20 -20 -20 -7 -15 -20 5 -20 -20 -20 -20 -20 -20 -20 -20 -20 -20 -3 -19 -20 -20 -20 -14 -14
2 13 7 -13 -1 -19 -20 16 -4 -20 -3 14 -20 -20 -19 -2 -17 -20 -20 -20 -20 -20 -20 -20 -20 -20 -20 -20 -20 -20 -20 -1 -7 12 6 -6 -3 -18 -19 -20 -20 -20 -20 -20 -18 -19 -14 -14 -13 -14 -16 -13 2 -12
-3 -19 -20 -20 -20 -17 -12 -10 -20 -20 -19 -20 -20 -20 -20 -20 -20 -19 -17 -18 -11 -17 -20 -20 -19 -20 -16 -20 -20 -20 -11 -20 9 21 -2 -20 -2 2 -2 -2 -20 0 5 2 -19 -18 -20 -20 -20 -20 -16 -3 -9 -5
-20 -20 -20 -20 -20 -20 -20 -20 -20 -20 -20 -20 -20 -20 -20 -16 -19 -18 -18 -20 -19 -16 -20 -20 -20 -20 -20 -20 -20 -2 -6 -9 -20 -20 0 0 -0 4 3 5 -13 -13 -16 -14 -9 -20 -8 1 -3 7 4 -0 -5 5
-20 -20 -20 -20 -20 -20 -20 -20 -20 -20 -20 -20 -20 -20 -20 -20 -10 -12 -14 -16 -15 -17 -1 3 -20 -20 -16 -10 -15 -20 -20 -20 -20 -20 -20 -20 -14 -6 3 9 9 8 4 0 5 7 7 8 7 10 5 -3 -0 -0
-20 -20 -20 -20 -20 -20 -20 -20 -20 -20 -20 -20 -20 -20 -20 -20 -20 -20 -20 -20 -20 7 12 10 10 -5 -8 -11 -10 -20 -20 -20 -3 10 12 10 7 3 4 1 -6 6 11 9 6 9 6 3 2 -1 -12 4 8 11
8 2 -19 -20 -20 -20 -20 -20 -20 -20 -20 -20 -20 -20 -20 -20 -20 -20 -20 -20 -20 -19 6 8 12 9 8 11 14 4 -12 -0 5 7 4 -5 -2 1 0 -5 -10 -1 6 11 10 5 -8 -9 -9 -7 -1 7 9 10
0 -15 -20 -20 -20 -20 -20 -20 -20 -20 -11 -20 -20 -20 -20 -20 -20 -20 -20 -20 -20 -10 -11 -17 -17 -12 -5 -8 -13 -20 -20 -20 -19 -20 -20 -20 -20 -20 -19 -5 4 7 8 4 -2 -9 -12 -14 -20 -19 -12 -4 -13 -20
-12 -15 -20 -20 -20 -20 -20 -20 -20 -20 -20 -20 -8 -20 -20 -20 -20 -20 -20 -20 -20 -11 -20 -20 -20 -20 -20 -20 -20 -20 -20 -20 -20 -20 -20 -20 -20 -20 -18 -15 -15 -18 -19 -12 -9 -16 -17 -19 -20 -20 -20 -20 -20 -20
-20 -20 -20 -20 -20 -20 -20 -20 -20 -20 -20 -20 -20 -20 -20 -20 -20 -20 -20 -20 -20 -4 -20 -20 -20 -20 -20 -20 -20 -20 -20 -20 -20 -20 -20 -20 -20 -20 -20 -20 -20 -19 -18 -17 -17 -20 -20 -20 -20 -20 -20 -20 -20 -20
-20 -20 -20 -20 -20 -20 -20 -20 -20 -20 -15 -20 -18 -20 -20 -20 -20 -20 -20 -20 -20 -20 -20 -20 -20 -20 -20 -20 -20 -20 -20 -20 -20 -20 -20 -20 -20 -20 -20 -20 -20 -20 -20 -20 -20 -20 -20 -20 -20 -20 -20 -20 -20 -20
-20 -20 -20 -20 -20 -20 -6 -18 -20 -20 -20 -20 -20 -20 -20 -20 -20 -20 -20 -16 -5 -10 -20 -20 -20 -20 -20 -20 -20 -20 -20 -20 -20 -20 -20 -20 -20 -20 -20 -20 -20 -20 -20 -20 -20 -20 -20 -20 -20 -20 -20 -20 -20 -20
-20 -20 -20 -20 -20 -20 -20 -20 -20 -20 -20 -20 -20 -20 -20 -20 -20 -20 -20 -20 -17 -20 -20 -20 -20 -20 -20 -20 -20 -20 -20 -20 -20 -20 -20 -20 -20 -20 -20 -20 -20 -20 -20 -20 -20 -20 -20 -20 -20 -20 -20 -20 -20 -20
-20 -20 -20 -20 -20 -20 -20 -20 -20 -20 -20 -20 -20 -20 -20 -20 -20 -20 -20 -20 -20 -20 -20 -20 -20 -20 -20 -20 -20 -20 -20 -20 -20 -20 -20 -20 -20 -20 -20 -20 -20 -20 -20 -20 -20 -20 -20 -20 -20 -20 -20 -20 -20 -20
-20 -20 -20 -20 -20 -20 -20 -20 -20 -20 -20 -20 -20 -20 -20 -20 -20 -20 -20 -20 -20 -20 -20 -20 -20 -20 -20 -20 -20 -20 -20 -20 -20 -20 -20 -20 -20 -20 -20 -20 -20 -20 -20 -20 -20 -20 -20 -20 -20 -20 -20 -20 -20 -20
-20 -20 -20 -20 -20 -20 -20 -20 -20 -20 -20 -20 -20 -20 -20 -20 -20 -20 -20 -20 -20 -20 -20 -20 -20 -20 -20 -20 -20 -20 -20 -20 -20 -20 -20 -20 -20 -20 -20 -20 -20 -20 -20 -20 -20 -20 -20 -20 -20 -20 -20 -20 -20 -20
-20 -20 -20 -20 -20 -20 -20 -20 -20 -20 -20 -20 -20 -20 -20 -20 -20 -20 -20 -20 -20 -20 -20 -20 -20 -20 -20 -20 -20 -20 -20 -20 -20 -20 -20 -20 -20 -20 -20 -20 -20 -20 -20 -20 -20 -20 -20 -20 -20 -20 -20 -20 -20 -20
-20 -20 -20 -20 -20 -20 -20 -20 -20 -20 -20 -20 -20 -20 -20 -20 -20 -20 -20 -20 -20 -20 -20 -20 -20 -20 -20 -20 -20 -20 -20 -20 -20 -20 -20 -20 -20 -20 -20 -20 -20 -20 -20 -20 -20 -20 -20 -20 -20 -20 -20 -20 -20 -20
-20 -20 -20 -20 -20 -20 -20 -20 -20 -20 -20 -20 -15 -17 -20 -20 -18 -20 -20 -20 -20 -20 -20 -20 -20 -20 -20 -20 -20 -20 -20 -20 -20 -20 -20 -20 -20 -20 -20 -20 -20 -20 -20 -20 -20 -20 -20 -20 -20 -20 -20 -20 -20 -20
-20 -20 -20 -20 -20 -20 -20 -20 -20 -20 -20 -20 -20 -20 -20 -20 -20 -20 -20 -20 -20 -20 -20 -20 -20 -20 -20 -20 -20 -20 -20 -20 -20 -20 -20 -20 -20 -20 -20 -20 -20 -20 -20 -20 -20 -20 -20 -20 -20 -20 -20 -20 -20 -20
-20 -20 -20 -20 -20 -20 -20 -20 -20 -20 -20 -20 -20 -20 -20 -20 -20 -20 -20 -20 -20 -20 -20 -20 -20 -20 -20 -20 -20 -20 -20 -20 -20 -20 -20 -20 -20 -20 -20 -20 -20 -20 -20 -20 -20 -20 -20 -20 -20 -20 -20 -20 -20 -20
-20 -20 -20 -20 -20 -20 -20 -20 -20 -20 -20 -20 -20 -20 -20 -20 -20 -20 -20 -20 -20 -20 -20 -20 -20 -20 -20 -20 -20 -20 -20 -20 -20 -20 -20 -20 -20 -20 -20 -20 -20 -20 -20 -20 -20 -20 -20 -20 -20 -20 -20 -20 -20 -20

GFSWCAN_prec_radar_075.txt.gz
Reflectivity
12 19 16 12 -6 17 11 17 17 20 17 25 -6 15 24 19 22 32 28 17 25 29 15 -20 -20 6 14 23 10 2 28 28 24 8 -4 -17 -20 -20 -20 -20 -17 -20 -18 -10 -2 5 -1 -20 -20 -5 -20 -20 -20 -20
23 16 4 13 17 16 -14 16 -5 3 -17 25 8 4 21 27 22 27 29 22 11 9 22 7 -12 -10 14 6 23 25 11 -1 -20 -20 -20 -20 -20 -20 -20 -20 -20 2 -4 8 -18 -20 -20 -20 -20 -20 -20 -20 -20 -20
16 7 12 12 -13 -20 -20 -20 -20 20 13 25 16 14 19 23 29 29 31 21 24 35 27 25 22 -4 15 21 16 -8 -1 -6 -10 -20 -20 -20 -20 -20 -20 -20 -20 -20 -20 -20 -20 -20 -20 -20 -20 -20 -20 -20 -20 -20
8 15 -20 -15 -19 12 -4 -6 -20 -6 18 21 27 23 24 28 27 37 29 16 25 25 20 21 20 -12 -17 3 12 9 9 27 5 13 -17 -20 -11 -20 -20 -20 -20 -20 -20 -20 -20 -20 -20 -20 -20 -20 -20 -20 -20 -20
-19 -20 -2 2 -20 -14 -12 3 -7 -20 -20 33 26 25 27 32 34 36 27 20 18 20 24 7 -20 -17 -20 -20 -4 5 19 16 8 14 -10 3 -20 3 -20 -20 -20 -20 -20 -20 -20 -20 -20 -20 -20 -20 -20 -20 -20 -20
-20 -11 3 -16 -20 -14 -20 -20 2 -20 -20 28 28 27 27 35 34 34 37 34 30 32 13 -20 -20 -11 -20 -19 -19 -0 5 22 28 18 -5 15 -14 -15 -20 -20 -20 -20 -20 -20 -20 -20 -20 -20 -20 -20 -20 -20 -20 -20
-9 13 -19 -18 -3 -20 -19 -6 -5 -20 18 31 30 29 27 31 23 18 11 14 6 6 12 -18 -20 -20 -20 4 -18 -11 -3 14 16 28 2 -19 -20 13 -20 -20 -16 -20 -20 -20 -20 -20 -20 -20 -11 -20 -20 -20 -20 -20
0 -15 18 11 8 16 15 10 -11 -5 17 29 34 20 23 24 23 17 13 4 -19 -19 -19 -20 -18 -10 -17 -2 -2 16 20 20 25 32 25 -18 8 4 -20 -19 -20 -20 -20 -20 -20 -8 -1 -17 -20 -20 -20 -6 -20 -20
-12 -20 12 24 12 3 14 15 17 23 29 34 32 36 32 27 10 13 16 9 0 -20 -20 -20 -20 18 18 21 6 35 36 28 30 27 34 28 -4 -20 -4 -20 -20 -20 -12 -16 -20 -20 -17 -14 -13 -20 -11 5 12 -19
-20 -20 -20 24 10 28 27 36 31 35 27 35 32 28 39 21 -5 18 23 26 16 -12 -20 -20 -20 -20 18 27 29 31 17 19 22 22 21 15 -16 -5 -18 -20 -20 -20 -3 -17 -20 -20 -20 -15 14 7 -8 18 25 -11
-20 8 -14 -20 -20 8 -6 22 27 33 27 35 36 25 31 21 9 7 4 0 12 -0 -20 -19 -16 22 26 -4 0 6 -1 -20 -20 -19 -18 -20 -20 -4 -19 -20 -20 -20 -20 -20 -20 -13 -19 -6 -14 -3 16 14 10 -16
14 12 12 -0 -18 11 -3 12 19 20 3 3 19 20 13 -8 -20 -20 -13 -12 -20 3 -8 12 23 25 27 14 -10 -10 -4 4 -14 -18 -12 -20 3 -20 -16 -11 -20 -20 -20 -20 -20 -18 -18 -16 -12 -14 8 14 -7 -9
-19 3 18 11 -19 -20 -20 -20 -8 5 -20 -20 -20 -20 -20 -20 -20 -20 -20 -20 -20 -12 0 2 5 4 22 -17 -1 -12 -19 -17 -20 -20 -20 -5 5 -6 -7 -18 -8 -4 -13 -20 -20 -15 -15 -18 -16 -16 -13 -13 -13 1
-20 -20 -15 23 -11 -20 -20 3 -17 -20 -20 -20 -20 -20 -20 -20 -20 -20 -20 -20 -20 -18 2 -7 -19 -20 -20 -20 -10 -20 -19 -20 -20 -20 -18 -14 -5 -1 -2 1 -17 -17 -19 -19 -13 -6 -11 -14 -19 -20 -16 -2 0 -5
-20 -20 -20 -4 -20 -20 -20 -9 -5 -17 -20 -20 -20 -20 -20 -19 -19 -18 -17 -16 -16 -16 -14 -20 -20 -20 -20 -20 -20 -20 -20 -20 -20 -20 -20 -20 -20 -7 -1 -11 -4 -8 -3 -17 -9 2 0 -11 -20 -8 -3 -4 -19 -19
-20 -20 -20 -20 -20 -20 -20 -20 -20 -20 -20 -20 -20 -20 -20 -20 -20 -20 -20 -20 -19 -19 -20 -20 -20 -20 -20 -20 -20 -20 -20 -20 -20 -20 -20 -20 -20 -16 -9 -8 -9 -7 -19 -16 -4 -1 3 6 2 3 -2 -12 -6 -10
-20 -20 -20 -20 -20 -20 -20 -20 -20 -20 -20 -20 -20 -20 -20 -20 -20 -20 -20 -20 -20 -20 -20 -7 -12 -20 -18 -17 -20 -20 -20 -20 -20 -7 -5 -9 4 5 3 5 5 3 -1 -2 1 5 -1 -1 4 7 0 1 0 7
-20 -20 -20 -20 -20 -20 -20 -20 -20 -20 -20 -20 -20 -20 -20 -20 -20 -20 -20 -20 -20 -20 -20 -20 -20 -12 1 -8 2 11 10 3 2 -5 -9 -3 -3 -1 4 5 7 7 2 -3 1 -1 -0 3 -1 -8 -5 4 6 5
-20 -20 -20 -20 -20 -20 -20 -20 -20 -20 -20 -20 -20 -20 -20 -20 -20 -20 -20 -20 -20 -20 -20 -20 -14 -14 -16 -19 -20 -20 -20 -20 -20 -20 -20 -20 -17 -9 -2 3 5 3 -1 -2 -0 -5 -14 -16 -13 -8 -9 -14 -20 -20
-20 -20 -20 -20 -20 -20 -20 -20 -20 -20 -20 -20 -20 -20 -20 -20 -20 -20 -20 -20 -20 -19 -20 -20 -20 -20 -20 -20 -20 -20 -20 -20 -20 -20 -20 -20 -20 -20 -19 -17 -17 -16 -17 -18 -20 -20 -20 -20 -20 -20 -20 -20 -20 -20
-20 -20 -20 -20 -20 -20 -20 -20 -20 -20 -20 -20 -20 -20 -20 -20 -20 -20 -20 -20 -20 -4 -20 -20 -20 -20 -20 -20 -20 -20 -20 -20 -20 -20 -20 -20 -20 -20 -20 -20 -20 -20 -20 -20 -20 -20 -20 -20 -20 -20 -20 -20 -20 -20
-20 -20 -20 -20 -20 -20 -20 -20 -20 -20 -20 -20 -20 -20 -20 -20 -20 -20 -20 -20 -20 -20 -20 -20 -20 -20 -20 -20 -20 -20 -20 -20 -20 -20 -20 -20 -20 -20 -20 -20 -20 -20 -20 -20 -20 -20 -20 -20 -20 -20 -20 -20 -20 -20
-20 -20 -20 -20 -20 -20 -20 -13 -20 -20 -20 -20 -20 -20 -20 -20 -20 -20 -20 -17 -20 -12 -20 -20 -20 -20 -20 -20 -20 -20 -20 -20 -20 -20 -20 -20 -20 -20 -20 -20 -20 -20 -20 -20 -20 -20 -20 -20 -20 -20 -20 -20 -20 -20
-20 -20 -20 -20 -20 -20 -20 -20 -20 -20 -20 -20 -20 -20 -20 -20 -20 -20 -20 -20 -6 -20 -20 -20 -20 -20 -20 -20 -20 -20 -20 -20 -20 -20 -20 -20 -20 -20 -20 -20 -20 -20 -20 -20 -20 -20 -20 -20 -20 -20 -20 -20 -20 -20
-20 -20 -20 -20 -20 -20 -20 -20 -20 -20 -20 -20 -20 -20 -20 -20 -20 -20 -20 -20 -20 -20 -20 -20 -20 -20 -20 -20 -20 -20 -20 -20 -20 -20 -20 -20 -20 -20 -20 -20 -20 -20 -20 -20 -20 -20 -20 -20 -20 -20 -20 -20 -20 -20
-20 -20 -20 -20 -20 -20 -20 -20 -20 -20 -20 -20 -20 -20 -20 -20 -20 -20 -20 -20 -20 -20 -20 -20 -20 -20 -20 -20 -20 -20 -20 -20 -20 -20 -20 -20 -20 -20 -20 -20 -20 -20 -20 -20 -20 -20 -20 -20 -20 -20 -20 -20 -20 -20
-20 -20 -20 -20 -20 -20 -20 -20 -20 -20 -20 -20 -20 -20 -20 -20 -20 -20 -20 -20 -20 -20 -20 -20 -20 -20 -20 -20 -20 -20 -20 -20 -20 -20 -20 -20 -20 -20 -20 -20 -20 -20 -20 -20 -20 -20 -20 -20 -20 -20 -20 -20 -20 -20
-20 -20 -20 -20 -20 -20 -20 -20 -20 -20 -20 -20 -20 -20 -20 -20 -20 -20 -20 -20 -20 -20 -20 -20 -20 -20 -20 -20 -20 -20 -20 -20 -20 -20 -20 -20 -20 -20 -20 -20 -20 -20 -20 -20 -20 -20 -20 -20 -20 -20 -20 -20 -20 -20
-20 -20 -20 -20 -20 -20 -20 -20 -20 -20 -20 -20 -20 -20 -20 -20 -20 -20 -20 -20 -20 -20 -20 -20 -20 -20 -20 -20 -20 -20 -20 -20 -20 -20 -20 -20 -20 -20 -20 -20 -20 -20 -20 -20 -20 -20 -20 -20 -20 -20 -20 -20 -20 -20
-20 -20 -20 -20 -20 -20 -20 -20 -20 -20 -20 -20 -16 -18 -20 -20 -16 -20 -20 -20 -20 -20 -20 -20 -20 -20 -20 -20 -20 -20 -20 -20 -20 -20 -20 -20 -20 -20 -20 -20 -20 -20 -20 -20 -20 -20 -20 -20 -20 -20 -20 -20 -20 -20
-20 -20 -20 -20 -20 -20 -20 -20 -20 -20 -20 -20 -20 -20 -20 -20 -20 -20 -20 -20 -20 -20 -20 -20 -20 -20 -20 -20 -20 -20 -20 -20 -20 -20 -20 -20 -20 -20 -20 -20 -20 -20 -20 -20 -20 -20 -20 -20 -20 -20 -20 -20 -20 -20
-20 -20 -20 -20 -20 -20 -20 -20 -20 -20 -20 -20 -20 -20 -20 -20 -20 -20 -20 -20 -20 -20 -20 -20 -20 -20 -20 -20 -20 -20 -20 -20 -20 -20 -20 -20 -20 -20 -20 -20 -20 -20 -20 -20 -20 -20 -20 -20 -20 -20 -20 -20 -20 -20
-20 -20 -20 -20 -20 -20 -20 -20 -20 -20 -20 -20 -20 -20 -20 -20 -20 -20 -20 -20 -20 -20 -20 -20 -20 -20 -20 -20 -20 -20 -20 -20 -20 -20 -20 -20 -20 -20 -20 -20 -20 -20 -20 -20 -20 -20 -20 -20 -20 -20 -20 -20 -20 -20

GFSWCAN_prec_radar_078.txt.gz
Reflectivity
11 12 5 -1 3 -8 -20 1 13 -17 13 20 12 19 31 21 27 31 14 13 -8 18 4 18 -10 18 7 20 8 15 28 33 29 15 15 14 13 4 -20 -9 -8 -11 7 13 8 4 10 -20 -20 -5 -13 -20 -20 -20
19 19 1 -20 7 14 17 -17 -17 -17 15 2 16 5 33 18 24 31 30 18 15 14 19 2 16 -20 9 5 24 23 11 -2 -18 9 15 20 11 -20 -20 -14 -20 20 -17 11 -17 -2 -16 23 -20 -20 -20 -20 -20 -20
17 2 -16 -19 -3 13 14 12 -20 -20 -20 14 -8 12 31 12 21 27 31 10 15 25 18 6 2 -18 2 27 14 25 10 20 10 -20 18 17 14 -16 11 -20 -20 -20 -20 4 -2 -20 -20 -20 -20 -20 -20 -20 -20 -20
4 -15 3 -7 -11 -8 -13 -5 14 4 -20 -20 10 12 30 13 23 26 28 13 22 26 21 -7 -14 9 16 22 22 7 14 15 17 2 17 17 -13 -17 9 -16 -20 -20 -20 -20 -20 -20 -20 -20 -20 -20 -20 -20 -20 -20
-10 -10 -2 -12 3 -17 -20 -20 -20 11 4 11 -11 30 26 16 27 30 16 10 9 17 17 7 4 0 11 31 16 5 23 20 23 27 15 16 17 4 -6 -12 -20 -20 -20 -17 -20 -20 -20 -20 -20 -20 -20 -20 -20 -20
-20 -20 13 9 -8 14 -13 -19 -20 -20 9 18 17 32 28 27 38 25 34 27 -1 16 22 8 -18 -14 -10 4 -13 17 27 29 19 23 27 20 -20 21 15 13 -20 -20 -20 -20 -20 -20 -20 -20 -20 -20 -20 -20 -20 -20
-20 -6 9 5 -19 11 2 -20 -20 9 -12 13 34 30 29 31 23 22 22 30 25 18 26 -1 13 -5 -18 -8 16 23 30 32 22 24 20 20 19 -7 20 9 -20 -20 -20 -20 -20 -20 -20 -16 -7 -20 -20 -20 -20 -20
-20 4 0 5 -9 14 16 0 -20 -20 28 29 30 25 31 36 32 28 5 -7 5 24 4 -9 7 16 -20 7 18 19 25 24 31 23 16 20 20 21 15 -16 -20 -20 -20 -20 -20 -20 -20 3 -8 -20 -5 -4 -15 -20
-19 13 -20 5 -20 -6 -20 9 8 25 35 32 32 33 35 31 23 0 -2 5 14 15 -1 -20 10 -11 13 17 15 15 7 20 15 19 22 17 20 15 1 -19 -20 -20 -20 -20 -20 -20 -20 -19 -19 -20 -20 -20 -19 -17
7 9 -10 -18 17 5 28 33 28 31 34 32 27 23 36 32 12 13 30 29 25 -18 -6 10 1 -8 13 -10 6 -19 -11 13 16 28 -4 20 9 -6 -3 -20 -20 -20 -20 -10 -20 -16 -20 -19 -8 -20 -20 -20 -20 -19
22 9 12 1 15 31 22 28 23 17 -6 -7 18 21 27 25 10 13 24 15 -7 4 -8 -7 -8 6 -17 23 20 16 36 35 22 19 23 12 -6 -4 -19 -17 -20 -20 -18 -10 -8 -19 -6 -11 -3 -18 -16 -20 -20 -7
25 11 -15 -5 10 27 13 6 -8 -8 -3 -9 18 16 3 25 7 -19 10 8 11 6 10 16 -1 16 26 19 -2 33 22 13 7 -3 -12 -20 2 -7 -20 -13 -20 -5 -4 -20 -20 -10 -17 -8 -7 -4 -14 -3 -16 9
16 20 -20 -20 -20 -20 -7 16 30 12 5 -20 -16 -11 -18 -20 -20 -20 -4 -6 -1 -4 -17 19 22 23 7 21 19 5 0 -2 -13 -16 -20 -1 0 -2 -3 -4 -3 -3 -3 -17 -20 -15 -20 -18 -6 -18 -9 -3 -18 -15
15 26 -20 -20 8 -3 -20 -20 -10 -4 10 -20 -20 -20 -20 -20 -3 -3 -2 -3 -5 -16 -17 -12 -1 20 -16 -20 -6 -20 -6 -14 -20 -20 -10 3 1 1 2 -0 -2 1 -0 -3 -3 -4 -3 -20 -2 -17 -8 -1 -8 -20
-14 20 -14 -20 -20 -12 -19 -20 -20 -20 -20 -20 -20 -14 -1 -2 -6 -4 -6 -4 -17 -15 -20 -11 -20 -20 -20 -20 -20 -20 -20 -20 -20 -2 3 3 3 2 2 2 1 -0 -1 0 1 -7 -5 -6 -13 -9 -1 5 3 -9
-20 -17 -19 -20 -20 -20 -20 -20 -20 -20 -20 -20 -20 -14 -20 -20 -17 -17 -19 -19 -18 -19 -12 -20 -20 -20 -20 -20 -20 -20 -20 -20 1 4 3 2 -1 -2 -1 -2 0 2 2 2 1 0 2 3 1 2 5 5 2 -3
-20 1 -20 -20 -20 -20 -20 -20 -20 -20 -20 -20 -4 -1 -2 -20 -4 -20 -5 -19 -18 -20 -17 -20 -20 -6 -19 -20 -20 -5 -5 3 3 2 0 -2 -3 -3 -3 -20 -20 -7 -5 -2 -1 5 8 7 7 10 5 10 11 9
-12 -20 -20 -20 -20 -20 -20 -20 -20 -20 -20 -17 -9 1 -20 -2 -4 -6 -7 -20 -20 -20 -20 -18 -20 -20 -20 -20 -16 -1 1 -2 -6 -15 -2 -3 -20 -20 -20 -20 -20 -20 -20 -14 -1 2 3 6 8 8 8 7 5 -1
-14 -20 -20 -20 -20 -20 -20 -20 -20 -20 -11 -3 -9 -10 -20 -10 -20 -20 -20 -20 -20 -20 -20 -20 -20 -20 1 3 3 3 2 -2 -0 -1 -1 -2 -10 -20 -20 -20 -20 -20 -20 -15 -7 -1 3 6 7 6 1 -10 -20 -20
-20 -20 -20 -20 -20 -20 -20 -20 -20 -20 -20 -20 -20 -20 -20 -20 -20 -20 -20 -20 -20 -20 -20 -20 -0 0 2 3 2 1 0 -2 -16 -2 -0 -1 -7 -20 -9 -3 -4 -3 -18 -16 -10 -2 -8 -18 -20 -20 -20 -20 -20 -5
-20 -20 -20 -20 -20 -20 -20 -20 -20 -20 -20 -20 -20 -20 -20 -20 -20 -20 -20 -20 -20 -4 -1 2 1 0 0 0 1 1 1 0 0 -0 -20 -4 -2 -3 -4 -4 -3 -15 -18 -3 -16 -20 -20 -20 -20 -13 1 1 2 -0
-20 -20 -20 -20 -20 -20 -20 -20 -20 -20 -20 -20 -20 -20 -20 -20 -20 -20 -20 -20 -2 2 1 1 2 -1 -20 -15 -2 -2 -4 -20 -20 -20 -20 -20 -4 -20 -20 -7 -20 -20 -20 -20 -20 -20 -20 -20 -20 -19 -3 1 -1 -1
-20 -20 -20 -20 -20 -20 -9 -4 -1 -18 -20 -20 -20 -20 -20 -20 -20 -20 -20 -16 0 4 -0 -1 -3 -4 -2 -2 -18 -20 -20 -20 -20 -20 -20 -20 -20 -20 -20 -20 -20 -20 -20 -20 -20 -20 -20 -20 -20 -20 -20 -4 -12 -20
-20 -20 -20 -20 -20 -20 -16 -20 -20 -20 -20 -20 -20 -20 -20 -20 -20 -20 -20 -2 0 0 -1 -3 -20 -20 -20 -20 -20 -20 -20 -20 -20 -20 -20 -20 -20 -20 -20 -20 -20 -20 -20 -20 -20 -20 -20 -20 -20 -20 -20 -20 -20 -20
-20 -20 -20 -20 -20 -20 -20 -20 -20 -20 -20 -20 -20 -20 -20 -20 -20 -20 -20 -13 -0 0 -3 -12 -20 -20 -20 -20 -20 -20 -20 -20 -20 -20 -20 -20 -20 -20 -20 -20 -20 -20 -20 -2 -3 -4 -20 -20 -20 -20 -20 -20 -20 -20
-20 -20 -20 -20 -20 -20 -20 -20 -20 -20 -20 -20 -20 -20 -20 -20 -20 -20 -20 -20 -2 -20 -20 -20 -20 -20 -20 -20 -20 -20 -20 -20 -20 -20 -20 -20 -20 -20 -20 -20 -20 -20 -20 -20 -20 -20 -20 -20 -20 -20 -20 -20 -20 -20
-20 -20 -20 -20 -20 -20 -20 -20 -20 -20 -20 -20 -20 -20 -20 -20 -20 -12 -4 -20 -20 -20 -20 -20 -20 -20 -20 -20 -20 -20 -20 -20 -20 -20 -20 -20 -20 -20 -20 -20 -20 -20 -20 -20 -20 -20 -20 -20 -20 -20 -20 -20 -20 -20
-20 -20 -20 -20 -20 -20 -20 -20 -20 -20 -20 -20 -20 -20 -20 -20 -20 0 -18 -20 -20 -20 -20 -20 -20 -20 -20 -20 -20 -20 -20 -20 -20 -20 -20 -20 -20 -20 -20 -20 -20 -20 -20 -20 -20 -20 -20 -20 -20 -20 -20 -20 -20 -20
-20 -20 -20 -20 -20 -20 -18 -20 -20 -20 -20 -20 -20 -20 -5 -3 -13 -18 -3 -20 -20 -20 -20 -20 -20 -20 -20 -20 -20 -20 -20 -20 -20 -20 -20 -20 -20 -6 -20 -20 -20 -20 -11 0 -20 -18 -20 -20 -20 -20 -20 -6 -6 -20
-20 -20 -20 -20 -20 -20 -3 -1 -17 -20 -20 -20 -17 -10 -20 -17 -3 -18 -20 -20 -20 -20 -20 -20 -20 -20 -20 -20 -20 -20 -20 -20 -20 -20 -20 -20 -20 -20 -20 -13 -13 -20 -20 -2 -2 -6 -13 -20 -19 -13 -20 -15 -3 -3
-20 -20 -20 -20 -15 1 -13 -20 -20 -20 -20 -20 -20 -20 -19 -5 -20 -20 -20 -20 -20 -20 -20 -20 -20 -20 -20 -20 -20 -20 -20 -20 -20 -20 -20 -20 -20 -20 -20 -20 -20 -20 -20 -20 -20 -18 -18 -20 -20 -20 -20 -20 -20 -20
-20 -20 -20 -20 -19 -20 -20 -20 -20 -20 -20 -20 -20 -20 -20 -20 -19 -18 -20 -20 -20 -20 -20 -20 -20 -20 -20 -20 -20 -20 -20 -20 -20 -20 -20 -20 -20 -20 -20 -20 -20 -20 -20 -20 -20 -20 -20 -20 -20 -20 -20 -20 -20 -20
-20 -20 -20 -20 -20 -20 -20 -20 -20 -20 -20 -20 -20 -20 -20 -20 -20 -20 -20 -20 -20 -20 -20 -20 -20 -20 -20 -20 -20 -20 -20 -20 -20 -20 -20 -20 -20 -20 -20 -20 -20 -20 -20 -20 -20 -20 -20 -20 -20 -20 -20 -20 -20 -20

GFSWCAN_prec_radar_081.txt.gz
Reflectivity
3 -2 14 7 5 4 -19 -20 -20 -19 -8 4 20 -3 19 28 30 27 11 -2 5 15 -11 -20 -20 16 -20 20 37 22 22 13 25 23 19 18 18 -8 -20 -12 -2 5 16 14 12 14 12 -20 -20 -4 17 2 -20 -20
-3 10 17 8 -11 8 -3 14 11 14 16 15 6 17 14 16 35 31 29 6 15 21 15 -4 -20 -20 -6 26 28 27 10 7 11 16 16 18 20 17 -18 11 -4 13 -18 8 -18 -18 -4 -14 -20 -20 -20 -20 -20 -20
11 10 -19 -17 1 -20 -20 -15 -15 -20 -20 -20 -20 14 18 7 27 34 30 11 22 23 9 6 3 -17 -20 -3 8 28 1 21 18 -18 27 20 17 -19 15 -19 14 -13 11 22 23 -12 29 17 24 -20 -20 -20 -20 -20
2 -10 5 8 4 6 4 8 -19 -9 5 10 -16 7 13 -16 26 34 31 10 23 19 12 -18 -20 -20 -20 -3 15 -2 8 21 23 33 22 21 17 -20 -2 -15 -14 -6 -20 -20 -11 21 8 20 -2 -20 -20 -20 -20 -20
-10 1 -12 1 -17 4 -15 -13 -11 -17 12 13 -20 6 15 -2 28 35 27 8 20 -19 14 -20 8 -20 -20 -11 18 20 24 27 30 27 20 8 17 8 -20 10 -9 6 13 15 22 -6 -20 -9 -5 -20 -20 -20 -4 -20
-3 -1 -2 -18 5 -3 -19 -18 -2 10 14 14 -20 -20 14 27 34 35 37 20 13 7 31 21 -20 -20 -20 -8 -3 19 14 23 33 20 25 -0 10 20 21 17 15 -20 -20 -20 -20 -20 -20 -20 -20 -20 -20 -20 -20 -20
10 -9 -1 -8 -20 -16 -20 -1 0 -18 16 16 -4 13 36 31 30 22 22 11 -19 21 21 16 17 -1 -12 7 9 18 26 32 22 31 9 22 24 18 19 20 -3 -20 -20 -20 -20 -20 -20 -20 2 -20 -20 -20 -20 -20
-11 8 -20 -20 -20 -20 -20 -20 -6 14 14 9 33 29 28 29 28 19 2 -15 -20 29 9 19 22 -0 17 19 19 14 23 29 26 26 11 4 21 24 18 -17 -20 -20 -20 -20 -20 -20 -20 -20 -20 -20 -20 -20 -20 -20
-12 -20 5 -14 19 -5 -20 11 0 17 30 34 29 32 33 31 32 11 18 12 9 17 20 -8 18 21 1 20 15 29 24 34 28 25 25 21 13 24 2 -20 -20 -20 -20 -20 -20 -20 -20 -20 -20 -20 -20 -20 -20 -20
3 15 6 -14 2 20 22 20 27 21 24 21 18 27 35 21 11 28 33 35 34 20 19 2 23 11 9 16 16 2 10 16 18 -9 10 18 -3 -1 -20 -20 -20 -20 -20 -20 -20 -20 -20 -20 -20 -14 -20 -20 -20 -20
11 11 16 17 22 20 18 15 6 -18 1 3 14 26 10 20 26 22 19 13 14 11 -15 13 13 2 -12 10 11 11 11 15 14 0 2 8 1 -3 -20 -20 -20 -20 -20 -20 -20 -20 -20 -13 -17 -14 -20 -20 -20 -20
-20 -8 20 25 20 29 25 8 9 15 4 -1 21 27 20 25 10 16 15 -3 19 17 5 6 8 2 -4 29 24 -7 18 5 22 19 23 5 4 -20 -20 -20 -20 -20 -20 -20 -20 -20 -15 -2 1 -15 -9 -11 -10 -4
-14 -20 12 20 22 21 1 19 9 7 16 6 -10 -2 -20 -20 -18 18 7 10 8 -13 -4 2 10 -16 -5 12 14 22 18 15 -8 12 15 3 2 -18 -0 -7 -20 -8 -20 -17 -6 -4 -7 -3 -2 -1 1 5 5 3
-17 -19 14 9 20 22 22 13 -20 -5 9 8 -20 -20 -19 -18 -5 -3 -1 -12 1 -10 -3 5 6 25 13 -11 -2 -0 -18 -19 -7 -1 1 2 1 4 4 2 -4 -4 -2 -2 -0 1 -0 0 3 -0 -0 2 0 -0
-5 3 17 6 2 -1 2 -20 -20 -20 -20 -19 -20 -19 -1 6 4 2 -0 2 -3 -13 -2 17 1 15 -1 -14 -19 -11 -8 -4 -10 2 6 6 5 5 6 7 5 3 3 4 2 1 0 -1 -3 -3 -0 4 5 5
10 -20 -19 -20 -20 -20 -20 -20 -20 -20 -20 -20 -14 5 -4 8 2 -1 -1 -1 -14 -15 -20 -4 -10 -20 -16 -20 -20 -6 -9 -3 5 5 8 7 4 2 4 3 5 5 5 4 2 -0 -1 -3 -2 -0 -1 0 1 -1
-5 8 -20 -19 -20 -20 -20 -20 -20 -20 -20 -15 -0 2 3 -1 2 0 -1 -3 -20 -4 -20 -19 -10 -4 -19 -11 -4 -4 2 6 5 4 2 0 3 3 2 0 1 -0 -0 -0 -0 -0 1 2 1 -5 -10 3 3 3
-18 -19 -20 -20 -20 -20 -20 -20 -20 -20 -4 4 -0 4 1 4 4 3 2 -12 -7 -19 -20 -7 -20 -20 -3 -2 1 3 4 4 6 3 4 2 2 2 2 1 0 0 -1 -1 -1 2 3 3 -4 -2 -2 -3 -3 -13
-5 -15 -20 -20 -20 -20 -20 -20 -20 -13 -1 0 2 -0 -0 0 -5 -5 -10 -20 -20 -20 -20 -20 -20 -2 3 5 5 5 7 4 3 2 0 -2 0 -1 -3 -1 1 0 0 1 0 -3 -7 -1 -0 -0 2 -8 -20 -20
-20 -20 -20 -20 -20 -20 -20 -20 -20 -20 -2 -2 -20 -11 -6 0 -0 -1 -20 -20 -20 -20 -20 -7 3 11 6 8 7 4 3 2 2 1 1 1 2 1 4 4 4 4 0 -0 -1 2 -1 -18 -20 -20 -20 -16 -1 -1
-20 -20 -20 -20 -20 -20 -20 -20 -20 -20 -20 -16 -20 -20 -1 -5 -1 -20 -20 -20 -20 -2 1 5 4 -0 -7 6 5 3 5 4 4 6 1 -1 3 1 1 2 1 2 2 2 2 -10 -20 -20 -20 -5 1 2 1 -0
-20 -20 -20 -20 -20 -20 -16 -20 -20 -20 -3 -20 -20 -20 1 2 -7 -20 -20 -20 0 7 4 3 4 -1 -1 -1 -2 -1 -3 -3 -15 -16 -15 -11 2 1 -2 1 -0 -0 -8 -20 -20 -16 -20 -20 -20 -4 -0 2 1 1
-20 -20 -20 -20 -20 -20 0 -1 -10 -12 -0 -20 -20 -20 -20 -20 -20 -20 -6 -9 3 7 0 -2 -2 -13 -2 -4 -12 -3 -13 -4 -1 -0 -2 -17 -20 -20 -20 -20 -20 -12 -16 -20 -20 -20 -20 -20 -20 -4 -11 -1 -3 -7
-20 -20 -20 -20 -20 -3 0 -3 -20 -20 -20 -20 -20 -20 -20 -20 -20 -20 -7 0 2 -1 -2 -4 -17 -20 -20 -20 -20 -20 -20 -20 -20 -20 -20 -20 -20 -20 -20 -20 -20 -20 -20 -20 -19 -7 -4 -18 -20 -7 -4 -1 -3 -1
-20 -20 -20 -20 -20 -20 -20 -20 -20 -20 -20 -20 -20 -20 -20 -20 -20 -20 -18 -1 -2 0 -2 -2 -20 -20 -8 -20 -20 -20 -20 -20 -20 -20 -20 -20 -20 -20 -20 -20 -20 -20 -20 0 1 2 0 -1 -0 -0 -1 -3 -5 -20
-20 -20 -20 -20 -20 -20 -20 -20 -20 -20 -20 -20 -20 -20 -20 -20 -20 -20 -20 0 2 1 -0 1 1 -20 -20 -20 -20 -20 -20 -20 -20 -20 -20 -20 -20 -8 -9 -17 -20 -16 -20 -4 -1 0 -4 -11 -9 -20 -20 -15 -20 -20
-20 -20 -20 -20 -20 -20 -20 -20 -20 -20 -20 -20 -20 -20 -20 -20 -20 -8 1 -1 -2 -2 -10 -20 -20 -20 -20 -20 -20 -20 -20 -20 -20 -20 -20 -20 -20 -20 -14 -2 -10 -6 -20 -6 -5 -3 -2 -20 -20 -20 -20 -6 -5 -11
-20 -20 -20 -20 -20 -20 -20 -20 -20 -20 -20 -20 -20 -20 -20 -20 -10 5 0 1 -5 -20 -20 -20 -20 -20 -20 -20 -20 -20 -20 -20 -20 -20 -20 -20 -20 -20 -20 -20 -20 -20 -10 -17 1 -5 -4 -4 -4 -8 -5 -2 -1 -2
-20 -20 -20 -20 -20 -20 -20 -20 -20 -15 -20 -20 -20 -20 -8 -4 3 1 -0 -2 -20 -20 -20 -20 -20 -20 -20 -20 -20 -20 -5 -3 -4 -20 -20 -20 -4 -2 -7 -2 -1 -1 1 1 -20 -13 -15 -5 -3 -3 -2 -0 1 0
-20 -20 -20 -20 -20 -16 1 1 1 -0 -20 -20 -20 -3 0 2 5 0 -0 -0 -6 -12 -20 -20 -20 -20 -20 -20 -20 -20 -17 -11 -20 -20 -13 -20 -0 -3 -2 -1 0 -0 1 2 0 -4 -12 -1 -5 -4 -1 -2 -0 1
-20 -20 -20 -20 -5 3 4 1 0 -0 0 -7 -8 -20 -8 0 2 -2 -1 -1 -1 -14 -15 -20 -20 -20 -20 -20 -20 -20 -11 -3 -20 -20 -20 -20 -5 -2 -2 -5 -1 0 0 -2 -2 -2 -3 -3 -1 -2 -3 -5 -14 -20
-20 -20 -20 -20 -10 2 -2 4 2 3 1 0 -1 -20 -1 -0 -2 1 -3 1 3 3 -19 -2 -16 -5 -15 -13 -19 -20 -20 -20 -20 -20 -20 -20 -3 -5 -3 -5 -20 -3 -4 -5 -5 -10 -20 -20 -19 -6 -20 -20 -20 -20
-20 -20 -20 -20 -20 -20 -20 -8 -20 -7 -20 -20 -6 -1 -5 -18 -13 -1 -20 -19 -0 0 -2 -12 -4 -7 -20 -20 -20 -20 -20 -20 -20 -20 -20 -20 -20 -20 -20 -17 -17 -17 -20 -20 -5 -20 -20 -20 -20 -20 -20 -20 -20 -20

GFSWCAN_prec_radar_084.txt.gz
Reflectivity
6 -7 -11 -8 10 18 8 -5 5 -3 -10 -12 5 6 23 23 19 27 8 6 -9 11 5 -10 -20 -7 -14 13 -12 20 36 5 -11 5 27 15 16 25 21 11 12 -16 12 11 0 14 12 -20 -20 -7 -7 -20 15 -14
-4 4 5 12 8 -18 -12 -19 -11 -15 15 -20 -13 3 -1 26 31 33 22 -5 8 16 -19 -20 -20 7 -2 15 32 3 31 10 -20 -3 -2 19 -7 19 14 17 23 13 -20 -20 -20 -20 -20 -20 -19 -17 -20 -20 -20 -20
2 5 11 -4 -20 -20 -16 -9 -20 -15 -16 -20 8 14 10 11 19 32 33 6 20 24 -15 -20 -20 -20 -20 -20 22 25 31 32 26 28 23 -9 25 -8 18 -20 25 24 3 -13 10 21 -4 41 10 -20 -20 -20 -20 -20
12 12 10 -14 -10 -3 -5 5 11 -3 -15 -8 -20 -8 13 16 10 19 36 27 25 18 10 -20 -20 -20 -20 -20 -20 19 3 17 17 -12 17 21 20 12 17 11 17 23 22 12 22 21 27 34 34 36 5 -20 -20 -20
16 -5 -6 -20 -20 -18 -1 -10 7 3 -10 -7 17 15 -8 13 19 32 29 20 20 -10 -2 -17 -20 -20 -20 -20 -15 8 11 5 13 22 30 35 5 9 -20 17 23 2 12 9 19 15 38 29 14 10 -19 -20 -20 -20
0 -17 -20 -20 -20 -15 -20 6 14 -16 -13 -11 18 19 16 15 27 38 40 36 8 -20 30 18 21 -20 -20 -20 -20 -8 19 22 10 31 28 8 -19 20 12 21 27 -17 -10 -17 8 12 -19 -20 -20 -20 -20 -20 -20 -20
4 -20 -20 -20 -16 11 8 16 12 13 16 11 15 17 16 23 22 22 24 5 -4 17 35 18 21 -16 -16 -12 7 11 12 19 18 15 16 -7 15 19 -12 27 28 -11 -20 -20 -20 -20 -20 -20 -11 -20 -20 -20 -20 -20
-19 -20 1 6 5 11 -20 -20 11 21 18 16 17 17 21 24 18 28 -13 -16 -20 33 18 13 27 23 10 14 5 13 23 21 30 22 5 -1 17 19 28 -4 -20 6 15 -17 2 -20 -20 -20 -20 -20 -20 -20 -20 -20
-20 -5 -20 -20 -1 -3 -20 -20 20 18 -5 -8 12 32 38 34 35 25 2 11 11 -8 16 16 16 21 13 23 15 29 -7 -2 -4 30 2 21 14 16 7 -15 -20 -15 -17 -19 -18 -20 -20 -20 -20 -20 -20 -20 -20 -20
2 -17 -6 -20 -20 -20 18 -1 18 26 30 29 28 27 36 24 8 13 23 32 3 -1 16 10 24 16 -2 8 16 24 22 4 17 11 16 10 5 -20 -20 -20 -12 -9 -20 -20 -20 -20 -20 -20 -20 -12 -20 -20 -20 -20
-20 6 18 21 12 18 20 26 25 22 15 24 27 28 20 30 18 20 31 13 14 15 15 18 11 0 -20 15 12 18 2 16 14 -5 6 11 0 -2 -20 -20 -20 -20 -20 -20 -20 -20 -20 -20 -14 -5 -20 -20 -20 -15
3 18 15 17 -2 -18 -8 22 28 28 19 -2 23 24 26 26 16 18 16 18 10 12 5 19 6 9 -4 -18 15 -20 -14 0 17 -5 10 4 7 -20 -20 -14 -20 -20 -20 -20 -20 -18 -20 -7 -2 -20 -20 -20 -17 -0
5 12 11 8 -20 -1 18 17 26 22 19 14 -2 7 1 -1 11 17 5 19 7 7 1 -0 -3 -18 -17 22 32 6 9 5 -17 6 -17 3 -15 -20 -8 -9 -20 -20 -16 -20 -20 -20 -20 -20 -20 -19 -3 -2 -18 -17
-1 13 18 9 18 16 -5 -20 -7 4 -3 5 -18 -20 -10 -20 -12 -4 -1 -3 -4 1 -15 2 6 8 5 -20 -0 -20 -6 -10 0 -14 -2 3 4 6 1 -4 -14 -2 0 0 -2 -2 -11 -10 -3 -2 -3 -3 -18 -18
3 14 21 5 19 19 -20 -19 13 14 -4 -20 -20 -8 1 4 4 4 5 -0 -7 2 3 6 -0 4 -5 -15 -14 -7 -18 -17 -20 -0 4 4 -1 -10 -13 3 2 1 2 1 -1 -2 -1 -6 -8 -4 -4 -13 -20 -20
-3 -5 -1 -17 3 9 0 -20 -20 -20 -20 -20 -20 10 9 4 7 -10 6 1 1 -0 -9 7 -8 -4 6 -8 -20 -10 -3 -10 3 7 4 -20 -2 1 -2 1 0 5 3 2 1 -3 -5 -14 -20 -11 -20 -20 -16 -20
18 -6 -20 -19 -19 -20 -20 -20 -20 -20 -20 -2 -1 -18 9 -18 3 -1 1 -3 -10 -10 -11 -12 -20 -20 -19 -13 -20 -6 -2 3 1 2 -1 -2 0 -1 0 3 6 6 4 1 4 0 2 1 0 -12 -20 -2 -7 -6
-1 -20 -20 -20 -20 -20 -20 -20 -20 -20 -4 6 2 5 -20 -3 6 -4 -18 -20 -20 -20 -20 -18 -20 -20 -20 -11 -4 2 1 3 5 4 5 5 -3 6 4 5 7 3 3 5 5 5 -16 -15 -17 -7 -11 -15 -14 -18
12 -20 -20 -20 -20 -20 -20 -20 -20 -15 3 4 7 3 0 4 -2 -4 -19 -20 -20 -20 -20 -20 -20 -2 4 4 4 6 5 -0 4 2 0 -1 2 -20 -8 -5 -0 -6 -5 -0 1 -3 -14 -20 0 3 3 -2 -20 -20
-4 -19 -20 -20 -20 -20 -20 -20 -20 -20 3 -1 1 -20 -13 -2 -7 -5 -20 -20 -20 -20 -20 -9 6 8 4 6 4 -2 -6 -5 -8 -5 4 5 3 -17 -7 1 0 2 -0 1 2 -15 -8 -19 -20 -20 -20 -20 -20 -14
-20 -20 -20 -20 -20 -20 -20 -20 -20 -20 2 -1 -13 -20 -2 -5 -6 -18 -20 -20 -20 -6 1 4 -2 -7 -16 4 -17 -20 -11 -7 -5 -6 -5 1 7 5 5 5 4 6 6 7 1 -7 -20 -20 -20 -14 -2 -8 -20 -20
-20 -20 -20 -20 -20 -20 -20 -20 -20 -20 3 -10 -20 -16 8 6 -1 -20 -20 -20 -2 10 4 0 -1 0 -3 -9 -5 -15 -4 -19 -20 -16 -15 -7 7 1 0 6 2 -1 -7 -20 -20 -17 -20 -20 -11 -12 -1 5 -10 -11
-20 -20 -20 -20 -20 -20 -19 -4 -7 -4 1 -20 -20 -12 -2 -6 -20 -20 -20 -16 6 5 -0 -11 -20 -20 -2 -3 -10 -4 -11 -3 -2 -2 -2 -14 -13 -19 -20 -20 -14 -3 -12 -20 -20 -20 -20 -20 -20 -11 -20 -3 -20 -20
-20 -20 -20 -20 -20 -8 -5 -4 -20 -20 -20 -20 -20 -20 -19 -20 -20 -20 -5 1 2 -2 -4 -10 -19 -20 -20 -20 -20 -20 -20 -20 -20 -20 -20 -20 -20 -20 -20 -20 -20 -20 -20 -20 -19 -7 -17 -20 -20 -11 -20 -3 -17 -3
-20 -20 -20 -20 -19 -20 -20 -19 -20 -20 -20 -20 -20 -20 -20 -20 -20 -20 -6 -0 1 1 0 -4 -5 -1 -8 -20 -20 -20 -20 -20 -20 -20 -20 -20 -20 -19 -20 -20 -20 -20 -20 2 -1 -1 -3 -7 -2 -1 -3 -19 -20 -20
-20 -20 -16 -20 -9 -20 -20 -20 -20 -20 -20 -20 -20 -20 -20 -20 -20 -15 -19 1 6 3 -6 4 -3 -20 -20 -20 -20 -20 -20 -20 -20 -20 -20 -20 -20 -20 -15 -10 -3 -12 -20 -20 -3 1 -20 -6 -10 -20 -20 -20 -20 -20
-20 -20 -20 -20 -20 -20 -20 -20 -20 -20 -20 -20 -20 -20 -20 -20 -20 -3 10 -13 -15 -15 -20 -16 -20 -20 -20 -20 -20 -20 -20 -20 -20 -20 -20 -20 -20 -20 -20 -11 -14 -17 -20 -20 -20 -18 -6 -20 -13 -20 -12 -9 -4 -20
-20 -20 -20 -20 -20 -20 -20 -20 -20 -20 -20 -20 -20 -20 -20 -20 -11 4 1 -8 -20 -20 -20 -20 -20 -20 -20 -20 -20 -20 -20 -20 -20 -20 -20 -20 -20 -20 -20 -20 -20 -20 -20 -20 -20 -20 -20 -8 -5 -7 -16 -19 -20 -20
-13 -20 -20 -20 -20 -20 -20 -20 -18 -20 -20 -20 -20 -20 -20 -5 1 4 -4 -19 -19 -18 -20 -20 -20 -20 -20 -20 -20 -20 -16 -20 -11 -20 -20 -5 -9 -10 -20 -10 -3 -9 1 -17 -20 -20 -20 -20 -20 -20 -20 -20 -20 -19
-20 -20 -20 -20 -20 -16 2 1 -2 -4 -20 -20 -20 2 -2 6 4 1 3 2 -1 -1 -3 -17 -20 -20 -20 -20 -20 -20 -20 -20 -20 -20 -5 -8 -6 -20 -20 -4 -1 -13 -8 -2 -6 -6 -17 -20 -20 -20 -20 -12 -13 -3
-20 -20 -20 -20 -5 2 2 3 8 7 -4 -8 -9 -20 -10 -3 -15 -10 3 -7 -8 -0 -1 -0 -8 -20 -20 -20 -20 -20 -13 -20 -20 -20 -20 -20 -20 -7 -18 -20 -9 -15 -3 -4 -13 -5 -18 -20 -14 -3 -5 -15 -15 -20
-20 -20 -20 -20 -12 6 9 8 4 2 1 1 1 -1 -2 -2 -5 -0 -7 6 3 3 -19 -5 -10 -19 -20 -20 -20 -20 -20 -20 -20 -20 -20 -20 -19 -20 -14 -11 -20 -2 -13 -20 -8 -19 -20 -20 -20 -20 -20 -20 -20 -20
-2 -20 -20 -20 -6 -3 -14 -6 -18 4 -1 -2 -8 -3 -9 -20 -6 -3 -20 -20 1 -2 -0 -20 -20 -20 -20 -20 -20 -20 -20 -20 -20 -20 -20 -20 -20 -20 -10 -7 -4 -17 -20 -12 -10 -6 -20 -20 -20 -20 -20 -20 -20 -20

GFSWCAN_prec_radar_087.txt.gz
Reflectivity
12 6 -12 5 4 1 9 10 3 4 -1 13 2 11 1 16 13 15 20 2 -12 4 -15 -20 -20 -20 1 12 -7 16 -10 15 15 -20 -20 -20 -20 -20 -7 11 25 -19 5 6 6 13 3 -20 -20 -9 -10 -20 -20 -20
8 -20 -19 4 8 3 8 7 6 11 12 9 15 -17 8 17 17 24 19 -6 -10 7 -8 -20 -20 -20 -20 11 12 14 28 -4 34 -20 -20 -20 -20 20 -17 16 30 23 -20 -20 -20 -20 10 -15 -20 20 4 -20 -17 -20
-2 -16 5 19 15 12 7 -8 4 8 10 -20 13 11 21 -12 18 30 28 9 27 20 -15 -20 -19 -20 -20 -20 -5 10 30 8 30 23 14 15 9 20 17 16 20 37 25 3 19 -15 -18 11 8 16 16 27 -18 -20
-6 -5 20 19 14 23 3 -2 8 9 0 -2 -12 13 18 20 10 22 34 34 21 13 -5 -7 -19 -20 -20 -20 -20 -20 -14 13 7 31 36 -4 11 23 22 19 -9 20 33 17 17 12 15 23 40 35 2 -16 -20 -20
-15 14 20 21 11 9 3 0 7 0 -4 -9 3 10 16 17 22 18 20 18 5 13 -2 2 -20 -20 -20 -20 -20 -20 2 -14 -20 -16 -0 -20 -9 5 19 16 30 -15 15 40 29 40 31 21 34 27 21 15 -9 -20
9 13 9 15 -18 -20 1 4 -2 -10 -6 -19 3 -16 17 17 22 32 35 24 -1 27 22 -20 -20 20 -20 -20 -20 -20 -20 -19 -20 -3 -8 13 13 37 12 -15 9 -0 0 25 32 30 13 20 17 12 -7 -20 -20 -20
15 13 6 -20 -19 -17 -3 15 -20 1 12 19 1 14 20 19 13 26 16 -4 18 32 31 -13 -20 -10 5 -20 -20 -20 3 11 -19 -0 6 -5 -7 18 28 15 24 32 5 14 0 8 -11 -20 -20 -12 -8 -15 -20 -20
13 10 9 3 8 -3 6 -20 -8 12 21 19 10 20 22 13 -7 18 18 5 21 34 13 -10 -3 28 7 -4 -7 13 19 -5 -4 22 9 -20 10 -10 -12 -14 -14 11 12 15 20 -20 -20 -20 -20 -20 -20 -20 -20 -20
17 7 6 13 11 10 -20 9 7 14 21 30 29 28 30 24 27 33 20 9 2 -14 -18 -18 -19 21 23 19 3 3 -14 5 23 20 -18 16 11 17 9 -17 -20 -19 -20 -20 -19 -20 -20 -20 -20 -20 -20 -20 -20 -20
8 -0 7 3 13 14 5 -20 10 8 26 24 27 24 28 33 26 30 36 34 30 -7 9 -0 -20 28 23 -8 11 -13 20 -18 -2 -20 2 7 -20 -17 -11 -20 -20 -20 -20 -20 -20 -20 -20 -20 4 -18 -20 -20 -20 -20
22 6 -19 12 16 13 20 22 10 19 14 4 34 28 28 31 25 17 -3 -20 -17 -17 -18 -16 20 7 26 24 23 -15 -7 19 -7 0 -6 8 -2 5 -19 -20 -20 -20 -20 -20 -20 -20 -20 -5 -13 -20 -20 -20 -20 -20
18 13 13 22 29 17 20 17 8 19 30 16 23 33 26 17 -13 9 -9 1 -20 -14 -9 -2 34 28 -14 -18 22 11 -11 2 9 19 8 -12 3 -6 -19 -20 -20 -20 -20 -20 -20 -20 -20 -20 -11 -20 -8 -5 -10 -13
14 -7 -15 19 25 24 7 22 20 17 25 20 -0 5 10 13 1 14 -20 -9 -20 -18 -20 -8 -15 15 -11 -20 -15 -1 -20 -20 -20 -11 -19 -18 -4 -20 -20 -20 -20 -20 -20 -20 -20 -20 -20 -20 -20 -20 -20 -20 -20 -20
4 -16 4 11 24 -15 -20 8 -10 -20 -9 -20 -20 -20 -20 -20 -20 -18 -12 -14 -20 -16 -18 -20 -19 -9 -10 -9 8 -20 -19 -7 19 -15 -20 -19 -20 -20 -20 -20 -20 -20 -20 -20 -20 -20 -20 -20 -20 -20 -20 -20 -20 -20
9 16 12 11 5 -18 -20 -7 -0 8 -8 -20 -20 -9 -20 -12 -6 -9 -19 -20 -17 13 5 -11 -20 -13 -20 -20 -20 -20 -18 -20 -20 -20 -20 -20 -20 -20 -20 -9 -20 -20 -20 -20 -20 -20 -20 -20 -20 -20 -20 -20 -20 -20
-2 -12 -8 -2 -4 -18 -17 12 8 -20 -20 -20 -20 0 -1 -20 -19 -20 -18 -19 -12 -0 -17 -20 -20 -20 -20 -20 -20 -20 -20 -20 -20 -20 -20 -20 -20 -20 -20 -20 -20 -20 -20 -20 -20 -20 -20 -20 -20 -20 -20 -20 -20 -20
1 -16 -20 -20 -20 -20 -12 -3 -20 -20 -20 -20 -20 -20 -20 -20 -16 -17 -19 -19 -19 -20 -20 -20 -20 -20 -20 -20 -20 -20 -20 -20 -20 -20 -20 -20 -20 -20 -20 -19 -6 -20 -20 -20 -20 -20 -20 -20 -20 -20 -20 -20 -20 -20
-20 -20 -20 -20 -20 -20 -20 -20 -20 -20 -20 -20 -20 -16 -20 -20 -20 -20 -20 -20 -20 -20 -20 -20 -20 -20 -20 -20 -20 -20 -20 -20 -20 -20 -20 -20 -20 -20 -20 -20 -20 -20 -20 -20 -20 -20 -20 -20 -20 -20 -20 -20 -20 -20
-20 -1 -17 -20 -20 -20 -20 -20 -20 -12 -13 -20 1 -20 -20 -14 -20 -20 -20 -20 -20 -20 -20 -20 -20 -20 -20 -20 -20 -20 -20 -20 -20 -20 -20 -20 -20 -20 -20 -20 -20 -20 -15 -20 -20 -20 -16 -17 -10 -8 -6 -13 -20 -20
-20 -20 -20 -20 -20 -20 -20 -20 -20 -20 -20 -14 -18 -20 -20 -16 -17 -20 -20 -20 -20 -20 -20 -20 -19 -14 -17 -13 -20 -20 -20 -20 -20 -20 -20 -20 -20 -20 -6 -6 -20 -20 -20 -20 -20 -20 -20 -20 -20 -19 -19 -19 -20 -20
-20 -20 -20 -20 -20 -20 -20 -20 -11 -20 -20 -20 -20 -20 -10 -20 -20 -20 -20 -20 -20 -1 -16 -19 -20 -18 -20 -20 -20 -20 -8 -17 -16 -20 -20 1 0 -20 -11 -20 -20 2 -15 -19 -20 -20 -20 -20 -20 -20 -20 -20 -20 -20
-20 -20 -20 -20 -20 -20 -20 -18 -14 -20 -20 -20 -20 -8 -14 -20 -20 -20 -20 -20 -16 6 -20 -20 -20 -20 -20 -20 -20 -20 -20 -20 -20 -20 -20 -15 -19 -20 -20 -16 -20 -20 -20 -20 -20 -20 -20 -20 -20 -20 -20 -20 -20 -20
-20 -20 -20 -20 -20 -20 -10 -20 -20 -20 -20 -20 -20 -20 -13 -20 -20 -20 -20 -17 -9 -17 -20 -20 -20 -20 -20 -20 -20 -18 -20 -20 -20 -20 -20 -20 -20 -20 -20 -20 -20 -20 -20 -20 -20 -20 -20 -20 -20 -20 -20 -20 -20 -20
-20 -20 -20 -20 -20 -11 -20 -20 -20 -20 -20 -17 -20 -20 -20 -20 -20 -20 -14 -16 -20 -20 -20 -20 -20 -20 -20 -20 -20 -20 -20 -20 -20 -20 -20 -20 -20 -20 -20 -20 -20 -20 -20 -20 -20 -20 -20 -20 -20 -20 -20 -20 -20 -20
-20 -20 -20 -20 -20 -20 -20 -20 -20 -20 -20 -20 -20 -20 -20 -20 -20 -20 -20 -12 -7 -20 -20 -20 -20 -20 -20 -20 -20 -20 -20 -20 -20 -20 -20 -20 -20 -20 -20 -20 -20 -20 -20 -20 -20 -20 -20 -20 -20 -20 -20 -20 -20 -20
-20 -20 -20 -20 -20 -20 -20 -20 -20 -20 -20 -20 -20 -20 -20 -20 -20 -20 -20 -20 -20 -20 -20 -20 -19 -20 -20 -20 -20 -20 -20 -20 -20 -20 -20 -20 -20 -20 -20 -20 -20 -20 -20 -20 -20 -20 -20 -20 -20 -20 -20 -20 -20 -20
-20 -20 -20 -20 -20 -20 -20 -20 -20 -20 -20 -20 -20 -20 -20 -20 -20 -7 -7 -20 -20 -20 -15 -20 -20 -20 -20 -20 -20 -20 -20 -20 -20 -20 -20 -20 -20 -20 -20 -20 -20 -20 -20 -20 -20 -20 -20 -20 -20 -20 -20 -20 -20 -20
-19 -20 -20 -20 -20 -20 -20 -20 -20 -20 -20 -20 -20 -20 -20 -20 -11 -17 -12 -14 -20 -20 -20 -20 -20 -20 -20 -20 -20 -20 -20 -20 -20 -20 -20 -20 -20 -20 -20 -20 -20 -20 -20 -20 -20 -20 -20 -20 -20 -20 -20 -20 -20 -20
-20 -20 -20 -20 -20 -20 -20 -20 -20 -20 -20 -20 -20 -20 -20 -17 -16 -7 -20 -20 -20 -20 -20 -20 -20 -20 -20 -20 -20 -20 -20 -20 -20 -20 -20 -20 -20 -20 -20 -20 -20 -20 -20 -20 -20 -20 -20 -20 -20 -20 -20 -20 -20 -20
-20 -20 -20 -20 -20 -20 -12 -14 -20 -20 -20 -20 -9 -18 -20 -9 -5 -20 -20 -20 -20 -20 -20 -20 -20 -20 -20 -20 -20 -20 -20 -20 -20 -20 -20 -20 -20 -20 -20 -20 -20 -20 -20 -20 -20 -20 -20 -20 -20 -20 -20 -20 -20 -20
-20 -20 -20 -20 -20 -17 -3 -20 -20 -20 -20 -20 -20 -20 -20 -15 -18 0 -1 -20 -20 -20 -20 -16 -20 -20 -20 -20 -20 -20 -20 -20 -20 -20 -20 -20 -20 -20 -20 -20 -20 -20 -20 -20 -20 -20 -20 -20 -20 -20 -20 -20 -20 -20
-20 -20 -20 -20 -20 -19 -7 -19 -20 -20 -20 -20 -20 -20 -20 -20 -20 -20 -20 -20 -20 -20 -20 -20 -20 -20 -20 -20 -20 -20 -20 -20 -20 -20 -20 -20 -20 -20 -20 -20 -20 -20 -20 -20 -20 -20 -20 -20 -20 -20 -20 -20 -20 -20
-20 -20 -20 -20 -20 -20 -20 -18 -18 -5 -20 -6 -7 -1 -20 -20 -20 -20 -20 -20 -19 -20 -20 -20 -20 -20 -20 -20 -20 -20 -20 -20 -20 -20 -20 -20 -20 -20 -20 -20 -20 -20 -20 -20 -20 -20 -20 -20 -20 -20 -20 -20 -20 -20

GFSWCAN_prec_radar_093.txt.gz
Reflectivity
11 14 12 13 6 8 9 -6 -20 -1 9 1 -20 -3 16 20 17 14 14 -20 9 -20 -20 -20 -20 -20 -20 -20 -20 -20 -20 -20 -20 -20 -20 -20 -20 -20 -20 -20 -20 -20 -20 -20 -20 -1 -15 -20 -20 -20 -14 -18 -7 1
11 13 11 14 12 10 4 -20 -17 5 -20 6 -17 -2 19 22 21 21 18 -3 1 12 -20 -20 -20 -20 -20 -20 -20 -19 -18 -5 11 16 -10 -20 -20 -20 -20 -20 -20 -18 -11 0 -20 -20 -19 -20 -20 -20 -20 -16 -17 4
-5 -3 14 15 -6 11 12 1 -4 13 13 -5 0 16 15 22 28 23 14 10 27 28 -20 -20 -20 -20 -20 -20 -20 -20 -20 -12 30 20 35 18 -19 -20 -20 -20 -17 -15 18 36 9 15 9 0 -5 -17 -6 -16 18 -3
13 13 -0 10 10 9 5 -11 16 5 -6 17 17 10 6 10 18 25 31 11 1 10 -20 -16 -20 -20 -20 -20 -20 -20 -20 -8 25 21 24 -6 -20 -20 -12 2 -20 -3 9 27 40 24 27 25 17 14 20 24 -11 15
-13 10 3 -18 3 -4 -20 6 15 12 18 13 11 11 12 16 10 21 24 19 -4 -9 -20 -20 -20 -20 -20 -20 -20 -20 -20 -20 -20 -3 7 -20 -20 -11 -14 5 2 6 16 12 23 28 32 32 31 28 17 30 4 -20
6 9 10 -20 0 -10 -20 4 -11 -1 4 -20 -20 15 -19 -8 14 21 36 19 7 23 29 -4 -19 -20 -20 -20 -20 -20 -20 -20 2 -20 -20 -20 -20 7 -8 -15 21 12 18 10 19 32 34 36 21 28 18 3 7 -2
-0 13 -20 -20 -8 3 6 6 -8 -1 3 -17 -20 -6 -14 3 20 20 20 23 19 17 31 13 -4 -20 -20 -20 -20 -20 -20 -20 21 11 4 -18 -14 20 5 2 18 12 6 9 25 35 18 2 9 3 -19 -6 -20 -6
11 -20 -20 -10 8 9 12 13 10 7 -5 2 3 8 22 28 31 14 -14 -1 12 9 27 -9 -20 -20 -20 -20 -4 -20 -20 -4 17 -8 -3 10 0 18 -2 1 -20 -20 -17 1 18 -5 -20 -20 -20 -20 -20 -20 -13 -20
-20 -20 -18 1 9 14 15 15 13 2 -2 12 18 27 38 38 38 21 19 26 8 -14 -19 -20 -20 -20 -20 -20 -20 -10 -20 -18 -20 10 -16 15 -6 -20 -20 -20 -20 -20 -20 -20 -20 -20 -20 -20 -20 -20 -20 -20 -20 -20
-20 -19 -8 21 22 18 6 8 12 -20 18 20 30 37 31 32 26 27 42 32 31 34 18 -20 -20 -20 -20 -20 -19 -18 11 -9 10 10 -9 3 -20 -19 -20 -20 -20 -20 -20 -20 -20 -20 -20 -20 -20 -20 -20 -20 -20 -20
-19 -6 19 20 15 16 15 10 -3 10 -4 36 39 36 27 23 22 38 20 -19 18 18 -11 -20 -20 -20 -20 -17 -20 -20 -6 -11 -20 -18 8 -20 -20 -20 -20 -20 -20 -20 -20 -20 -20 -16 -20 -20 -20 -20 -20 -20 -20 -20
20 26 22 21 14 18 12 5 11 13 24 33 30 29 16 28 31 14 -3 -19 -20 -20 -20 -14 -11 -20 8 34 7 -19 -6 18 -12 13 0 -20 -4 -20 -20 -20 -20 -20 -20 -20 -20 -13 -20 -20 -20 -20 -20 -20 -20 -20
31 22 24 12 12 4 23 4 -20 -20 -20 -1 -9 12 13 25 13 -19 -20 -20 -20 -12 5 -3 -20 6 27 36 21 -8 -20 8 -17 -17 -16 -20 -20 -20 -20 -20 -20 -20 -20 -20 -20 -20 -20 -20 -20 -20 -11 -19 -20 -20
28 24 -3 10 11 13 14 10 9 -20 22 -10 4 18 12 -20 -20 -20 -20 -20 -20 -20 -20 -20 -20 -12 -19 -20 -19 -20 -20 -20 -20 -20 -20 -20 -20 -20 -20 -20 -20 -20 -20 -20 -20 -20 -20 -20 -20 -20 -20 -20 -20 -20
2 -19 -3 19 28 23 14 5 -8 -20 -20 -20 -20 -20 -20 -20 -20 -17 -20 -20 -20 -11 -20 -20 -20 -20 -20 -20 -20 -20 -20 -20 -20 -20 -20 -20 -20 -20 -20 -20 -20 -20 -20 -20 -20 -20 -20 -20 -20 -20 -20 -20 -20 -20
-13 14 20 7 -0 15 16 -3 -20 -20 -20 -20 -20 -20 -20 -20 -18 -18 -19 -12 -17 -20 -20 -20 -20 -20 -20 -20 -20 -20 -20 -20 -20 -20 -20 -20 -20 -20 -20 -20 -20 -20 -20 -20 -20 -20 -20 -20 -20 -20 -20 -20 -20 -20
14 27 30 6 15 11 -19 -5 -20 -20 -20 -20 -20 -20 -20 -20 -19 -13 -1 -13 -18 -20 -20 -20 -20 -20 -20 -20 -20 -20 -20 -20 -20 -20 -20 -20 -20 -20 -20 -20 -20 -20 -20 -20 -20 -20 -20 -20 -20 -20 -20 -20 -20 -20
29 30 13 -13 -10 -5 -14 -20 -20 -20 -20 -20 -20 -20 -20 -20 -19 -20 -20 -20 -20 -20 -20 -20 -20 -20 -20 -20 -20 -20 -20 -20 -20 -20 -20 -20 -20 -20 -20 -20 -20 -20 -20 -20 -20 -20 -20 -20 -20 -20 -20 -20 -20 -20
24 24 14 10 28 -4 -20 -20 -20 -20 -20 -20 -20 -20 -20 -20 -20 -20 -20 -20 -20 -20 -20 -20 -20 -20 -20 -20 -20 -20 -20 -20 -20 -20 -20 -20 -20 -20 -20 -20 -20 -20 -20 -20 -20 -20 -20 -20 -20 -20 -20 -20 -20 -20
14 8 9 -12 -18 -20 -20 -20 -20 -20 -20 -20 -20 -20 -20 -20 -20 -20 -20 -20 -20 -20 -20 -20 -20 -20 -20 -20 -20 -20 -20 -20 -20 -20 -20 -20 -20 -20 -20 -20 -20 -20 -20 -20 -20 -20 -20 -20 -20 -20 -20 -20 -20 -20
-20 -20 -20 -20 -20 -20 -20 -20 -20 -20 -20 -20 -20 -20 -20 -20 -20 -20 -20 -20 -20 -20 -20 -20 -20 -20 -20 -20 -20 -20 -20 -20 -20 -20 -20 -20 -20 -20 -20 -20 -20 -20 -20 -20 -20 -20 -20 -20 -20 -20 -20 -20 -20 -20
-20 -20 -20 -20 -20 -20 -20 -20 -20 -20 -20 -20 -20 -20 -20 -20 -20 -20 -20 -20 -20 -20 -20 -20 -20 -20 -20 -20 -20 -20 -20 -20 -20 -20 -20 -20 -20 -20 -20 -20 -20 -20 -20 -20 -20 -20 -20 -20 -20 -20 -20 -20 -20 -20
-20 -20 -20 -20 -20 -20 -20 -20 -20 -20 -20 -20 -20 -20 -20 -20 -20 -20 -20 -20 -20 -20 -20 -20 -20 -20 -20 -20 -20 -20 -20 -20 -20 -20 -20 -20 -20 -20 -20 -20 -20 -20 -20 -20 -20 -20 -20 -20 -20 -20 -20 -20 -20 -20
-20 -20 -20 -20 -20 -20 -20 -20 -20 -20 -20 -20 -20 -20 -20 -20 -20 -20 -20 -20 -20 -20 -20 -20 -20 -20 -20 -20 -20 -20 -20 -20 -20 -20 -20 -20 -20 -20 -20 -20 -20 -20 -20 -20 -20 -20 -20 -20 -20 -20 -20 -20 -20 -20
-20 -20 -20 -20 -20 -20 -20 -20 -20 -20 -20 -20 -20 -20 -20 -20 -20 -20 -20 -20 -20 -20 -20 -20 -20 -20 -20 -20 -20 -20 -20 -20 -20 -20 -20 -20 -20 -20 -20 -20 -20 -20 -20 -20 -20 -20 -20 -20 -20 -20 -20 -20 -20 -20
-20 -20 -20 -20 -20 -20 -20 -20 -20 -20 -20 -20 -20 -20 -20 -20 -20 -20 -20 -20 -20 -20 -20 -20 -20 -20 -20 -20 -20 -20 -20 -20 -20 -20 -20 -20 -20 -20 -20 -20 -20 -20 -20 -20 -20 -20 -20 -20 -20 -20 -20 -20 -20 -20
-20 -20 -20 -20 -20 -20 -20 -20 -20 -20 -20 -20 -20 -20 -20 -20 -20 -20 -20 -20 -20 -20 -20 -20 -20 -20 -20 -20 -20 -20 -20 -20 -20 -20 -20 -20 -20 -20 -20 -20 -20 -20 -20 -20 -20 -20 -20 -20 -20 -20 -20 -20 -20 -20
-20 -20 -20 -20 -20 -20 -20 -20 -20 -20 -20 -20 -20 -20 -20 -20 -20 -19 -20 -20 -20 -20 -20 -20 -20 -20 -20 -20 -20 -20 -20 -20 -20 -20 -20 -20 -20 -20 -20 -20 -20 -20 -20 -20 -20 -20 -20 -20 -20 -20 -20 -20 -20 -20
-20 -20 -20 -20 -20 -20 -20 -20 -20 -20 -20 -20 -20 -20 -20 -20 -20 -20 -20 -20 -20 -20 -20 -20 -20 -20 -20 -20 -20 -20 -20 -20 -20 -20 -20 -20 -20 -20 -20 -20 -20 -20 -20 -20 -20 -20 -20 -20 -20 -20 -20 -20 -20 -20
-20 -20 -20 -20 -20 -20 -20 -20 -20 -20 -20 -20 -20 -20 -20 -20 4 -11 -20 -20 -20 -20 -20 -20 -20 -20 -20 -20 -20 -20 -20 -20 -20 -20 -20 -20 -20 -20 -20 -20 -20 -20 -20 -20 -20 -20 -20 -20 -20 -20 -20 -20 -20 -20
-20 -20 -20 -20 -20 -20 -20 -20 -20 -20 -20 -20 -20 -20 -20 -17 -5 6 -16 -20 -20 -20 -20 -20 -20 -20 -20 -20 -20 -20 -20 -20 -20 -20 -20 -20 -20 -20 -20 -20 -20 -20 -20 -20 -20 -20 -20 -20 -20 -20 -20 -20 -20 -20
-20 -20 -20 -20 -20 -20 -20 -20 -20 -20 -20 -20 -20 -20 -20 -20 -20 -20 -20 -20 -20 -20 -20 -20 -20 -20 -20 -20 -20 -20 -20 -20 -20 -20 -20 -20 -20 -20 -20 -20 -20 -20 -20 -20 -20 -20 -20 -20 -20 -20 -20 -20 -20 -20
-20 -20 -20 -20 -20 -20 -20 -20 -20 -20 -20 -20 -20 -20 -20 -20 -20 -20 -20 -20 -20 -20 -20 -20 -20 -20 -20 -20 -20 -20 -20 -20 -20 -20 -20 -20 -20 -20 -20 -20 -20 -20 -20 -20 -20 -20 -20 -20 -20 -20 -20 -20 -20 -20

GFSWCAN_prec_radar_096.txt.gz
Reflectivity
16 -19 8 6 5 7 12 14 10 9 -20 -20 -5 14 -20 16 20 5 9 4 -7 -20 -20 -20 -20 -20 -20 -20 -20 -20 -20 -20 -20 -20 -20 -20 -20 -20 -20 -20 -20 -20 -20 -20 -20 -11 -20 -20 -20 -20 -20 -20 -20 -20
14 -9 -6 12 15 11 12 10 9 10 -20 2 9 9 -7 5 21 19 15 9 21 17 -20 -20 -20 -20 -20 -20 -20 -20 -20 15 23 1 -20 -16 -20 -20 -20 -20 -20 -3 3 17 -20 -20 -11 9 -2 -19 12 8 -20 -9
-20 6 -20 12 7 10 15 -4 9 9 -3 -6 11 14 -17 11 20 21 12 6 26 29 -17 -20 -20 -20 -20 -20 -20 -20 -20 -20 -20 9 7 29 -19 -19 -20 -20 -17 -19 -18 2 -9 35 21 24 -6 -1 6 20 15 13
12 -8 -20 11 -6 -12 11 4 11 -2 0 14 16 -2 -3 15 16 23 29 7 -8 22 -20 -20 -20 -20 -20 -20 -20 -20 -20 -20 -19 -11 -8 -12 -20 -20 -17 -6 -7 -18 -5 3 22 27 28 10 25 28 25 12 -7 -8
4 10 9 14 14 9 -6 10 -10 -8 18 15 -1 18 15 13 15 19 20 18 -15 -3 -20 -20 -20 -20 -20 -20 -20 -20 -20 -20 -15 14 -13 -20 -20 -20 -20 -18 -20 2 4 -8 -0 18 22 20 29 16 14 13 2 20
14 -20 -16 11 15 15 -20 -20 -3 5 13 13 -3 15 16 13 21 21 34 25 10 6 29 -20 -20 -20 -20 -20 -20 -20 -20 -20 5 9 -8 -13 -20 10 -17 -20 7 -8 9 -5 -16 31 25 28 35 29 16 16 7 -19
-20 4 -15 4 -3 14 -19 -16 -20 -1 15 12 19 19 12 26 21 16 -20 -19 20 15 32 -5 -20 -20 -20 -20 -20 -20 -20 -20 -20 -9 -8 -20 -14 17 14 -20 9 6 15 -11 -2 25 23 13 6 2 0 -7 -20 -20
12 -15 -20 9 15 -15 -20 0 4 9 -7 6 -5 16 15 22 30 20 -8 -19 31 21 24 -14 -20 -20 -20 -20 -20 -20 -20 -20 -20 24 -15 -20 -20 -20 -20 1 4 -11 -13 -19 -19 -13 1 -18 -20 -20 -20 -20 -20 -20
-7 -20 1 12 -20 -20 -2 5 -0 14 16 18 20 22 27 32 33 24 7 5 5 34 6 -19 -20 -20 -20 -20 -20 -20 -20 -20 -20 -20 -20 -16 -20 -20 -20 -20 -20 -20 -20 -20 -20 -20 -20 -20 -20 -20 -20 -20 -20 -20
-10 -1 9 -20 -20 4 9 23 26 23 20 24 34 39 30 31 20 20 37 31 32 33 23 -20 -20 -20 -20 -20 -20 -20 -20 -20 -19 -19 -20 -20 -20 -20 -20 -20 -20 -20 -20 -20 -20 -20 -20 -20 -20 -20 -20 -20 -20 -20
-19 -7 -18 -16 3 18 26 21 15 1 24 30 33 37 13 29 9 33 19 20 17 2 -15 -20 -20 -20 -20 -20 -20 -20 -20 -20 -6 -19 6 -19 -20 -20 -20 -20 -20 -20 -20 -20 -20 -20 -20 -20 -20 -20 -20 -20 -20 -20
-2 -11 -2 1 24 18 37 13 -13 17 28 26 21 27 41 28 30 26 16 -3 -19 -20 -20 -15 -18 -20 -20 -20 1 -20 -20 -3 -16 1 -18 -20 -20 -20 -20 -20 -20 -20 -20 -20 -20 -20 -20 -20 -20 -20 -20 -20 -20 -20
-14 -0 6 17 30 36 8 12 25 -7 20 26 22 14 32 9 16 7 -18 -20 -20 -20 -20 11 7 -20 -20 9 24 -20 4 -8 6 -6 -20 -20 -20 -20 -20 -20 -20 -20 -20 -20 -20 -20 -20 -20 -20 -20 -20 -20 -20 -20
27 22 32 29 19 8 12 36 22 28 4 20 10 11 17 5 7 -20 -20 -20 -20 -20 -4 -20 -20 -16 20 21 14 -20 -20 -20 -20 -20 -20 -20 -20 -20 -20 -20 -20 -20 -20 -20 -20 -20 -20 -20 -20 -20 -20 -20 -20 -20
34 27 23 20 28 21 21 20 6 16 -16 -19 5 -6 -12 -20 -20 -19 -20 -20 -20 -20 -20 -20 -20 -4 -9 2 -20 -20 -20 -20 -20 -20 -20 -20 -20 -20 -20 -20 -20 -20 -20 -20 -20 -20 -20 -20 -20 -20 -20 -20 -20 -20
32 33 32 19 15 20 26 23 -18 -15 -20 -20 -20 -20 -20 -20 -19 -20 -20 -14 -20 -20 -17 -15 -7 -20 -20 -20 -20 -20 -20 -20 -20 -20 -20 -20 -20 -20 -20 -20 -20 -20 -20 -20 -20 -20 -20 -20 -20 -20 -20 -20 -20 -20
22 27 32 27 1 14 -20 -20 -20 -20 -20 -20 -20 -19 -19 -20 -20 -18 -19 -19 -20 -20 -20 -20 -20 -20 -20 -20 -20 -20 -20 -20 -20 -20 -20 -20 -20 -20 -20 -20 -20 -20 -20 -20 -20 -20 -20 -20 -20 -20 -20 -20 -20 -20
-2 -9 31 -15 -19 -20 -20 -20 -20 -20 -20 -20 -20 -20 -20 -20 -19 -17 -18 -20 -20 -20 -20 -20 -20 -20 -20 -20 -20 -20 -20 -20 -20 -20 -20 -20 -20 -20 -20 -20 -20 -20 -20 -20 -20 -20 -20 -20 -20 -20 -20 -20 -20 -20
-20 -4 24 3 -13 -17 -20 -20 -20 -20 -20 -20 -20 -20 -20 -20 -20 -20 -20 -20 -20 -20 -20 -20 -20 -20 -20 -20 -20 -20 -20 -20 -20 -20 -20 -20 -20 -20 -20 -20 -20 -20 -20 -20 -20 -20 -20 -20 -20 -20 -20 -20 -20 -20
5 -20 -19 -4 10 -18 -20 -20 -20 -20 -20 -20 -20 -20 -20 -20 -20 -20 -20 -20 -20 -20 -20 -20 -20 -20 -20 -20 -20 -20 -20 -20 -20 -20 -20 -20 -20 -20 -20 -20 -20 -20 -20 -20 -20 -20 -20 -20 -20 -20 -20 -20 -20 -20
26 19 26 21 -18 -20 -20 -20 -20 -20 -20 -20 -20 -20 -20 -20 -20 -20 -20 -20 -20 -20 -20 -20 -20 -20 -20 -20 -20 -20 -20 -20 -20 -20 -20 -20 -20 -20 -20 -20 -20 -20 -20 -20 -20 -20 -20 -20 -20 -20 -20 -20 -20 -20
5 -9 -20 -20 -20 -20 -20 -20 -20 -20 -20 -20 -20 -20 -20 -20 -20 -20 -20 -20 -20 -20 -20 -20 -20 -20 -20 -20 -20 -20 -20 -20 -20 -20 -20 -20 -20 -20 -20 -20 -20 -20 -20 -20 -20 -20 -20 -20 -20 -20 -20 -20 -20 -20
-20 -20 -20 -20 -20 -20 -20 -20 -20 -20 -20 -20 -20 -20 -20 -20 -20 -20 -20 -20 -20 -20 -20 -20 -20 -20 -20 -20 -20 -20 -20 -20 -20 -20 -20 -20 -20 -20 -20 -20 -20 -20 -20 -20 -20 -20 -20 -20 -20 -20 -20 -20 -20 -20
-20 -20 -20 -20 -20 -20 -20 -20 -20 -20 -20 -20 -20 -20 -20 -20 -20 -20 -20 -20 -20 -20 -20 -20 -20 -20 -20 -20 -20 -20 -20 -20 -20 -20 -20 -20 -20 -20 -20 -20 -20 -20 -20 -20 -20 -20 -20 -20 -20 -20 -20 -20 -20 -20
-20 -20 -20 -20 -20 -20 -20 -20 -20 -20 -20 -20 -20 -20 -20 -20 -20 -20 -20 -20 -20 -20 -20 -20 -20 -20 -20 -20 -20 -20 -20 -20 -20 -20 -20 -20 -20 -20 -20 -20 -20 -20 -20 -20 -20 -20 -20 -20 -20 -20 -20 -20 -20 -20
-20 -20 -20 -20 -20 -20 -20 -20 -20 -20 -20 -20 -20 -20 -20 -20 -20 -20 -20 -20 -20 -20 -20 -20 -20 -20 -20 -20 -20 -20 -20 -20 -20 -20 -20 -20 -20 -20 -20 -20 -20 -20 -20 -20 -20 -20 -20 -20 -20 -20 -20 -20 -20 -20
-20 -20 -20 -20 -20 -20 -20 -20 -20 -20 -20 -20 -20 -20 -20 -20 -20 -20 -20 -20 -20 -20 -20 -20 -20 -20 -20 -20 -20 -20 -20 -20 -20 -20 -20 -20 -20 -20 -20 -20 -20 -20 -20 -20 -20 -20 -20 -20 -20 -20 -20 -20 -20 -20
-20 -20 -20 -20 -20 -20 -20 -20 -20 -20 -20 -20 -20 -20 -20 -20 -20 -20 -20 -20 -20 -20 -20 -20 -20 -20 -20 -20 -20 -20 -20 -20 -20 -20 -20 -20 -20 -20 -20 -20 -20 -20 -20 -20 -20 -20 -20 -20 -20 -20 -20 -20 -20 -20
-20 -20 -20 -20 -20 -20 -20 -20 -20 -20 -20 -20 -20 -20 -20 -20 -20 -20 -20 -20 -20 -20 -20 -20 -20 -20 -20 -20 -20 -20 -20 -20 -20 -20 -20 -20 -20 -20 -20 -20 -20 -20 -20 -20 -20 -20 -20 -20 -20 -20 -20 -20 -20 -20
-20 -20 -20 -20 -20 -20 -20 -20 -20 -20 -20 -20 -20 -20 -20 -20 -18 -20 -20 -20 -20 -20 -20 -20 -20 -20 -20 -20 -20 -20 -20 -20 -20 -20 -20 -20 -20 -20 -20 -20 -20 -20 -20 -20 -20 -20 -20 -20 -20 -20 -20 -20 -20 -20
-20 -20 -20 -20 -20 -20 -20 -20 -20 -20 -20 -20 -20 -20 -20 -20 -20 -11 -14 -20 -20 -20 -20 -20 -20 -20 -20 -20 -20 -20 -20 -20 -20 -20 -20 -20 -20 -20 -20 -20 -20 -20 -20 -20 -20 -20 -20 -20 -20 -20 -20 -20 -20 -20
-20 -20 -20 -20 -20 -20 -20 -20 -20 -20 -20 -20 -20 -20 -20 -20 -20 -20 -18 -18 -20 -20 -20 -20 -20 -20 -20 -20 -20 -20 -20 -20 -20 -20 -20 -20 -20 -20 -20 -20 -20 -20 -20 -20 -20 -20 -20 -20 -20 -20 -20 -20 -20 -20
-20 -20 -20 -20 -20 -20 -20 -20 -20 -20 -20 -20 -20 -20 -20 -20 -20 -20 -20 -20 -20 -20 -20 -20 -20 -20 -20 -20 -20 -20 -20 -20 -20 -20 -20 -20 -20 -20 -20 -20 -20 -20 -20 -20 -20 -20 -20 -20 -20 -20 -20 -20 -20 -20

GFSWCAN_prec_radar_102.txt.gz
Reflectivity
-11 19 -17 -5 -20 -20 -20 -7 14 -15 14 -10 -13 -20 -20 -20 17 -9 -12 -19 2 6 -3 -20 -20 -20 -20 -20 -20 -20 -3 -6 -19 1 0 6 10 11 13 12 17 11 16 11 1 0 10 -17 -20 -7 7 -1 5 1
-0 3 11 4 -1 -20 -20 8 11 -14 8 -18 -17 -8 -20 -20 8 24 11 -11 -10 -1 -3 -20 -20 -20 -20 -20 -20 -20 -12 9 8 7 -7 2 -10 5 -12 13 -3 18 2 11 -19 2 20 7 3 -1 -12 -5 12 4
-5 8 -20 9 11 -17 -20 -15 7 -20 14 -9 -12 -19 -20 0 14 13 16 17 14 -1 -8 -3 -20 -20 -20 -20 -20 -20 -20 -12 5 4 -9 -10 18 4 6 12 16 -9 -20 0 19 0 2 6 4 2 -14 -18 -17 -7
17 3 -1 -2 -12 11 -19 -20 7 -16 12 -20 -20 -1 -20 -4 -20 21 9 7 21 20 0 -20 -20 -20 -20 -20 -20 -20 -20 10 12 3 2 6 8 -1 -7 6 7 -16 -10 -20 8 9 -3 -12 4 2 -3 -11 -20 -20
-17 17 16 -10 -20 -10 -20 -20 15 -20 11 -17 -20 -14 -7 -1 3 20 -4 14 8 9 12 -20 -20 -20 -20 -20 -20 -20 -20 -20 -20 -8 15 -8 2 4 9 0 2 -20 -20 -11 -3 3 -13 5 3 -2 -20 -20 -20 -20
-12 14 -19 -17 17 -20 9 -20 13 12 -19 -20 -18 2 15 23 23 34 26 21 20 21 29 2 -20 -20 -20 -20 -20 -20 -20 -20 -6 10 9 8 1 5 11 8 -3 -8 -13 -20 -1 -0 -20 1 5 -2 -13 -6 -20 -20
-20 -4 -15 -9 16 -20 -3 5 -20 14 -20 -20 -17 -2 15 18 31 21 19 -20 -0 16 25 9 4 -20 -20 -20 -20 -16 -20 8 19 16 -15 5 5 7 7 4 -1 -17 -10 -17 -2 3 -3 -20 -17 -6 -18 -20 -20 -20
-14 -20 0 20 16 8 -20 -20 -13 5 -20 -20 -16 -0 22 31 30 22 18 -10 8 11 17 13 0 1 -20 7 4 -20 -13 -4 2 7 -2 9 12 -18 -0 -20 -20 -13 -20 -20 -12 -20 -12 -8 -14 -20 -20 -20 -20 -20
-4 -20 -19 19 16 10 -14 -15 -17 -7 -13 -20 -17 26 28 36 36 5 5 -20 3 20 24 -20 2 14 -1 -3 -9 -19 8 8 10 9 6 13 6 8 -20 -20 -20 -20 -20 -20 -15 -16 -15 4 3 -20 -20 -20 -20 -20
-13 16 -20 17 16 -2 -19 9 -20 9 -20 -1 26 35 22 17 17 21 34 35 27 20 22 3 -20 -3 -12 -12 11 -19 11 13 9 -2 -6 11 5 -20 -20 -20 -20 -20 -20 -20 -20 -20 -20 -20 -20 -20 -20 -20 -20 -20
-18 -13 -5 -5 19 -20 -20 -1 16 -20 7 25 29 18 10 24 12 25 11 6 -1 -12 8 -20 -20 1 -20 -9 -14 -2 3 6 6 9 5 7 2 -3 -16 -20 -20 -20 -20 -20 -20 -20 -20 -20 -20 -20 -20 -20 -20 -20
-11 1 4 -5 -20 -20 -20 17 -5 12 24 -4 -0 14 34 32 29 8 5 13 4 -12 0 2 -17 5 9 -3 19 -11 6 -15 -8 -13 13 9 -20 -20 -20 -20 -20 -20 -20 -20 -20 -20 -20 -20 -20 -20 -20 -20 -20 -20
3 10 13 13 6 -11 -20 -16 7 -19 15 26 35 35 31 19 14 -3 3 -0 -2 4 2 -0 7 2 -20 5 -17 -4 -1 1 -1 15 7 -19 -9 -7 -20 -20 -20 -20 -20 -20 -20 -20 -20 -20 -20 -20 -20 -20 -20 -20
8 11 14 1 -17 8 7 -20 13 22 35 26 27 15 -2 19 -20 -20 -20 -20 -20 -20 -6 2 8 -18 -14 -9 -19 18 -15 -7 11 7 -20 -19 -4 -6 -20 -20 -20 -20 -20 -20 -20 -20 -20 -20 -20 -20 -20 -20 -20 -20
-13 -17 -20 -19 -2 1 14 19 32 37 37 27 19 -0 -20 -20 -20 -14 -11 -8 -11 -2 2 2 -17 -11 -20 -8 -9 -20 -14 -5 -19 -20 -20 -3 -2 -9 -20 -20 -20 -20 -20 -20 -20 -20 -20 -20 -20 -20 -20 -20 -20 -20
9 12 12 3 13 20 34 36 38 29 18 2 -14 -9 -9 -4 -3 -10 0 -8 -11 -9 8 -11 -20 -14 -20 -14 -11 -13 -20 -20 -20 -20 -20 -10 -20 -20 -20 -20 -20 -20 -20 -20 -20 -20 -20 -20 -20 -20 -20 -20 -20 -20
3 1 -20 15 33 34 22 19 28 24 18 18 -2 -20 -9 -3 2 -20 -19 -20 -11 11 5 -20 -20 -18 -19 -20 -20 -20 -20 -20 -20 -7 -20 -20 -20 -20 -20 -20 -20 -20 -20 -20 -20 -20 -20 -20 -20 -20 -20 -20 -20 -20
33 24 17 32 26 20 25 20 -4 2 5 -7 -20 -20 -20 -8 -20 -20 -15 -11 -20 -20 -20 -20 -20 -20 -20 -20 -20 -20 -20 -9 -3 -4 -20 -20 -20 -20 -20 -20 -20 -20 -20 -20 -20 -20 -20 -20 -20 -18 -20 -20 -20 -19
29 22 7 12 6 10 1 8 6 -20 -2 -2 -2 -9 -20 -15 -17 -20 -19 -20 -20 -20 -20 -20 -20 -20 -20 -20 -20 -20 -20 -20 -3 -20 -13 -20 -20 -20 -20 -20 -20 -20 -20 -20 -20 -13 -12 -19 -1 0 0 1 3 -0
32 22 -4 -20 -20 -5 -3 3 -20 -20 -16 -4 -15 -18 -19 -19 -14 -6 -20 -20 -20 -20 -20 -20 -20 -20 -20 -20 -20 -20 -20 -20 -20 -20 -13 -20 -20 -20 -20 -20 -20 -20 -20 -8 1 -14 1 0 -1 -2 -2 -1 1 4
-20 -20 -19 -19 -11 -15 -20 -20 -20 -20 -20 -16 -14 -20 -19 -19 -19 -19 -19 -20 -15 -20 -20 -20 -20 -20 -20 -20 -20 -20 -20 -20 -20 -20 -20 -20 -19 -20 -20 -20 -2 -1 2 2 2 2 -9 1 0 -10 -1 -1 -20 2
-20 -20 -20 -20 -20 -20 -20 -20 -20 -20 -15 -20 -20 -20 -20 -17 -16 -17 -20 -20 -20 -20 -20 -20 -20 -20 -20 -20 -20 -20 -20 -20 -20 -20 -20 -20 -20 -10 -2 0 -0 2 2 2 0 2 1 -20 -20 -20 -1 -0 -12 1
-20 -17 -3 -20 -8 -20 -20 -11 -20 -20 -20 -20 -20 -20 -20 -20 -20 -20 -20 -20 -20 -20 -20 -20 -20 -20 -20 -20 -20 -20 -20 -20 -20 -20 -20 -20 -20 -10 -20 -20 -3 0 -0 -2 -20 -20 -20 -20 -20 -2 -7 -10 3 5
10 5 -10 -20 -20 -20 -20 -20 -20 -20 -20 -20 -20 -20 -20 -20 -20 -20 -20 -20 -5 -9 -20 -20 -20 -20 -20 -20 -20 -20 -20 -20 -20 -20 -20 -20 -20 -20 -20 -20 -20 -20 -20 -20 -20 -20 -20 -20 -20 -6 -1 1 2 2
-20 -20 -20 -20 -20 -20 -20 -20 -20 -20 -20 -20 -20 -20 -20 -20 -20 -20 -20 -20 -3 -3 -19 -20 -20 -20 -20 -20 -20 -20 -20 -20 -20 -20 -20 -20 -20 -20 -20 -20 -20 -20 -20 -20 -20 -19 -20 -20 -20 -12 -2 -1 -0 1
-20 -20 -20 -20 -20 -20 -20 -20 -20 -20 -20 -20 -20 -20 -20 -20 -20 -20 -20 -10 -1 -1 -0 -14 -20 -20 -20 -20 -20 -20 -20 -20 -20 -20 -20 -20 -20 -20 -20 -20 -20 -20 -20 -20 -20 0 1 -14 -15 -15 0 -13 -20 -20
-20 -20 -20 -20 -20 -20 -20 -20 -20 -20 -20 -20 -20 -20 -20 -20 -20 -20 -20 -20 -15 -19 -20 -20 -20 -20 -20 -20 -20 -20 -20 -20 -20 -20 -20 -20 -20 -20 -20 -20 -20 -20 -20 -20 -20 -20 -16 -20 -4 -2 -0 -7 -7 -20
-20 -20 -20 -20 -20 -20 -20 -20 -20 -20 -20 -20 -20 -20 -20 -20 -20 -5 -2 -20 -20 -20 -20 -20 -20 -20 -20 -20 -20 -20 -20 -20 -20 -20 -20 -20 -20 -20 -20 -20 -20 -20 -20 -20 -20 -20 -20 -20 -6 -6 -3 -1 -3 -20
-20 -20 -20 -20 -20 -20 -20 -20 -20 -20 -20 -20 -20 -20 -20 -20 -3 -20 -20 -20 -20 -20 -20 -20 -20 -20 -20 -20 -20 -20 -20 -20 -20 -20 -20 -20 -20 -20 -20 -20 -20 -20 -20 -20 -20 -18 -20 -20 -20 -20 -20 -20 -8 -20
-20 -20 -20 -20 -20 -20 -20 -20 -16 -20 -20 -20 -20 -20 -20 -16 -4 -19 -5 -7 -20 -20 -20 -20 -20 -20 -20 -20 -20 -20 -20 -20 -20 -20 -20 -20 -20 -20 -20 -20 -20 -20 -20 -11 -11 -16 -20 -20 -20 -20 -20 -20 -20 -15
-20 -20 -20 -20 -16 -6 -14 -20 -20 -20 -20 -20 -20 -20 -19 -20 -20 -20 -20 -20 -20 -20 -20 -20 -20 -20 -20 -20 -20 -20 -20 -20 -20 -20 -20 -20 -20 -20 -20 -20 -20 -20 -20 -20 -20 -20 -20 -20 -20 -20 -20 -20 -20 -20
-20 -20 -20 -20 -20 -20 -20 -20 -20 -20 -20 -20 -20 -20 -20 -20 -20 -20 -18 -19 -20 -20 -20 -20 -20 -20 -20 -20 -20 -20 -20 -20 -20 -20 -20 -20 -20 -20 -20 -20 -20 -20 -20 -20 -20 -20 -20 -20 -20 -20 -20 -20 -20 -20
-20 -20 -20 -20 -20 -20 -20 -20 -20 -20 -20 -20 -20 -20 -20 -20 -20 -20 -19 -20 -19 -18 -20 -20 -20 -20 -20 -20 -20 -20 -20 -20 -20 -20 -20 -20 -20 -20 -20 -20 -20 -20 -20 -20 -20 -20 -20 -20 -20 -20 -20 -20 -20 -20

GFSWCAN_prec_radar_105.txt.gz
Reflectivity
9 -5 14 -8 10 9 -10 -20 -3 14 -20 -20 -20 -20 -20 -20 -1 13 12 2 10 12 -7 -4 4 4 -7 1 -5 -20 -5 -11 -18 -4 -1 -1 14 1 18 -10 6 9 9 10 11 4 17 -19 -20 -17 7 3 5 -1
-7 18 17 4 10 -1 5 3 -19 11 9 2 -20 -20 -20 -20 -7 12 15 -18 -20 15 -7 -20 -20 -20 -20 -19 6 -20 2 12 7 9 -0 0 22 8 -14 25 -3 15 2 12 -2 2 6 4 2 4 2 -1 1 3
9 -5 -20 -17 6 -19 -20 -20 -20 13 11 -19 -20 -20 -20 -20 2 -19 21 11 0 6 -2 -18 8 -20 -20 -20 -20 4 -15 11 15 11 -3 7 19 1 8 3 17 -20 -18 -2 -14 5 3 -2 -16 1 -13 -4 -7 -6
14 19 17 -6 -5 -12 -19 -20 -20 -8 11 9 -20 -20 -20 -20 5 12 -3 7 15 8 13 13 -20 -20 -20 -20 -20 -20 -9 -10 14 -19 3 6 20 -15 9 8 3 -4 -14 -11 1 1 -5 -20 -8 -0 -4 -20 -20 -20
11 19 15 11 -10 -20 -2 -20 -10 -20 -20 2 -20 -20 -2 -2 -8 8 20 -5 -20 2 20 19 -20 -20 -20 -20 -20 -20 -20 -20 -20 4 16 22 11 -3 17 5 -20 -19 -20 -7 3 3 -4 -5 -14 -13 -20 -20 -20 -20
-12 11 12 15 17 -20 10 12 -20 14 12 1 -20 -20 9 -3 10 -9 26 6 -2 18 36 20 -19 -20 -20 -20 -20 -20 -5 -12 -20 2 5 18 -18 10 20 18 -20 -16 -20 -20 3 -20 -20 -1 -6 -8 -20 -20 -20 -20
-20 6 9 12 0 17 -17 -20 17 12 13 -20 -20 -20 -20 11 20 19 15 3 3 11 26 -3 20 -20 -20 -20 -19 -1 -20 2 10 -16 16 10 17 6 16 8 -17 -20 -20 -20 -20 -12 -5 -1 -10 -10 -20 -20 -20 -20
-20 -20 19 17 10 -20 -5 -20 -12 -20 -6 -20 -20 -20 12 28 31 22 23 -11 10 20 -4 15 16 -9 -15 9 3 -10 -2 -5 2 11 7 -8 19 -3 -2 -20 -20 -6 -20 -20 -20 -20 -20 -20 -15 -17 -20 -20 -20 -20
-20 -20 7 -16 -11 -20 -20 7 -16 2 -20 -20 -14 9 22 27 28 31 15 1 -3 1 10 -2 15 19 1 -0 -5 4 -7 14 11 12 -14 16 13 14 -17 -20 -20 -20 -20 -20 -20 -20 -20 -20 -20 -9 -18 -20 -20 -20
-20 -19 -20 12 15 14 -17 -20 -20 17 9 -19 18 25 24 14 28 23 37 23 21 31 11 1 13 -19 -12 -20 11 6 4 17 19 -2 -9 9 9 -20 -20 -20 -20 -20 -20 -20 -20 -20 -20 -20 -20 -20 -20 -20 -20 -20
-20 -20 12 -19 7 14 11 -20 -15 -10 12 16 26 23 20 22 22 33 9 23 8 1 5 -6 -13 13 5 11 19 13 15 16 5 15 4 -3 2 -15 -20 -20 -20 -20 -20 -20 -20 -20 -20 -20 -20 -20 -20 -20 -20 -20
-20 -20 -20 -20 16 16 -2 -15 2 11 14 -11 17 25 31 35 25 7 15 18 4 -13 -11 -14 -10 13 1 13 18 18 14 5 9 17 14 9 -4 -20 -20 -20 -20 -20 -20 -20 -20 -20 -20 -20 -20 -20 -20 -20 -20 -20
-15 -12 2 14 17 16 -20 -20 -20 14 5 26 26 24 33 9 13 2 12 -1 -3 -3 -9 -10 4 9 12 11 -9 -1 -7 12 14 12 17 -3 -20 -20 -20 -20 -20 -20 -20 -20 -20 -20 -20 -20 -20 -20 -20 -20 -20 -20
-20 -6 -13 12 20 18 -20 -20 -16 20 32 4 16 12 13 7 2 -0 -20 -17 0 -20 -20 1 -9 8 -19 -9 15 8 17 3 12 13 7 -20 -20 -20 -20 -20 -20 -20 -20 -20 -20 -20 -20 -20 -20 -20 -20 -20 -20 -20
6 6 10 -17 20 19 -20 -15 17 10 24 19 21 19 -9 -2 -12 -20 -14 -20 -13 -14 5 4 0 -14 -4 -4 -20 5 8 8 -12 10 -10 -20 -10 -20 -20 -20 -20 -20 -20 -20 -20 -20 -20 -20 -20 -20 -20 -20 -20 -20
-9 14 19 18 17 -17 1 17 21 28 22 8 10 -1 -20 -3 -10 8 3 2 2 10 9 4 11 2 -9 7 -1 -1 12 13 1 -4 -20 -16 -13 -3 -17 -20 -20 -20 -20 -20 -20 -20 -20 -20 -9 -4 -18 -20 -20 -20
-3 16 -20 13 16 18 -1 20 27 24 12 15 14 -5 -18 14 9 9 10 -20 -20 21 -11 16 1 -1 -18 1 -3 10 -2 -10 -6 -2 -4 -19 -3 -8 -20 -20 -20 -20 -20 -20 -4 -4 -4 -1 -20 -4 -13 -2 -1 -20
17 16 -20 -20 14 31 35 32 16 16 12 4 -1 -1 -7 -9 4 -4 -7 -13 12 13 -0 16 -20 -20 -19 3 3 -20 -15 -20 -0 -11 -1 -3 -20 -20 -20 -20 -20 -20 -20 -7 -20 -20 -20 -20 -16 -13 -20 -8 -11 -20
-6 -6 1 15 12 23 27 23 26 8 -1 0 -0 -7 -0 -9 -20 -20 -20 -20 -20 -17 -20 -20 -8 -20 -20 -20 -7 -13 -2 -3 2 -2 -0 -8 -20 -20 -20 -20 -20 -16 -20 -20 -19 -3 -3 -9 -4 -9 -5 -14 -5 -2
-7 2 24 35 37 28 23 14 5 -13 -2 -4 -20 -7 -3 -0 -13 -0 -10 -11 -20 -20 -20 -20 -20 -10 -7 -18 -11 -5 -1 -0 -20 -20 -10 -11 -20 -20 -20 -20 -20 -12 -20 -4 -3 -16 -14 -9 -20 -20 -17 -17 -20 0
35 33 29 33 15 4 16 -15 -3 -5 -14 -13 -20 -20 -6 -20 -0 -0 -9 -20 -20 -20 -20 -20 -4 -20 -20 -14 -20 -20 -20 -20 -20 -20 -20 -20 -20 -20 -20 -5 -5 -17 -20 -7 -2 -2 -20 -4 -4 -20 -2 1 3 3
-4 10 10 19 6 -9 14 -8 -14 -20 -16 -2 -18 -20 0 2 2 -5 -20 -16 -20 -20 -20 -20 -20 -20 -9 -18 -17 -20 -20 -20 -20 -20 -20 -20 -20 -20 -20 -9 -12 -4 -6 -1 -2 -2 -1 -20 -20 -18 -2 1 0 1
-0 -15 -20 -20 -20 -20 -20 -18 -7 -14 -1 -11 -20 -12 -5 -11 -17 -20 -12 -20 -20 -20 -20 -20 -20 -20 -18 -9 -20 -20 -20 -20 -20 -20 -20 -20 -20 -20 -20 -20 -20 -5 -10 -20 -20 -13 -3 -19 -20 -16 -3 -9 1 4
-20 -20 -20 -20 -20 -3 -3 -2 -20 -20 -20 -20 -20 -20 -19 -18 -20 -20 -7 -20 -20 -20 -20 -20 -20 -20 -20 -20 -20 -20 -20 -20 -20 -20 -20 -20 -20 -20 -20 -20 -20 -20 -20 -20 -20 -20 -16 -0 -17 -7 -0 1 2 1
7 11 -4 -20 -20 -20 -20 -19 -5 -19 -4 -20 -20 -8 -19 -20 -20 -20 -20 -20 -19 -19 -19 -20 -20 -20 -20 -20 -20 -20 -20 -20 -20 -20 -20 -20 -20 -20 -20 -20 -20 -20 -20 -9 -1 0 2 1 2 1 1 1 1 1
2 -7 -9 -20 -20 -5 -6 -20 -20 -20 -20 -20 -20 -20 -20 -16 -20 -20 -20 -11 -3 -5 -2 -3 -20 -20 -20 -20 -20 -20 -20 -20 -20 -20 -20 -20 -20 -20 -20 -20 -20 -20 -20 -19 -2 -0 1 0 0 0 -0 1 -14 -20
-20 -2 -20 -20 -20 -20 -10 -20 -20 -20 -20 -20 -20 -13 -13 -20 -20 -20 -11 -17 3 -1 -11 -20 -20 -20 -20 -20 -20 -20 -20 -20 -20 -20 -20 -20 -20 -20 -20 -20 -20 -20 -20 -20 -6 -20 -8 -14 -14 -4 -1 1 3 2
-20 -20 -20 -20 -20 -20 -20 -20 -20 -20 -20 -20 -13 -20 -20 -20 -20 -1 -0 -19 13 2 -4 -20 -20 -20 -20 -20 -20 -20 -20 -20 -20 -20 -20 -20 -20 -20 -20 -20 -20 -20 -20 -20 -20 -20 -20 -20 -20 -5 -4 -2 -2 -3
-15 -20 -20 -20 -20 -20 -20 -18 -11 -14 -20 -16 -11 -20 -20 -12 2 5 1 11 -15 -19 -5 -2 -3 -18 -2 -20 -20 -20 -20 -20 -20 -20 -20 -20 -20 -20 -20 -20 -20 -20 -20 -20 -20 -20 -20 -20 -20 -15 -20 -5 -2 -3
-20 -20 -20 -20 -20 -16 -1 -1 0 0 -20 -6 -20 -20 -2 0 2 0 1 2 9 5 2 -12 1 -20 -20 -20 -11 -11 -20 -20 -20 -20 -20 -20 -20 -20 -20 -20 -20 -20 -20 -6 -6 -9 -18 -12 -19 -16 -20 -20 -3 -5
-20 -20 -20 -20 -6 1 1 1 1 1 -0 -6 -17 -8 0 2 1 -2 -1 2 2 -3 1 2 -0 -20 -20 -20 -20 -20 -20 -20 -20 -20 -20 -20 -20 -20 -20 -20 -20 -20 -20 -20 -20 -20 -20 -20 -20 -20 -20 -20 -20 -20
-20 -20 -20 -20 -3 2 0 1 0 1 1 -0 0 -4 -4 6 1 -1 -17 0 7 3 -18 -1 -1 2 -1 -13 -20 -20 -20 -20 -20 -20 -20 -20 -20 -20 -20 -20 -20 -20 -20 -20 -20 -20 -20 -20 -20 -20 -20 -20 -20 -20
-20 -20 -20 -20 -5 -2 -0 -4 -17 -1 -2 -0 -1 -1 -8 0 -3 -1 -3 -15 3 3 -1 -10 -6 -20 -20 -20 -20 -20 -20 -20 -20 -20 -20 -20 -20 -20 -20 -20 -20 -20 -20 -20 -20 -20 -20 -20 -20 -20 -20 -20 -20 -20

GFSWCAN_prec_radar_111.txt.gz
Reflectivity
9 15 17 10 14 -5 -12 1 14 8 -20 -20 -20 -20 -20 -20 -20 -20 -20 -20 -11 -13 -20 -20 -20 -20 -20 -20 -20 -20 -20 -20 -20 -20 -20 -20 -20 1 -1 -9 -3 -20 -14 -20 -20 -20 -20 -20 -20 -17 11 6 8 4
20 8 15 10 7 -17 6 -15 12 -8 -20 -20 -20 -20 -20 -20 -20 -20 -16 -20 -20 -20 -20 -20 -20 -20 -20 -20 -20 -20 -20 4 -20 -20 -20 -19 -20 -20 -19 -16 -20 -14 -18 -20 -4 -2 3 5 6 3 -2 -3 -18 -20
29 26 15 7 -14 -17 -1 -15 -4 -8 -20 -20 -20 -17 -20 -20 -20 -20 -3 -20 -20 -20 -20 -20 -20 -20 -20 -20 -20 -20 -20 -20 -20 -20 -20 3 -10 -17 -8 4 3 -16 -12 -20 -20 10 -1 -0 -20 -20 -20 -20 -20 -20
25 24 27 15 -4 -1 -20 -20 -15 -1 -20 -10 -20 2 -20 -20 -20 -20 -20 -20 -20 -17 -20 -20 -20 -11 -20 -20 -20 -20 -20 -20 -20 -20 -20 -11 -20 -11 -7 13 -20 -20 -20 -20 2 -12 -20 -19 -20 -20 -20 -20 -20 -20
33 31 30 16 8 16 -20 -20 -20 -3 7 13 -20 -18 -20 -20 -20 -20 -20 -20 -20 -6 -4 -20 -20 -6 -20 -20 -20 -20 -20 -20 -20 -20 -20 -20 -20 -20 -20 -1 -20 -20 -20 -20 -20 -0 -20 -20 -20 -20 -20 -20 -20 -20
23 25 28 16 8 10 -20 -20 -20 4 -20 -20 -20 -20 -20 -20 -20 -20 -20 -20 -20 -20 -16 -20 -20 12 -20 -20 -20 -20 -20 -20 -20 -20 -20 -20 -20 -20 -20 -20 -20 -14 -11 -20 -20 -20 -20 -20 -20 -20 -20 -20 -20 -20
19 16 19 11 14 5 -20 -20 -20 -20 -13 12 -5 -20 -20 -5 -20 -20 -19 26 13 -20 -20 -16 -11 -20 -20 -20 -20 -20 -20 -20 -20 -20 -20 -20 -20 -20 -20 -20 -20 -6 1 -15 5 -20 -16 -10 -20 -20 -20 -20 -20 -20
13 -20 -20 10 -3 -6 0 -18 -5 -20 -20 0 12 -20 -19 16 -11 -20 23 15 11 -4 4 -20 -18 -10 -20 -20 -16 -20 -20 -20 -20 -20 -20 -20 -20 -20 -20 -20 -20 -20 -20 -18 -20 -20 -20 -20 -20 -20 -20 -20 -20 -20
14 -1 -20 -20 -20 -20 -20 -20 -20 1 15 3 -20 12 -20 -20 -6 -20 -0 12 12 -0 -4 -14 -20 -20 -20 -4 -20 -20 -20 -13 -20 -19 -20 -20 -20 -20 -20 -20 -20 -20 -20 -20 -20 -20 -20 -20 -20 -20 -20 -20 -20 -20
15 -20 2 7 -19 -20 -20 -20 -20 14 12 3 -10 10 -12 -19 9 24 22 12 22 21 -15 -12 -20 -20 -20 -15 -19 -20 -11 -20 -20 -10 -20 -20 -20 -9 3 -18 -20 -20 -20 -20 -20 -20 -20 -20 -20 -20 -20 -20 -20 -20
15 16 13 10 1 -20 -20 -20 -7 16 17 8 -12 -16 -15 10 18 31 1 11 23 -11 -20 -20 -20 -20 -20 -20 -18 -20 -20 -20 -20 -20 -20 -20 -20 -20 -20 -20 -20 -20 -20 -20 -20 -20 -20 -20 -20 -20 -20 -20 -20 -20
-20 13 14 15 -12 -20 -20 -20 0 -18 -20 -20 -20 29 24 20 0 16 -19 -2 -20 -20 -20 -20 -20 -20 -5 -20 -20 -20 -20 -20 -20 -20 -20 -20 -20 -20 -20 -20 -20 -20 -20 -20 -20 -20 -20 -20 -20 -20 -20 -20 -20 -20
-20 21 -14 14 -20 -20 -20 -20 -20 3 24 -20 20 17 12 -5 6 -17 0 -2 -20 -20 -20 -20 -16 -20 -20 -20 -20 -20 -20 -20 -20 -20 -20 -20 -20 -20 -20 -20 -20 -20 -20 -20 -20 -20 -20 -20 -20 -20 -20 -20 -20 -20
-20 -20 17 14 -20 10 -20 -20 12 -15 -20 -20 -6 -12 -15 -11 -20 -20 -20 -20 -20 -20 -20 -20 -20 -20 -20 -20 -20 -20 -20 -20 -20 -20 -20 -20 -20 -20 -20 -20 -20 -20 -20 -20 -20 -20 -20 -20 -20 -20 -20 -20 -20 -20
-20 -20 -20 19 18 -11 12 2 -15 -17 -14 -9 14 -13 -20 2 -20 -20 3 -5 -20 -20 -20 -20 -20 -20 -20 -20 -20 -20 -9 -16 -20 -8 -20 -20 -20 -20 -20 -20 -20 -20 -20 -20 -20 -20 -20 -20 -20 -20 -20 -20 -20 -20
-20 -13 -20 -20 16 21 18 -5 -6 26 24 -9 -17 6 -15 -20 -20 -20 -18 24 -20 -20 -20 -20 -20 1 -20 -14 -20 -20 -9 -20 4 -20 -20 -20 -20 -20 -20 -20 -20 -20 -20 -20 -20 -20 -20 -20 -20 -20 -20 -20 -20 -20
1 -20 -20 17 20 17 -20 -18 22 2 -20 -10 -20 -7 -3 -20 3 -20 -20 24 -5 -20 -20 -20 -20 -20 -20 -19 -20 -20 -20 -20 -20 -20 -20 -20 -20 -20 -20 -20 -20 -20 -20 -20 -20 -20 -20 -20 -20 -20 -20 -20 -20 -20
-20 -3 -14 18 24 10 -20 -20 14 11 -20 -19 -20 -20 -20 -20 -19 -20 -20 18 21 -20 -14 -17 -11 -20 -20 -20 -20 -20 -20 -20 -20 -20 -20 -20 -20 -20 -20 -20 -20 -20 -20 -20 -20 -20 -20 -20 -20 -20 -20 -20 -20 -20
1 -7 14 22 7 -14 -20 -20 1 11 -20 -11 -20 -20 -20 -20 -20 -7 -20 -20 -14 -18 -1 -20 -20 -1 0 -20 -20 -20 -20 -20 -20 -19 -20 -20 -20 -20 -20 -20 -20 -20 -20 -20 -20 -20 -20 -20 -20 -20 -20 -20 -20 -20
19 0 -16 -20 -15 21 -20 -9 -20 -15 -20 -20 -20 -20 -20 8 -19 -20 -20 -20 -7 -6 -19 -20 -20 -20 -20 -16 -20 -20 -20 -20 -20 -20 -20 -20 -20 -20 -20 -20 -20 -20 -20 -20 -20 -20 -20 -20 -20 -20 -20 -20 -20 -20
20 1 16 -15 14 26 7 -20 -20 -20 -20 -20 -20 -13 7 -17 -20 2 -20 -20 -7 -9 -15 -20 -20 -20 -20 -20 -20 -20 -20 -20 -20 -20 -20 -20 -20 -20 -20 -20 -20 -20 -20 -20 -20 -20 -20 -20 -20 -20 -20 -20 -20 -20
14 14 30 1 10 2 9 3 -4 -20 -20 -20 -17 -20 -20 -3 -1 0 -20 -15 -16 -20 -20 -20 -20 -20 -20 -20 -20 -20 -20 -20 -20 -20 -20 -20 -20 -20 -20 -20 -20 -20 -20 -20 -20 -20 -20 -20 -20 -20 -20 -20 -20 -20
-6 -4 -18 -20 -18 -14 -20 -13 -20 -20 -20 -4 -3 3 -10 5 -20 -20 -20 -20 -20 -20 -20 -20 -20 -20 -20 -20 -20 -20 -20 -20 -20 -20 -20 -20 -20 -20 -20 -20 -20 -20 -20 -20 -20 -20 -20 -20 -20 -20 -20 -20 -20 -20
12 19 -14 -20 6 -5 -20 -9 -20 7 -3 9 7 -17 2 -17 -20 -20 -20 -20 -20 -20 -20 -20 -20 -20 -20 -20 -20 -20 -20 -20 -20 -20 -20 -20 -20 -20 -20 -20 -20 -20 -20 -20 -20 -20 -20 -20 -20 -20 -20 -20 -20 -20
18 9 9 -7 -7 -20 -20 -2 12 8 -18 -18 -12 -20 -20 -20 -20 -20 1 -20 -20 -20 -20 -20 -20 -20 -20 -20 -20 -20 -20 -20 -20 -20 -20 -20 -20 -20 -20 -20 -20 -20 -20 -20 -20 -20 -20 -20 -20 -20 -20 -20 -20 -20
6 15 10 10 -1 3 -18 -20 -14 -17 -14 -20 -20 -20 -20 -20 -17 -7 -19 -18 -20 -20 -20 -20 -20 -20 -20 -20 -20 -20 -20 -20 -20 -20 -20 -20 -20 -20 -20 -20 -20 -20 -20 -20 -20 -20 -20 -20 -20 -20 -20 -20 -20 -20
15 8 -7 -20 -19 -18 -20 -20 -20 -20 -20 -20 -16 -20 -20 -20 -20 -19 -20 -18 -15 -20 -20 -20 -20 -20 -20 -20 -20 -20 -20 -20 -20 -20 -20 -20 -20 -20 -20 -20 -20 -20 -20 -20 -20 -20 -20 -20 -20 -20 -20 -20 -20 -20
-7 -17 -12 1 4 -20 -20 -20 -20 -20 -20 -20 -10 -20 -5 -20 -20 -20 -20 -14 9 -17 -20 -20 -19 -7 -20 -20 -20 -20 -20 -20 -20 -20 -20 -20 -20 -20 -20 -20 -20 -20 -20 -20 -20 -20 -20 -20 -20 -20 -20 -20 -20 -20
14 10 9 9 6 -5 -20 -20 -20 -20 -20 -20 -20 -20 -20 -20 -20 -20 -20 8 -10 -20 -20 -19 0 -19 -20 -20 -20 -20 -20 -20 -20 -20 -20 -20 -20 -20 -20 -20 -20 -20 -20 -20 -20 -20 -20 -20 -20 -20 -20 -20 -20 -20
-0 10 6 -15 -18 -20 -20 -20 -20 -20 -20 -20 -20 -20 -13 -20 -14 -20 -19 -9 -8 -19 -20 -20 -20 -20 -20 -20 -20 -20 -20 -20 -20 -20 -20 -20 -20 -20 -20 -20 -20 -20 -20 -20 -20 -20 -20 -20 -20 -20 -20 -20 -20 -20
-20 -16 -20 -20 -20 -13 -20 -20 -20 -20 -20 -20 -20 -20 -20 -20 -20 -20 -20 -9 -9 -20 -20 -18 -18 -20 -20 -20 -20 -20 -20 -20 -20 -20 -20 -20 -20 -20 -20 -20 -20 -20 -20 -20 -20 -20 -20 -20 -20 -20 -20 -20 -20 -20
-20 -20 -20 -20 -19 -20 -20 -4 6 -14 -20 -20 -12 -20 -20 -20 -20 -20 -18 -20 -20 -4 -10 -20 -20 -20 -20 -20 -20 -20 -20 -20 -20 -20 -20 -20 -20 -20 -20 -20 -20 -20 -20 -20 -20 -20 -20 -20 -20 -20 -20 -20 -20 -20
-12 -20 -20 -20 -20 -20 -20 -16 -18 -4 7 -5 -19 -20 -20 -20 -20 -20 -20 -11 -9 -20 -20 -20 -20 -20 -20 -20 -20 -20 -20 -20 -20 -20 -20 -20 -20 -20 -20 -20 -20 -20 -20 -20 -20 -20 -20 -20 -20 -20 -20 -20 -20 -20

GFSWCAN_prec_radar_114.txt.gz
Reflectivity
12 32 31 17 20 12 3 6 7 -14 -20 -0 -0 -17 -20 -20 -20 -20 -20 -20 -20 -20 -20 -20 -20 -20 -20 -20 -20 -20 -20 -20 -20 -20 -20 -20 -20 -1 -9 -7 -13 -15 -16 -20 -20 -20 -20 -20 -20 -7 -0 5 -1 5
14 11 23 28 20 2 0 10 -1 -14 -12 -19 -20 -20 -20 -20 -20 -20 -20 -20 -20 -20 -20 -20 -20 -20 -20 -20 -20 -20 -20 -20 -20 -20 -12 -20 -20 -20 -20 -20 -20 -20 -20 -20 -2 -13 -1 1 10 5 -19 -20 -20 -20
12 -3 4 13 24 15 16 11 -1 5 -20 -20 -20 -20 -20 -20 -20 -20 -20 -20 -20 -20 -20 -20 -20 -20 -20 -20 -20 -20 -20 -20 -20 -20 -20 -12 -20 -20 -19 10 -20 0 -20 -20 -20 9 2 -1 -20 -20 -20 -20 -20 -20
20 9 -7 -3 14 14 11 9 -9 5 -20 -20 -20 -20 -20 -20 -20 -20 -20 -20 -20 -20 -20 -20 -20 -20 -20 -20 -20 -20 -20 -20 -20 -20 -20 -14 -20 -20 -20 -20 -20 -20 -20 -20 -1 0 -20 2 -20 -20 -20 -20 -20 -20
28 9 12 12 16 -18 4 0 -20 -11 12 -20 -20 -20 -20 -20 -20 -20 -20 -20 -20 -20 -20 -20 -20 -20 -20 -20 -20 -20 -20 -20 -20 -20 -20 -20 -20 -20 -20 -20 -20 -20 -20 -19 -19 -20 -20 -12 -20 -20 -20 -20 -20 -20
11 26 21 14 15 4 -20 -13 -20 3 8 12 -19 -20 -20 -20 -20 -20 -20 -20 -20 -20 -20 -20 -20 -20 -20 -20 -20 -20 -20 -20 -20 -20 -20 -20 -20 -20 -20 -20 -20 -11 -20 -20 -20 -20 -20 -20 -20 -20 -20 -20 -20 -20
22 26 31 23 11 16 -19 -20 -8 4 10 -18 -20 -20 -20 -20 -20 -20 -15 13 -14 -20 -20 -20 -20 -20 -20 -20 -20 -20 -20 -20 -20 -20 -20 -20 -20 -20 -20 -20 -20 -20 -20 -20 -20 -20 -16 -20 -20 -20 -20 -20 -20 -20
21 32 26 20 2 11 -19 -20 -20 6 9 5 -20 -20 -4 -5 -20 -20 23 9 -6 -19 -20 -20 -20 -20 -20 -20 -20 -20 -20 -20 -20 -20 -20 -20 -20 -20 -20 -20 -20 -19 -7 -20 -20 -20 -20 -20 -20 -20 -20 -20 -20 -20
29 32 27 15 9 -9 -20 -20 6 -1 10 10 -20 -2 -20 -20 -20 -1 6 27 -6 -13 -20 -20 -20 -20 -20 -20 -20 -20 -20 -20 -20 -20 -20 -20 -20 -20 -20 -20 -20 -20 -20 -20 -20 -20 -20 -20 -20 -20 -20 -20 -20 -20
8 7 9 9 7 -20 -20 -20 -8 4 12 4 -20 -20 -5 0 6 18 -4 10 -19 9 -8 -11 -20 -20 -20 -20 -20 -20 -20 -20 -20 -20 -20 -20 -20 -20 -20 -20 -20 -20 -20 -20 -20 -20 -20 -20 -20 -20 -20 -20 -20 -20
22 14 9 5 -6 -20 -20 -20 2 15 8 -20 -20 -17 -14 -3 13 -11 1 1 -0 -13 -18 -20 -20 -20 -20 -20 -20 -20 -20 -20 -20 -20 -20 -20 -20 -20 -20 -20 -20 -20 -20 -20 -20 -20 -20 -20 -20 -20 -20 -20 -20 -20
10 8 12 -20 -20 -20 -20 -16 13 -20 -20 -20 1 24 19 27 13 -4 -20 -20 -20 -20 -20 -20 -20 -20 -20 -20 -20 -20 -20 -20 -20 -20 -20 -20 -20 -20 -20 -20 -20 -20 -20 -20 -20 -20 -20 -20 -20 -20 -20 -20 -20 -20
21 24 16 -18 -20 -20 -20 -20 -20 -20 -20 -8 24 -14 -13 -15 -10 -18 -18 -20 -20 -20 -20 -20 -20 -20 -20 -20 -20 -20 -20 -20 -20 -20 -20 -20 -20 -20 -20 -20 -20 -20 -20 -20 -20 -20 -20 -20 -20 -20 -20 -20 -20 -20
24 16 15 9 -20 -20 -20 -10 16 5 -20 -6 -19 -8 -20 -20 -20 -20 -20 -20 -20 -20 -20 -20 -20 4 -20 -20 -20 -20 -20 -20 -18 -20 -20 -20 -20 -20 -20 -20 -20 -20 -20 -20 -20 -20 -20 -20 -20 -20 -20 -20 -20 -20
14 17 15 16 16 -20 16 14 -20 -20 -20 -20 -20 -20 -20 -20 -20 -20 -2 -20 -20 -20 -20 -20 -20 -20 -20 -20 -20 -20 -5 -10 -20 -20 -20 -20 -20 -20 -20 -20 -20 -20 -20 -20 -20 -20 -20 -20 -20 -20 -20 -20 -20 -20
13 19 -2 19 19 12 -6 -20 -20 -20 -20 -20 -20 -20 -20 -13 -20 -20 -20 -20 -20 -4 -20 -20 -20 -20 -20 -20 -15 -20 -20 -20 -20 -20 -20 -20 -20 -20 -20 -20 -20 -20 -20 -20 -20 -20 -20 -20 -20 -20 -20 -20 -20 -20
-20 -20 13 -12 18 19 -20 -20 -20 -20 -20 -20 -20 -20 -14 -16 -20 -20 -20 -20 -20 -17 -20 -20 -20 -20 -20 -19 -20 -20 -20 -20 -20 -20 -20 -20 -20 -20 -20 -20 -20 -20 -20 -20 -20 -20 -20 -20 -20 -20 -20 -20 -20 -20
-20 -20 -11 20 24 3 -20 -20 -20 -20 -20 -20 -20 6 4 -20 -15 -20 -20 -13 1 1 5 -20 -20 -20 -20 -20 -20 -20 -20 -20 -20 -20 -20 -20 -20 -20 -20 -20 -20 -20 -20 -20 -20 -20 -20 -20 -20 -20 -20 -20 -20 -20
-20 -20 21 11 -20 -20 -20 -20 -20 -14 -20 -20 -20 -20 -20 -20 -20 -20 -20 -10 24 11 -20 -20 -20 -20 -20 -20 -20 -20 -20 -20 -20 -20 -20 -20 -20 -20 -20 -20 -20 -20 -20 -20 -20 -20 -20 -20 -20 -20 -20 -20 -20 -20
16 3 1 6 -17 -20 -20 -20 -20 -20 -20 -20 -20 -20 -20 -20 -17 -17 -20 -20 -18 23 6 -19 -20 -20 -20 -20 -20 -20 -20 -20 -20 -20 -20 -20 -20 -20 -20 -20 -20 -20 -20 -20 -20 -20 -20 -20 -20 -20 -20 -20 -20 -20
18 -5 6 -19 1 -20 -20 -20 -20 -20 -20 -20 -20 -20 -20 -20 -20 -20 -20 -20 -20 -20 -20 -20 -20 -20 -20 -20 -20 -20 -20 -20 -20 -20 -20 -20 -20 -20 -20 -20 -20 -20 -20 -20 -20 -20 -20 -20 -20 -20 -20 -20 -20 -20
13 29 35 -18 -20 -20 -20 -6 -1 -20 -20 -20 -18 -20 -20 -20 -4 -8 -20 -20 -20 -20 -20 -20 -20 -20 -20 -20 -20 -20 -20 -20 -20 -20 -20 -20 -20 -20 -20 -20 -20 -20 -20 -20 -20 -20 -20 -20 -20 -20 -20 -20 -20 -20
-11 -18 -20 -20 -15 -6 -0 21 1 -20 -20 -14 -7 -20 -20 -20 -20 -20 -20 -20 -20 -20 -20 -20 -20 -20 -20 -20 -20 -20 -20 -20 -20 -20 -20 -20 -20 -20 -20 -20 -20 -20 -20 -20 -20 -20 -20 -20 -20 -20 -20 -20 -20 -20
-20 -20 -20 -20 -20 -20 -20 -18 -20 -20 -20 -20 -20 -20 -20 -20 -20 -20 -20 -20 -20 -20 -20 -20 -20 -20 -20 -20 -20 -20 -20 -20 -20 -20 -20 -20 -20 -20 -20 -20 -20 -20 -20 -20 -20 -20 -20 -20 -20 -20 -20 -20 -20 -20
-20 -20 -20 -20 -20 -20 -20 -20 -19 -20 -20 -20 -8 -20 -20 -20 -20 -20 -20 -20 -20 -20 -20 -20 -20 -20 -20 -20 -20 -20 -20 -20 -20 -20 -20 -20 -20 -20 -20 -20 -20 -20 -20 -20 -20 -20 -20 -20 -20 -20 -20 -20 -20 -20
-3 -18 -20 -20 -20 -20 -20 -20 -20 -20 -20 -16 -8 -20 -20 -20 -19 -19 -20 -20 -20 -20 -20 -20 -20 -20 -20 -20 -20 -20 -20 -20 -20 -20 -20 -20 -20 -20 -20 -20 -20 -20 -20 -20 -20 -20 -20 -20 -20 -20 -20 -20 -20 -20
-20 -20 -20 -20 -20 -13 -20 -20 -20 -20 -20 -20 -20 -20 -20 -20 -16 -20 -19 -19 -20 -19 -20 -20 -20 -20 -20 -20 -20 -20 -20 -20 -20 -20 -20 -20 -20 -20 -20 -20 -20 -20 -20 -20 -20 -20 -20 -20 -20 -20 -20 -20 -20 -20
-8 2 -17 -1 9 -7 -20 -20 -20 -20 -20 -20 -20 -17 -20 -20 -20 -20 -20 -20 -15 -19 -20 -20 -20 -20 -20 -20 -20 -20 -20 -20 -20 -20 -20 -20 -20 -20 -20 -20 -20 -20 -20 -20 -20 -20 -20 -20 -20 -20 -20 -20 -20 -20
-18 -5 5 8 12 11 3 -8 -20 -20 -20 -20 -20 -20 -20 -20 -20 -20 -20 -18 -16 -20 -20 -20 -15 -20 -20 -20 -20 -20 -20 -20 -20 -20 -20 -20 -20 -20 -20 -20 -20 -20 -20 -20 -20 -20 -20 -20 -20 -20 -20 -20 -20 -20
1 16 17 11 5 -1 -17 -14 -15 -17 -19 -20 -20 -20 -20 -20 -20 -20 -18 -20 -20 -20 -20 -19 -18 -20 -20 -20 -20 -20 -20 -20 -20 -20 -20 -20 -20 -20 -20 -20 -20 -20 -20 -20 -20 -20 -20 -20 -20 -20 -20 -20 -20 -20
17 11 8 7 8 6 6 -0 -13 -20 -20 -20 -20 -20 -20 -20 -19 -20 -20 -20 -20 -20 -20 -18 -13 -15 -20 -20 -20 -20 -20 -20 -20 -20 -20 -20 -20 -20 -20 -20 -20 -20 -20 -20 -20 -20 -20 -20 -20 -20 -20 -20 -20 -20
-20 -4 -18 -20 -20 -20 -20 -20 -20 -20 -20 -20 -20 -20 -20 -20 -20 -20 -19 -14 -16 -20 -20 -20 -20 -20 -19 -20 -20 -20 -20 -20 -20 -20 -20 -20 -20 -20 -20 -20 -20 -20 -20 -20 -20 -20 -20 -20 -20 -20 -20 -20 -20 -20
-20 -20 -20 -20 -20 -20 -20 -20 -20 -20 -20 -20 -20 -20 -20 -20 -20 -20 -20 -12 -20 -20 -20 -20 -20 -19 -20 -20 -20 -20 -20 -20 -20 -20 -20 -20 -20 -20 -20 -20 -20 -20 -20 -20 -20 -20 -20 -20 -20 -20 -20 -20 -20 -20

GFSWCAN_prec_radar_117.txt.gz
Reflectivity
20 20 10 16 27 12 22 19 6 -5 -20 -20 -20 -20 -20 -6 1 -20 -20 -20 -20 -20 -20 -20 -20 -20 -20 -20 -20 -20 -20 -20 -20 -20 -20 -20 -20 -20 -13 -19 -4 -17 -13 -11 -20 -20 -20 -20 -16 -13 -2 -13 -9 -4
20 22 17 19 27 24 23 21 10 -5 -18 -20 -10 -15 -20 -3 -1 -20 -20 -20 -20 -20 -20 -20 -20 -20 -20 -20 -20 -20 -20 -20 -20 -20 -20 -20 -20 -20 -20 -20 -20 -20 -20 -18 -7 -14 -1 -1 0 -7 -20 -20 -20 -11
21 29 33 27 22 19 20 19 0 5 -20 -20 -18 -20 -20 -9 -3 -20 -20 -20 -20 -20 -20 -20 -20 -20 -20 -20 -20 -20 -20 -20 -20 -20 -20 -20 -20 -20 -20 -20 -20 -10 -20 -20 -20 6 2 -8 -20 -20 -20 -20 -20 -20
-2 17 24 22 17 7 15 21 15 2 -20 -20 -5 -3 -20 -20 -20 -20 -20 -20 -20 -20 -20 -20 -20 -20 -20 -20 -20 -20 -20 -20 -20 -20 -20 -20 -20 -20 -20 -20 -20 -20 -20 -20 0 -1 -4 -4 -20 -20 -20 -20 -20 -20
14 15 3 12 12 8 10 16 13 8 -17 -0 -12 -20 -20 -20 -20 -20 -20 -20 -20 -20 -20 -20 -20 -20 -20 -20 -20 -20 -20 -20 -20 -20 -20 -20 -20 -20 -20 -20 -20 -20 -20 -20 -20 -20 -20 -14 -20 -20 -20 -20 -20 -20
14 -20 -5 6 7 12 23 26 15 -7 -20 -20 -20 -20 -20 -20 -20 -20 -20 -20 -20 -20 -20 -20 -20 -20 -17 -20 -20 -20 -20 -20 -20 -20 -20 -20 -20 -20 -20 -20 -20 -20 -20 -20 -20 -20 -20 -20 -20 -20 -20 -20 -20 -20
17 6 -20 -17 2 -15 7 17 6 -15 2 -15 -20 -20 -20 -20 -20 -20 -19 -12 -20 -20 -20 -20 -20 -20 -20 -20 -20 -20 -20 -20 -20 -20 -20 -20 -20 -20 -20 -20 -20 -20 -20 -20 -20 -20 -20 -20 -20 -20 -20 -20 -20 -20
29 10 -16 -14 -20 1 -15 -2 8 10 10 15 -20 -20 -20 -20 -20 -20 -16 2 -20 -20 -20 -20 -20 -20 -20 -20 -20 -20 -20 -20 -20 -20 -20 -20 -20 -20 -20 -20 -20 -20 -20 -20 -20 -20 -20 -20 -20 -20 -20 -20 -20 -20
7 12 3 -20 -20 -20 -20 -20 12 5 12 -20 -20 -20 -19 -20 -20 8 16 -3 -20 -20 -20 -20 -20 -20 -20 -20 -20 -20 -20 -20 -20 -20 -20 -20 -20 -20 -20 -20 -20 -20 -20 -20 -20 -20 -20 -20 -20 -20 -20 -20 -20 -20
21 27 2 -20 -20 -20 -20 6 12 11 10 -3 -15 -15 -20 -20 -20 -7 6 -20 -20 -20 8 -20 -20 -20 -20 -20 -20 -20 -20 -20 -20 -20 -20 -20 -20 -20 -20 -20 -20 -20 -20 -20 -20 -20 -20 -20 -20 -20 -20 -20 -20 -20
28 24 -20 -20 -20 -20 -20 9 11 6 -20 -20 -20 3 -20 4 -1 8 7 -14 -20 -4 -17 -20 -20 -20 -20 -20 -20 -20 -20 -20 -20 -20 -20 -20 -20 -20 -20 -20 -20 -20 -20 -20 -20 -20 -20 -20 -20 -20 -20 -20 -20 -20
34 17 -20 -20 -20 -20 -20 1 -5 -20 -20 -20 9 13 14 -9 16 -20 -20 -8 -11 -20 -20 -20 -20 -20 -20 -20 -20 -20 -20 -20 -20 -20 -20 -20 -20 -20 -20 -20 -20 -20 -20 -20 -20 -20 -20 -20 -20 -20 -20 -20 -20 -20
17 9 7 -20 -20 -20 -20 -10 -9 -20 -20 19 -15 9 -0 5 -13 -20 -20 -15 -20 -20 -20 -20 -20 -20 -20 -20 -20 -20 -20 -20 -20 -20 -20 -20 -20 -20 -20 -20 -20 -20 -20 -20 -20 -20 -20 -20 -20 -20 -20 -20 -20 -20
7 8 -20 -20 -1 -20 -17 -15 8 -20 -15 -12 -20 -19 -20 -20 -20 -20 -18 -20 -20 -20 -20 -20 -20 4 -20 -20 -20 -20 -20 -20 -20 -6 -20 -20 -20 -20 -20 -20 -20 -20 -20 -20 -20 -20 -20 -20 -20 -20 -20 -20 -20 -20
13 15 15 -20 -3 15 -18 -20 -20 -20 -16 -20 -20 -20 -20 -20 -20 -13 -20 -20 -20 -20 -20 -20 -20 -20 -20 -20 -20 -20 -19 -15 -20 -20 -20 -20 -20 -20 -20 -20 -20 -20 -20 -20 -20 -20 -20 -20 -20 -20 -20 -20 -20 -20
27 16 -14 -10 5 6 -20 -20 -20 -20 -20 -20 -20 -20 -20 -20 -20 -20 -20 -20 -17 -20 -20 -20 -20 -20 -20 -20 -20 -20 -20 -20 -20 -20 -20 -20 -20 -20 -20 -20 -20 -20 -20 -20 -20 -20 -20 -20 -20 -20 -20 -20 -20 -20
22 17 18 17 13 -20 -20 -20 -20 -20 -20 -20 -20 -20 -20 -20 -20 -20 -20 -20 -20 -20 -20 -20 -20 -20 -20 -20 -20 -20 -20 -20 -20 -20 -20 -20 -20 -20 -20 -20 -20 -20 -20 -20 -20 -20 -20 -20 -20 -20 -20 -20 -20 -20
-1 -7 17 -17 -20 -20 -20 -20 -20 -20 -20 -20 -20 -20 -20 -20 -17 -20 -20 -20 -20 -20 -20 -20 -20 -20 -20 -20 -20 -20 -20 -20 -20 -20 -20 -20 -20 -20 -20 -20 -20 -20 -20 -20 -20 -20 -20 -20 -20 -20 -20 -20 -20 -20
-20 5 15 -20 -20 -20 -20 -20 -20 -20 -20 -20 -20 -9 -16 -20 -20 -20 1 -9 7 14 -17 -20 -20 -20 -20 -20 -20 -20 -20 -20 -20 -20 -20 -20 -20 -20 -20 -20 -20 -20 -20 -20 -20 -20 -20 -20 -20 -20 -20 -20 -20 -20
-15 3 7 0 -20 -20 -20 -20 -20 -20 -20 -20 -20 -20 -20 -20 -17 -20 -20 -20 -20 21 6 -20 -20 -20 -20 -20 -20 -20 -20 -20 -20 -20 -20 -20 -20 -20 -20 -20 -20 -20 -20 -20 -20 -20 -20 -20 -20 -20 -20 -20 -20 -20
20 14 21 3 -20 -20 -20 -20 -20 -20 -20 -20 -20 -20 -20 -20 -20 -20 -20 -20 -20 -20 2 -2 -20 -20 -20 -20 -20 -20 -20 -20 -20 -20 -20 -20 -20 -20 -20 -20 -20 -20 -20 -20 -20 -20 -20 -20 -20 -20 -20 -20 -20 -20
21 32 30 -18 -20 -20 -20 -20 -20 -20 -20 -20 -20 -20 -20 -20 -20 -20 -17 -20 -20 -20 -20 -20 -20 -20 -20 -20 -20 -20 -20 -20 -20 -20 -20 -20 -20 -20 -20 -20 -20 -20 -20 -20 -20 -20 -20 -20 -20 -20 -20 -20 -20 -20
22 -1 -20 -20 -20 -20 -20 2 -10 -20 -20 -20 -20 -20 -20 -20 -20 -20 -20 -20 -20 -20 -20 -20 -20 -20 -20 -20 -20 -20 -20 -20 -20 -20 -20 -20 -20 -20 -20 -20 -20 -20 -20 -20 -20 -20 -20 -20 -20 -20 -20 -20 -20 -20
-20 -20 -20 -20 -20 -1 -9 14 11 -20 -20 -20 -20 -20 -20 -20 -20 -20 -20 -20 -20 -20 -20 -20 -20 -20 -20 -20 -20 -20 -20 -20 -20 -20 -20 -20 -20 -20 -20 -20 -20 -20 -20 -20 -20 -20 -20 -20 -20 -20 -20 -20 -20 -20
-11 -20 -20 -20 -20 -20 -20 -20 -20 -20 -20 -20 -20 -20 -20 -20 -20 -20 -20 -20 -20 -20 -20 -20 -20 -20 -20 -20 -20 -20 -20 -20 -20 -20 -20 -20 -20 -20 -20 -20 -20 -20 -20 -20 -20 -20 -20 -20 -20 -20 -20 -20 -20 -20
-20 -20 -20 -20 -20 -20 -20 -20 -20 -20 -20 -20 -20 -19 -20 -20 -20 -20 -20 -20 -20 -20 -20 -20 -20 -20 -20 -20 -20 -20 -20 -20 -20 -20 -20 -20 -20 -20 -20 -20 -20 -20 -20 -20 -20 -20 -20 -20 -20 -20 -20 -20 -20 -20
-20 -20 -20 -20 -20 -20 -20 -20 -20 -20 -20 -20 -20 -20 -20 -20 -17 -20 -20 -20 -20 -20 -20 -20 -20 -20 -20 -20 -20 -20 -20 -20 -20 -20 -20 -20 -20 -20 -20 -20 -20 -20 -20 -20 -20 -20 -20 -20 -20 -20 -20 -20 -20 -20
-20 -20 -11 2 1 -8 1 -5 -12 -11 -20 -20 -20 -20 -20 -20 -20 -20 -20 -20 -20 -20 -17 -20 -20 -20 -20 -20 -20 -20 -20 -20 -20 -20 -20 -20 -20 -20 -20 -20 -20 -20 -20 -20 -20 -20 -20 -20 -20 -20 -20 -20 -20 -20
1 -7 -11 -10 -10 -3 0 -3 -6 -19 -20 -20 -20 -20 -20 -20 -20 -20 -20 -20 -18 -18 -20 -20 -20 -20 -20 -20 -20 -20 -20 -20 -20 -20 -20 -20 -20 -20 -20 -20 -20 -20 -20 -20 -20 -20 -20 -20 -20 -20 -20 -20 -20 -20
-11 5 3 -4 -12 -17 -19 -20 -20 -20 -12 -1 -13 -20 -20 -20 -20 -20 -20 -20 -20 -20 -20 -20 -17 -18 -20 -20 -20 -20 -20 -20 -20 -20 -20 -20 -20 -20 -20 -20 -20 -20 -20 -20 -20 -20 -20 -20 -20 -20 -20 -20 -20 -20
14 13 0 -17 -11 -4 -1 -20 -20 -20 -18 -8 -4 3 -6 -12 -20 -20 -20 -20 -20 -20 -20 -20 -18 -3 -3 -13 -19 -20 -20 -20 -20 -20 -20 -20 -20 -20 -20 -20 -20 -20 -20 -20 -20 -20 -20 -20 -20 -20 -20 -20 -20 -20
8 -2 5 8 3 -17 -15 -3 2 5 5 0 -8 -18 -19 -20 -20 -20 -20 -20 -20 -20 -20 -20 -18 -19 -20 -20 -20 -20 -20 -20 -20 -20 -20 -20 -20 -20 -20 -20 -20 -20 -20 -20 -20 -20 -20 -20 -20 -20 -20 -20 -20 -20
-20 -20 -3 -15 -20 -20 -20 -20 -20 -20 -20 -20 -20 -20 -20 -20 -20 -20 -20 -19 -20 -20 -20 -20 -20 -20 -20 -20 -20 -20 -20 -20 -20 -20 -20 -20 -20 -20 -20 -20 -20 -20 -20 -20 -20 -20 -20 -20 -20 -20 -20 -20 -20 -20

GFSWCAN_prec_radar_120.txt.gz
Reflectivity
28 16 14 21 19 20 14 13 16 -6 2 -20 -20 -20 -20 -20 -20 -20 -20 -19 -20 -20 -20 -20 -20 -20 -20 -20 -20 -20 -20 -20 -20 -20 -20 -20 -20 -20 -20 -20 -14 -20 -7 -3 7 -20 -20 -20 -18 -20 -4 -20 -17 -20
13 11 9 14 22 23 13 15 19 -16 -3 -20 -20 -20 -20 -20 -20 -20 -20 -20 -20 -20 -20 -20 -20 -20 -20 -20 -20 -20 -20 -20 -20 -20 -20 -20 -20 -20 -20 -20 -20 -20 -20 -16 -3 -19 -20 -16 -18 -19 -20 -20 -20 -20
23 6 11 7 12 16 18 21 19 12 4 -20 -18 -20 -20 -20 -20 -20 1 -12 -20 -20 -20 -20 -20 -20 -20 -20 -20 -20 -20 -20 -20 -20 -20 -20 -20 -20 -20 -20 -20 -20 -20 -20 -20 3 -15 -20 -20 -20 -20 -20 -20 -20
18 26 23 -0 26 17 20 23 20 12 5 -8 4 -20 -20 -20 -20 -20 -14 -7 -20 -20 -20 -20 -20 -20 -20 -20 -20 -20 -20 -20 -20 -20 -20 -20 -20 -20 -20 -20 -20 -20 -20 -20 -1 6 -3 -20 -20 -20 -20 -20 -20 -20
19 21 23 19 28 16 18 23 15 9 2 -14 -20 12 -20 -20 -20 -20 -20 -20 -20 -20 -20 -20 -20 -20 -20 -20 -20 -20 -20 -20 -20 -20 -20 -20 -20 -20 -20 -20 -20 -20 -20 -20 -20 -20 -20 -20 -20 -20 -20 -20 -20 -20
21 18 30 24 20 16 18 15 7 14 12 4 11 13 -20 -20 -20 -20 -20 -20 -20 -20 -20 -20 -20 -20 -20 -20 -20 -20 -20 -20 -20 -20 -20 -20 -20 -20 -20 -20 -20 -20 -20 -20 -20 -20 -20 -20 -20 -20 -20 -20 -20 -20
6 10 14 19 14 3 22 23 17 17 0 -20 -9 -1 -20 -20 -20 -20 -20 -20 -20 -20 -20 -20 -20 -20 -20 -20 -20 -20 -20 -20 -20 -20 -20 -20 -20 -20 -20 -20 -20 -20 -20 -20 -20 -20 -20 -20 -20 -20 -20 -20 -20 -20
-1 7 7 17 9 15 29 24 17 6 16 -20 -18 -20 -20 -20 -20 -20 -20 -20 -20 -20 -20 -20 -20 -6 -20 -20 -20 -20 -20 -20 -20 -20 -20 -20 -20 -20 -20 -20 -20 -20 -20 -20 -20 -20 -20 -20 -20 -20 -20 -20 -20 -20
3 -20 -17 16 13 19 16 7 17 -5 -13 -20 -8 -8 -18 -20 -20 -16 7 -20 -20 -20 -20 -20 -20 -20 -20 -20 -20 -20 -20 -20 -20 -20 -20 -20 -20 -20 -20 -20 -20 -20 -20 -20 -20 -20 -20 -20 -20 -20 -20 -20 -20 -20
-20 -20 -20 -20 -20 6 12 10 22 16 -15 -20 -20 -20 -20 -20 14 -11 -20 -20 -20 -20 -20 -20 -20 -20 -20 -20 -20 -20 -20 -20 -20 -20 -20 -20 -20 -20 -20 -20 -20 -20 -20 -20 -20 -20 -20 -20 -20 -20 -20 -20 -20 -20
21 -10 -20 -20 -20 -20 -19 8 16 -9 -20 -17 -20 6 -20 17 -2 -20 -20 -20 -16 -20 -20 -20 -20 -20 -20 -20 -20 -20 -20 -20 -20 -20 -20 -20 -20 -20 -20 -20 -20 -20 -20 -20 -20 -20 -20 -20 -20 -20 -20 -20 -20 -20
17 -8 -20 -20 -20 -11 12 6 -2 -20 -20 -20 -18 11 15 -10 -10 -20 -20 3 -17 -20 -20 -20 -20 -20 -20 -20 -20 -20 -20 -20 -20 -20 -15 -20 -20 -20 -20 -20 -20 -20 -20 -20 -20 -20 -20 -20 -20 -20 -20 -20 -20 -20
28 -10 -20 -20 -20 -2 11 -16 -17 -5 -20 -12 3 -15 -20 -11 -20 -20 -20 -20 -20 -20 -20 -20 -20 -20 -20 -20 -20 -20 -20 -20 -20 -20 -20 -20 -20 -20 -20 -20 -20 -20 -20 -20 -20 -20 -20 -20 -20 -20 -20 -20 -20 -20
26 -9 -20 -20 -20 -1 12 -12 -20 -20 -20 -20 -20 -20 -20 -20 -20 -20 -20 -20 -20 -20 -20 -20 -20 -20 -20 -20 -20 -20 -20 -20 -20 -20 -20 -20 -20 -20 -20 -20 -20 -20 -20 -20 -20 -20 -20 -20 -20 -20 -20 -20 -20 -20
21 -20 -9 -20 -20 -20 15 -14 -20 -9 -20 -20 -20 -20 -20 -20 -20 -20 -20 -19 -10 -20 -20 -20 -20 -20 -20 -20 -20 -20 -20 -20 -20 -20 -20 -20 -20 -20 -20 -20 -20 -20 -20 -20 -20 -20 -20 -20 -20 -20 -20 -20 -20 -20
17 8 -20 -20 4 8 10 -13 -20 -20 -20 -20 -20 -20 -20 -18 -19 -20 -20 -10 -20 -20 -20 -20 -20 -20 -20 -20 -20 -20 -20 -20 -20 -20 -20 -20 -20 -20 -20 -20 -20 -20 -20 -20 -20 -20 -20 -20 -20 -20 -20 -20 -20 -20
-19 -20 -15 10 10 18 22 -20 -20 -20 -20 -20 -20 -20 -20 -20 -20 -19 -15 -20 -20 -20 -20 -20 -20 -20 -20 -20 -20 -20 -20 -20 -20 -20 -20 -20 -20 -20 -20 -20 -20 -20 -20 -20 -20 -20 -20 -20 -20 -20 -20 -20 -20 -20
-20 5 2 -20 -20 -14 -14 -4 -20 -20 -20 -20 -20 -20 -20 -20 -20 -20 -13 -17 -19 -20 -20 -20 -20 -20 -20 -20 -20 -20 -20 -20 -20 -20 -20 -20 -20 -20 -20 -20 -20 -20 -20 -20 -20 -20 -20 -20 -20 -20 -20 -20 -20 -20
-20 -16 -20 -20 -20 -20 -19 -17 -20 -20 -20 -20 -20 -20 -20 -20 -20 -20 -20 -12 -6 -18 -20 -20 -20 -20 -20 -20 -20 -20 -20 -20 -20 -20 -20 -20 -20 -20 -20 -20 -20 -20 -20 -20 -20 -20 -20 -20 -20 -20 -20 -20 -20 -20
-11 -20 -20 -20 -20 -20 -20 -20 -20 -20 -20 -20 -20 -20 -20 -20 -20 -20 -20 -20 21 30 6 -4 -20 -20 -20 -20 -20 -20 -20 -20 -20 -20 -20 -20 -20 -20 -20 -20 -20 -20 -20 -20 -20 -20 -20 -20 -20 -20 -20 -20 -20 -20
26 15 -20 -20 -20 -20 -20 -20 -20 -20 -20 -20 -20 -20 -20 -20 -20 -20 -20 -20 -20 -20 -20 -20 -20 -20 -20 -20 -20 -20 -20 -20 -20 -20 -20 -20 -20 -20 -20 -20 -20 -20 -20 -20 -20 -20 -20 -20 -20 -20 -20 -20 -20 -20
33 2 -18 -20 -20 -20 -20 -20 -20 -20 -20 -20 -20 -20 -20 -20 -20 -20 -20 -20 -20 -20 -20 -20 -20 -20 -20 -20 -20 -20 -20 -20 -20 -20 -20 -20 -20 -20 -20 -20 -20 -20 -20 -20 -20 -20 -20 -20 -20 -20 -20 -20 -20 -20
-15 -18 -16 -20 -20 -20 -20 -20 -20 -20 -20 -20 -20 -20 -20 -20 -20 -20 -20 -20 -20 -20 -20 -20 -20 -20 -20 -20 -20 -20 -20 -20 -20 -20 -20 -20 -20 -20 -20 -20 -20 -20 -20 -20 -20 -20 -20 -20 -20 -20 -20 -20 -20 -20
-20 -14 -20 -20 -20 -20 -20 -14 -17 -20 -20 -20 -20 -20 -20 -20 -20 -20 -20 -20 -20 -20 -20 -20 -20 -20 -20 -20 -20 -20 -20 -20 -20 -20 -20 -20 -20 -20 -20 -20 -20 -20 -20 -20 -20 -20 -20 -20 -20 -20 -20 -20 -20 -20
-19 -20 -20 -20 -20 -20 -20 8 14 -19 -20 -20 -20 -20 -20 -20 -20 -20 -20 -20 -20 -20 -20 -20 -20 -20 -20 -20 -20 -20 -20 -20 -20 -20 -20 -20 -20 -20 -20 -20 -20 -20 -20 -20 -20 -20 -20 -20 -20 -20 -20 -20 -20 -20
-20 -20 -20 -20 -20 -20 -20 -20 -20 -20 -20 -20 -20 -20 -20 -20 -20 -20 -20 -20 -20 -20 -20 -20 -20 -20 -20 -20 -20 -20 -20 -20 -20 -20 -20 -20 -20 -20 -20 -20 -20 -20 -20 -20 -20 -20 -20 -20 -20 -20 -20 -20 -20 -20
-20 -17 -16 -20 -20 -20 -20 -20 -20 -20 -20 -20 -20 -20 -20 -20 -20 -20 -20 -20 -20 -20 -18 -17 -20 -20 -20 -20 -20 -20 -20 -20 -20 -20 -20 -20 -20 -20 -20 -20 -20 -20 -20 -20 -20 -20 -20 -20 -20 -20 -20 -20 -20 -20
-20 -20 -20 -20 -14 -5 -9 -20 -19 -20 -20 -20 -20 -20 -20 -20 -20 -20 -20 -20 -20 -19 -17 -16 -20 -20 -20 -20 -20 -20 -20 -20 -20 -20 -20 -20 -20 -20 -20 -20 -20 -20 -20 -20 -20 -20 -20 -20 -20 -20 -20 -20 -20 -20
-20 -18 -16 -18 -1 -12 -12 -17 -15 -8 -5 -0 -18 -11 -20 -20 -20 -20 -20 -20 -20 -20 -20 -17 -20 -20 -20 -20 -20 -20 -20 -20 -20 -20 -20 -20 -20 -20 -20 -20 -20 -20 -20 -20 -20 -20 -20 -20 -20 -20 -20 -20 -20 -20
-13 -20 -20 -12 -9 -20 -20 -20 -20 -20 -20 -19 -19 -20 -20 -20 -20 -20 -20 -20 -20 -20 -20 -20 -20 -20 -18 -19 -20 -20 -20 -20 -20 -20 -20 -20 -20 -20 -20 -20 -20 -20 -20 -20 -20 -20 -20 -20 -20 -20 -20 -20 -20 -20
4 -2 3 7 11 -16 -20 -20 -20 -20 -20 -20 -20 -20 -20 -20 -18 -11 -15 -20 -20 -20 -20 -20 -20 -20 -19 -17 -17 -19 -20 -20 -20 -20 -20 -20 -20 -20 -20 -20 -20 -20 -20 -20 -20 -20 -20 -20 -20 -20 -20 -20 -20 -20
3 8 13 14 7 -7 -3 -5 -8 -14 -20 -20 -20 -20 -7 3 5 7 3 -10 -20 -20 -20 -20 -20 -20 -19 -19 -20 -20 -20 -20 -20 -20 -20 -20 -20 -20 -20 -20 -20 -20 -20 -20 -20 -20 -20 -20 -20 -20 -20 -20 -20 -20
-7 -5 -2 -0 -19 -7 1 2 -2 -11 -20 -20 -19 -20 -20 -20 -20 -20 -20 -20 -20 -20 -20 -20 -20 -20 -20 -20 -20 -20 -20 -20 -20 -20 -20 -20 -20 -20 -20 -20 -20 -20 -20 -20 -20 -20 -20 -20 -20 -20 -20 -20 -20 -20

GFSWCAN_prec_radar_123.txt.gz
Reflectivity
19 18 8 18 17 19 22 17 -11 -13 7 -20 -20 -20 -20 -20 -20 -13 -19 -20 -20 -20 -20 -20 -20 -20 -20 -20 -20 -20 -20 -20 -20 -20 -20 -20 -20 -20 -20 -20 -20 -20 -20 -20 4 -18 -5 -20 0 -20 -5 -12 -20 -20
21 14 12 19 32 22 16 19 -11 -3 9 -19 -20 -20 -20 -20 -20 -20 -20 -20 -20 -20 -20 -20 -20 -20 -20 -20 -20 -20 -20 -20 -20 -20 -20 -20 -20 -20 -20 -20 -20 -20 -20 -20 -20 -9 -20 -20 -20 -20 -20 -20 -5 -20
14 12 7 9 15 11 11 28 21 5 2 -20 -20 -20 -20 -20 -20 -20 -20 -20 -20 -20 -20 -20 -20 -20 -20 -20 -20 -20 -20 -20 -20 -20 -20 -20 -20 -20 -20 -20 -8 -20 -20 -20 -20 -2 -20 -20 -20 -20 -20 -20 -20 -20
9 -12 -3 14 23 19 11 22 8 4 6 -15 -20 -20 -20 -20 -20 -20 -20 -20 -20 -20 -20 -20 -20 -20 -20 -20 -20 -20 -20 -20 -20 -20 -20 -20 -20 -20 -20 -20 -20 -20 -20 -13 2 3 -20 -20 -20 -20 -20 -20 -20 -20
2 -17 -19 -9 -5 11 15 20 -10 -17 4 -8 -20 -20 -20 -20 -20 -20 -20 -20 -20 -20 -20 -10 -20 -20 -20 -20 -20 -20 -20 -20 -20 -20 -20 -20 -20 -20 -20 -20 -20 -20 -20 -20 -20 -20 -20 -20 -20 -20 -20 -20 -20 -20
31 6 16 4 14 16 21 24 -1 -14 6 -19 -20 -20 -20 -20 -20 -20 -20 -20 -20 -20 -20 -20 -20 -20 -20 -20 -20 -20 -20 -20 -20 -20 -20 -20 -20 -20 -20 -20 -20 -20 -20 -20 -20 -20 -20 -20 -20 -20 -20 -20 -20 -20
11 16 24 7 17 20 23 5 2 16 16 18 -11 -20 -20 -20 -20 -14 -16 -20 -20 -20 -20 -20 -9 -20 -20 -20 -20 -20 -20 -20 -20 -20 -20 -20 -20 -20 -20 -20 -20 -20 -20 -20 -20 -20 -20 -20 -20 -20 -20 -20 -20 -20
21 12 8 18 25 24 17 -5 5 14 14 -20 -20 -20 -20 -20 -20 -20 -20 -20 -20 -20 -20 -20 -17 -20 -20 -20 -20 -20 -20 -20 -20 -20 -20 -20 -20 -20 -20 -20 -20 -20 -20 -20 -20 -20 -20 -20 -20 -20 -20 -20 -20 -20
13 18 22 26 27 20 15 6 2 16 -20 -20 -0 -19 -20 -20 -20 -20 -20 -20 -20 -20 -20 -20 -20 -20 -20 -20 -20 -20 -20 -20 -20 -20 -20 -20 -20 -20 -20 -20 -20 -20 -20 -20 -20 -20 -20 -20 -20 -20 -20 -20 -20 -20
7 6 12 16 21 29 16 1 12 -4 -20 -20 -20 -20 -20 -20 -20 -20 -20 -20 -20 -20 -20 -20 -20 -20 -20 -20 -20 -20 -20 -20 -20 -20 -20 -20 -20 -20 -20 -20 -20 -20 -20 -20 -20 -20 -20 -20 -20 -20 -20 -20 -20 -20
9 7 -10 11 23 25 7 9 14 -2 -9 -20 -20 -18 5 -20 -20 -20 -20 -20 -20 -20 -20 -20 -20 -20 -20 -20 -20 -20 -20 -20 -20 -20 -20 -20 -20 -20 -20 -20 -20 -20 -20 -20 -20 -20 -20 -20 -20 -20 -20 -20 -20 -20
11 12 8 12 23 21 16 13 3 -20 -20 -20 -18 18 -4 -15 -19 -20 -20 -8 -20 -20 -20 -20 -20 -20 -20 -20 -20 -20 -20 -20 -20 -20 -20 -20 -20 -20 -20 -20 -20 -20 -20 -20 -20 -20 -20 -20 -20 -20 -20 -20 -20 -20
11 6 -20 -19 4 12 19 7 7 -7 -20 -19 -16 -20 -20 -19 -20 -20 -20 -20 -20 -20 -20 -20 -20 -20 -20 -20 -20 -20 -20 -20 -20 -20 -20 -20 -20 -20 -20 -20 -20 -20 -20 -20 -20 -20 -20 -20 -20 -20 -20 -20 -20 -20
-20 -20 -20 -15 12 16 18 2 -19 -20 -17 -20 -20 -20 -20 -20 -20 -20 -20 -20 -20 -20 -20 -20 -20 -20 -20 -20 -20 -20 -20 -20 -20 -20 -20 -20 -20 -20 -20 -20 -20 -20 -20 -20 -20 -20 -20 -20 -20 -20 -20 -20 -20 -20
-20 -20 -3 20 8 8 10 -20 -20 -20 -20 -20 -20 -20 -20 -20 -20 -20 -20 -20 -20 -20 -20 -20 -20 -20 -20 -20 -20 -20 -20 -20 -20 -20 -20 -20 -20 -20 -20 -20 -20 -20 -20 -20 -20 -20 -20 -20 -20 -20 -20 -20 -20 -20
-5 3 -18 11 12 -6 -20 -20 -20 -19 -20 -20 -20 -20 -20 -20 -20 -20 -20 -20 -20 -20 -20 -20 -20 -20 -20 -20 -20 -20 -20 -20 -20 -20 -20 -20 -20 -20 -20 -20 -20 -20 -20 -20 -20 -20 -20 -20 -20 -20 -20 -20 -20 -20
-20 10 17 12 -18 -11 -20 -20 -20 -20 -20 -20 -20 -20 -20 -20 -8 -20 -20 -20 -20 -20 -20 -20 -20 -20 -20 -20 -20 -20 -20 -20 -20 -20 -20 -20 -20 -20 -20 -20 -20 -20 -20 -20 -20 -20 -20 -20 -20 -20 -20 -20 -20 -20
-9 11 -5 -20 -20 -20 -20 -20 -20 -20 -20 -20 -20 -20 -18 -20 -18 -18 -20 -20 -20 -20 -20 -20 -20 -20 -20 -20 -20 -20 -20 -20 -20 -20 -20 -20 -20 -20 -20 -20 -20 -20 -20 -20 -20 -20 -20 -20 -20 -20 -20 -20 -20 -20
-14 -20 -20 -20 -20 -20 -20 -20 -20 -20 -20 -20 -20 -20 -20 -20 -20 -13 -20 -11 -19 -20 -20 -20 -20 -20 -20 -20 -20 -20 -20 -20 -20 -20 -20 -20 -20 -20 -20 -20 -20 -20 -20 -20 -20 -20 -20 -20 -20 -20 -20 -20 -20 -20
-20 -20 -20 -20 -20 -20 -20 -20 -20 -20 -20 -20 -20 -20 -20 -20 -20 -20 -20 -19 -3 -6 -20 -20 -20 -20 -20 -20 -20 -20 -20 -20 -20 -20 -20 -20 -20 -20 -20 -20 -20 -20 -20 -20 -20 -20 -20 -20 -20 -20 -20 -20 -20 -20
-20 -20 -20 -20 -20 -20 -20 -20 -20 -20 -20 -20 -20 -20 -20 -20 -20 -20 -20 -20 -3 -20 11 -19 -20 -20 -20 -20 -20 -20 -20 -20 -20 -20 -20 -20 -20 -20 -20 -20 -20 -20 -20 -20 -20 -20 -20 -20 -20 -20 -20 -20 -20 -20
-19 -20 -20 -20 -20 -20 -20 -20 -20 -20 -20 -20 -20 -20 -20 -20 -20 -20 -20 -20 -20 -20 -20 -20 -20 -20 -20 -20 -20 -20 -20 -20 -20 -20 -20 -20 -20 -20 -20 -20 -20 -20 -20 -20 -20 -20 -20 -20 -20 -20 -20 -20 -20 -20
-20 -20 -20 -20 -20 -20 -20 -20 -20 -20 -20 -20 -20 -20 -20 -20 -20 -20 -20 -20 -20 -20 -20 -20 -20 -20 -20 -20 -20 -20 -20 -20 -20 -20 -20 -20 -20 -20 -20 -20 -20 -20 -20 -20 -20 -20 -20 -20 -20 -20 -20 -20 -20 -20
-20 -20 -20 -20 -20 -20 -20 -12 -16 -20 -20 -19 -20 -20 -20 -20 -20 -20 -20 -20 -20 -20 -20 -20 -20 -20 -20 -20 -20 -20 -20 -20 -20 -20 -20 -20 -20 -20 -20 -20 -20 -20 -20 -20 -20 -20 -20 -20 -20 -20 -20 -20 -20 -20
-20 -20 -20 -20 -20 -20 -20 -20 -10 -20 -20 -20 -20 -20 -20 -20 -20 -20 -20 -20 -20 -20 -20 -20 -20 -20 -20 -20 -20 -20 -20 -20 -20 -20 -20 -20 -20 -20 -20 -20 -20 -20 -20 -20 -20 -20 -20 -20 -20 -20 -20 -20 -20 -20
-20 -20 -20 -20 -20 -20 -20 -20 -20 -20 -20 -20 -20 -20 -20 -20 -20 -20 -20 -20 -20 -20 -20 -20 -20 -20 -20 -20 -20 -20 -20 -20 -20 -20 -20 -20 -20 -20 -20 -20 -20 -20 -20 -20 -20 -20 -20 -20 -20 -20 -20 -20 -20 -20
-20 -20 -20 -20 -20 -20 -20 -20 -20 -20 -20 -20 -20 -20 -20 -20 -20 -20 -20 -20 -20 -20 -19 -18 -18 -18 -20 -20 -20 -20 -20 -20 -20 -20 -20 -20 -20 -20 -20 -20 -20 -20 -20 -20 -20 -20 -20 -20 -20 -20 -20 -20 -20 -20
-20 -20 -20 -20 -20 -20 -20 -20 -20 -20 -20 -20 -20 -20 -20 -20 -20 4 -3 -20 -20 -20 -20 -20 -18 -19 -20 -20 -20 -20 -20 -20 -20 -20 -20 -20 -20 -20 -20 -20 -20 -20 -20 -20 -20 -20 -20 -20 -20 -20 -20 -20 -20 -20
-20 -20 -20 -20 -20 -16 -20 -20 -20 -20 -20 -2 -6 -8 -13 -18 -0 -10 -20 -20 -20 -20 -20 -20 -20 -20 -20 -20 -19 -20 -20 -20 -20 -20 -20 -20 -19 -17 -18 -19 -20 -20 -20 -20 -20 -20 -20 -20 -20 -20 -20 -20 -20 -20
-20 -20 -20 -17 -8 -16 -20 -14 -20 -20 -20 -20 -20 -20 -20 -20 -20 -20 -20 -20 -20 -20 -20 -20 -20 -20 -18 -17 -19 -20 -20 -20 -20 -20 -20 -20 -19 -18 -20 -20 -20 -20 -20 -20 -20 -20 -20 -20 -20 -20 -20 -20 -20 -20
-18 -20 -20 -20 -20 -20 -20 -20 -19 -20 -20 -20 -20 -20 -20 -20 -20 -20 -20 -20 -20 -20 -20 -20 -20 -20 -20 -17 -17 -20 -20 -20 -20 -20 -20 -20 -20 -20 -20 -20 -20 -20 -20 -20 -20 -20 -20 -20 -20 -20 -20 -20 -20 -20
-4 3 -7 -18 -20 -19 -16 -20 -20 -20 -20 -20 -20 -20 -20 -20 -20 -20 -20 -20 -20 -20 -20 -20 -20 -16 -20 -20 -20 -20 -20 -20 -20 -20 -20 -20 -20 -20 -20 -20 -20 -20 -20 -20 -20 -20 -20 -20 -20 -20 -20 -20 -20 -20
-7 -16 -20 -20 -13 -2 -10 -12 -20 -18 -19 -20 -20 -19 -18 -13 -17 -5 5 5 4 4 -5 -7 -12 -20 -20 -20 -20 -20 -20 -20 -20 -20 -20 -20 -20 -20 -20 -20 -20 -20 -20 -20 -20 -20 -20 -20 -20 -20 -20 -20 -20 -20

GFSWCAN_prec_radar_129.txt.gz
Reflectivity
18 34 27 21 -20 -11 9 18 -20 -7 17 22 14 9 12 -7 -11 -20 -20 -20 -20 -20 -20 -20 -20 -20 -20 -20 -20 -20 -20 -20 -20 -20 -20 -20 -8 -20 -8 -20 -20 4 10 1 7 15 16 -20 -10 1 -12 -20 -20 -20
9 29 25 19 4 27 15 8 -20 6 12 11 10 -15 15 -4 -20 -20 -20 -20 -20 -20 -18 -20 -20 -20 -20 -20 -20 -20 -20 -20 -20 -20 -20 -20 -20 -20 -20 3 -20 -9 -18 17 -19 -5 -20 -18 3 -20 -20 -20 -20 -20
11 28 14 7 24 16 17 -20 -20 4 13 -7 -20 -19 -16 -20 -20 -16 -20 -20 -20 -20 -20 -20 -20 -20 -20 -20 -20 -20 -20 -20 -20 -20 -20 -19 -3 -20 -7 -13 -16 -20 -20 -20 -16 -2 -9 -20 -8 -20 -20 -20 -20 -20
31 36 8 11 7 20 15 -20 -20 3 -20 -20 -15 9 -16 -20 -20 -20 -20 -20 -20 -20 -20 -20 -20 -20 -20 -20 -20 -20 -20 -20 -20 -20 -20 -20 -4 -20 -10 -2 -9 -9 -20 -20 -5 -20 -14 -5 2 1 -1 -20 -20 -20
25 26 -3 28 6 14 20 -20 -20 -20 -20 -7 2 -20 -20 -20 -19 -15 -19 -20 -20 -20 -13 4 -19 -20 -20 -20 -20 -20 -20 -20 -20 -20 -20 -20 -20 -17 -20 -20 4 -20 -17 -4 5 -20 -20 -20 -20 -19 -14 -17 -20 -20
34 17 -16 8 19 17 24 -20 -20 -20 -10 -20 -20 -20 -20 -20 -6 -20 17 -20 -20 -20 -17 7 1 1 -20 -20 -20 -20 -20 -20 -20 -20 -20 -20 -20 -16 1 3 -19 -20 -20 -20 -20 -20 -20 -20 -20 -20 -20 -20 -20 -20
29 15 11 16 29 2 18 -1 -20 -16 -20 -20 -20 -20 -20 -6 -20 -20 -20 -20 -20 -20 -17 3 5 3 -20 -20 -20 -20 -20 -20 -20 -20 -20 -20 -20 -20 2 -1 -20 -20 -20 -20 -20 -20 -19 -20 -20 -20 -20 -20 -20 -20
32 10 -4 9 1 -4 -20 18 16 2 -20 -20 -20 -20 -11 -8 -20 -20 -20 -20 -20 -20 -20 2 11 1 -20 -20 -20 -20 -20 -20 -20 -20 -20 -20 -20 -20 -20 -12 -20 -20 -20 -20 -20 -20 -20 -20 -20 -20 -20 -20 -20 -20
4 -8 17 15 -15 -20 -20 -15 5 -13 -20 -20 -20 -19 -10 -20 -14 -20 -20 -20 -20 -20 -17 5 -4 11 -20 -9 -19 -20 -20 -20 -20 -9 -6 -20 1 -20 -20 -20 -20 -20 -20 -20 -20 -20 -20 -20 -20 -20 -20 -20 -20 -20
-4 -19 -4 -20 -20 -20 -20 21 20 -20 -20 -20 -20 -20 14 -6 -20 -20 -20 -20 -20 -20 -20 3 3 3 -14 -20 -17 -20 -20 -20 -17 -0 -20 -19 -20 -20 -20 -20 -20 -20 -20 -20 -20 -20 -20 -20 -20 -20 -20 -20 -20 -20
0 2 -16 -13 -11 -20 6 23 2 -20 -20 -20 -20 -0 3 -20 -20 -20 -6 -5 -20 -20 -19 -4 2 -6 -20 -1 -20 -20 -3 -20 -3 -3 -4 1 -20 -20 -20 -20 -20 -20 -17 -20 -20 -20 -20 -20 -20 -20 -20 -20 -20 -20
-0 1 -20 -17 -20 -20 -18 -20 -13 -13 -20 -20 -20 -9 -17 -10 -20 -18 -20 -20 -20 -20 -18 2 0 -11 -20 -20 -20 -20 -11 -15 -1 -14 -4 -10 -19 -20 -20 -20 -20 -20 -20 -20 -20 -20 -20 -20 -20 -20 -20 -20 -20 -20
19 5 -4 0 -6 -11 -20 -10 -14 3 4 3 5 8 4 -12 -20 -20 -20 -20 -5 -7 -9 -9 -10 -20 -20 -9 -12 -20 -2 0 -20 -4 -17 -19 -20 -20 -20 -20 -20 -20 -20 -20 -20 -20 -20 -20 -20 -20 -20 -20 -20 -20
14 24 20 11 5 -20 -20 -17 -20 -1 14 4 4 -16 -2 -19 -18 -16 -18 -19 -5 -6 -6 5 -4 4 -1 -4 -18 -2 -2 -10 0 -6 -20 -18 -20 -20 -20 -20 -20 -20 -20 -20 -20 -20 -20 -20 -20 -20 -20 -20 -20 -20
13 7 7 -20 -20 -16 -20 -20 -20 -15 -20 -3 -20 -14 -4 -1 -11 -12 -11 -10 -14 3 5 -8 -20 -10 -8 -20 -8 -20 -14 -13 -20 -20 5 -20 -20 -20 -20 -20 -20 -20 -20 -20 -20 -20 -20 -20 -20 -20 -20 -20 -20 -20
6 6 8 -20 -20 -20 -20 -20 -20 -20 -20 -9 -13 3 3 9 9 3 9 -15 -18 10 1 -20 -20 -20 -20 -14 -20 -20 -20 -20 -6 3 -16 -20 -20 -20 -20 -20 -3 -20 -20 -20 -20 -20 -20 -20 -20 -20 -20 -20 -20 -20
16 20 -16 -20 -20 -20 -8 -14 -20 -20 -20 -0 8 2 8 12 11 -3 -3 3 -20 3 -15 -20 -20 -20 -20 -20 -20 -20 -20 -13 -20 -20 -20 -19 -20 -20 -12 -2 -20 -20 -20 -20 -20 -20 -20 -20 -20 -20 -20 -20 -20 -20
-6 -12 -20 -20 -20 -20 -20 -20 -20 -20 -1 -1 14 5 1 -3 4 0 10 1 -2 10 -20 -20 -20 -20 -20 -20 -20 -20 -20 -20 -20 -20 -20 -20 -20 -20 -20 -18 -20 -20 -20 -20 -20 -20 -20 -20 -20 -20 -20 -20 -20 -20
-20 -20 -20 -20 -20 -20 -0 -20 -20 -20 5 5 7 5 3 4 -1 -4 -20 -6 14 -20 -20 -20 -20 -20 -20 -12 -18 -13 -20 -20 -20 -20 -20 -20 -20 -20 -20 -20 -20 -20 -20 -20 -20 -20 -20 -20 -20 -20 -20 -20 -20 -20
-20 -20 -20 -20 -20 -20 -20 -20 -20 -20 6 4 3 -2 -15 -6 -4 5 1 -18 -20 -20 -20 -7 16 11 -1 -0 -1 -20 -20 -20 -20 -20 -20 -20 -20 -20 -20 -20 -20 -20 -20 -20 -20 -20 -20 -20 -20 -20 -20 -20 -20 -20
-20 -20 -20 -20 -20 -20 -20 -20 -20 -20 -20 1 -20 -20 -20 -20 11 4 -4 -20 -19 17 -12 -7 -15 -3 -20 -6 -20 -20 -20 -20 -20 -20 -20 -20 -20 -20 -20 -20 -20 -20 -20 -20 -20 -20 -20 -20 -20 -20 -20 -20 -20 -13
-20 -20 -20 -20 -20 -20 -16 -7 -14 -20 -16 -20 -20 -20 -20 -4 -15 -20 -20 -15 4 -12 -20 -20 -20 -20 -20 -20 -20 -20 -20 -20 -20 -20 -20 -20 -20 -20 -20 -20 -20 -20 -20 -20 -20 -20 -18 -20 -20 -20 -4 -0 -2 3
-20 -20 -20 -20 -20 -20 -20 -7 -8 -20 -20 -20 -20 -20 -20 -20 -20 -20 -20 -20 -20 -20 -20 -20 -20 -20 -20 -20 -20 -20 -20 -20 -20 -20 -20 -20 -20 -20 -20 -20 -20 -20 -20 -10 -13 6 -10 -20 -20 -2 0 3 -3 -3
-20 -20 -20 -20 -20 -11 -20 -0 -20 -20 -20 -8 -5 -20 -19 -20 -20 -20 -20 -20 -19 -20 -20 -20 -20 -20 -20 -20 -20 -20 -20 -20 -20 -20 -20 -20 -20 -20 -20 -20 -20 -20 -20 -19 -19 5 -8 -2 -18 -0 -2 3 -11 7
-20 -20 -20 -20 -20 -20 1 -2 -0 -7 -19 -16 -11 -0 7 -14 -9 -19 -20 -13 -19 -18 -6 -8 -19 -20 -20 -7 -20 -20 -20 -20 -20 -20 -20 -20 -20 -20 -20 -19 -20 -20 -8 4 4 4 2 1 1 -4 -19 9 7 10
-20 -20 -20 -20 -20 -20 -20 3 4 2 1 -5 -9 -10 -9 -20 -5 -1 -8 -15 -9 -16 -6 -5 -17 -15 5 -20 -20 -20 -20 -20 -20 -19 -20 -20 -20 -5 -20 -13 -11 -6 -8 -1 -20 -15 -20 2 5 -10 7 -5 -8 0
-20 -20 -20 -20 -20 -20 -3 -10 -2 6 7 4 3 -12 4 0 1 -17 -19 -11 -20 -15 -8 -20 -20 -20 -20 -20 -20 -20 -20 -20 -20 -20 -20 -20 -20 -20 -11 9 6 -18 -20 -13 6 6 0 6 6 5 1 2 1 1
-20 -10 -20 -7 -13 -9 -2 -14 -2 6 14 3 11 -14 9 12 -3 -16 -6 -7 -5 -20 -15 -20 -20 -20 -20 -20 -18 -9 -7 -20 -20 -20 -20 -20 -3 -7 -20 -11 -20 -20 -20 -16 8 7 4 4 -2 -5 -20 -7 -4 -13
-20 -14 -6 -20 -19 -8 -3 7 15 -19 -20 -20 -2 16 -20 -20 -5 -3 -6 -3 -6 -9 -16 -6 -6 -13 -6 -6 -18 1 4 8 5 4 4 -1 -3 -4 3 2 -1 -4 -12 -20 -20 -20 -20 -20 -20 -15 -20 -20 -8 -20
-20 -2 2 -2 -20 -13 -19 -20 -20 -8 -20 -18 -17 -20 -20 -10 -2 -3 -4 -5 -1 -3 -8 -16 -20 3 2 0 -3 -2 -7 -6 -14 0 11 2 -3 1 1 1 -2 -9 -15 -20 -20 -20 -20 -20 -20 -20 -20 -20 -20 -20
-2 -20 -1 2 -2 -20 -12 -16 -6 -5 -5 -10 -7 -3 -7 -4 -1 -2 -3 -3 -5 -7 -1 -4 -3 -4 4 6 7 5 -20 -20 -20 -18 -20 -9 -2 -2 -13 -20 -20 -20 -20 -20 -20 -20 -20 -20 -20 -20 -20 -20 -20 -20
1 7 6 0 -1 -5 -5 -5 1 0 -5 -2 0 -3 -3 -2 1 -2 -2 -20 6 -2 -20 -2 -14 -20 -9 -19 -20 -20 -20 -3 -4 -1 -18 -18 -20 -20 -20 -20 -20 -20 -20 -20 -20 -20 -20 -20 -20 -20 -20 -20 -20 -20
-5 -2 -20 -20 -20 -8 -2 -1 -0 -0 1 1 -1 0 -2 -2 -19 -5 -6 -13 -19 -19 -20 -20 -17 -19 -15 -19 -20 -20 -20 -18 -20 -20 -20 -20 -20 -20 -20 -20 -20 -20 -20 -20 -20 -20 -20 -20 -20 -20 -20 -20 -20 -20

GFSWCAN_prec_radar_135.txt.gz
Reflectivity
-3 -20 -10 18 -12 37 15 14 -20 -12 -8 -6 2 20 17 20 27 9 -14 5 20 25 4 19 16 27 25 21 16 2 17 6 1 -20 7 -20 -20 8 -1 -13 -20 -20 -20 -20 -20 -7 10 -20 -20 -20 -20 -20 -20 -20
-20 -20 9 -13 -4 35 18 14 10 -20 -12 -2 17 15 21 30 24 21 29 25 35 -8 16 8 20 29 23 -0 9 14 7 9 -19 -20 -20 -20 -20 -18 -19 -14 6 -7 -20 -20 -20 -20 -20 -20 -20 -20 -20 -20 -20 -20
-20 1 -11 10 4 28 20 11 -7 -2 -20 -18 26 20 25 26 25 35 27 35 25 20 28 17 26 -4 -19 3 -2 -11 -13 -18 -20 -20 -20 -20 -20 -20 -20 -20 -20 -20 -20 -20 -20 -20 -20 -20 -20 -20 -20 -20 -20 -20
-20 8 -18 13 31 17 15 3 -12 -20 -20 -15 29 6 10 15 5 16 26 18 15 -17 19 28 -20 -6 -5 -20 -20 -18 5 -2 1 -20 -20 -20 -20 -20 -20 -20 -20 -20 -20 -20 -20 -20 -20 -20 -20 -20 -20 -20 -20 -20
-10 -12 18 19 35 18 7 12 -12 -20 -4 13 22 -20 17 18 19 21 15 -12 -20 -15 17 11 -15 -20 -20 -20 -20 -20 -20 -19 -20 -20 -20 -20 -20 -20 -20 -20 -20 -20 -20 -20 -20 -20 -20 -20 -20 -20 -20 -20 -20 -20
15 7 10 32 35 16 18 -16 -20 -14 0 9 1 -20 6 26 31 10 -20 -19 -20 -11 -19 -20 -20 -20 -20 -20 -20 -20 -20 -20 -20 -20 -20 -20 -20 -20 -20 -20 -20 -20 -20 -20 -20 -20 -20 -20 -20 -20 -20 -20 -20 -20
-5 3 35 27 15 15 -7 -20 -18 -13 -2 19 -19 -10 14 1 -20 -20 -19 -15 -20 -20 -20 -20 -11 -16 -20 -20 -20 -20 -20 -20 -20 -20 -20 -20 -20 -20 -20 -20 -20 -20 -20 -20 -20 -20 -20 -20 -20 -20 -20 -20 -20 -20
4 36 27 24 25 -14 -20 -20 -20 -19 10 16 -20 -19 -3 -20 -20 -17 -20 -20 -20 -20 -20 -20 3 -20 -20 -20 -20 -20 -20 -20 -20 -20 -20 -20 -20 -20 -20 -20 -20 -20 -20 -20 -20 -20 -20 -20 -20 -20 -20 -20 -20 -20
28 28 26 2 -3 -20 -20 -20 -20 11 21 -3 -20 -20 1 1 -14 -20 -20 -20 -20 -20 -20 -20 -20 -20 -20 -14 -20 -20 -20 -20 -20 -20 -20 -20 -20 -20 -20 -20 -20 -20 -20 -20 -20 -20 -20 -20 -20 -20 -20 -20 -20 -20
31 14 25 21 -8 -20 -20 -20 -20 -8 -20 -20 -20 -15 19 -7 -20 -20 -20 -20 -20 -20 -20 -19 -20 -20 -20 -20 -20 -20 -20 -20 -20 -20 -20 -20 -20 -20 -20 -20 -20 -20 -20 -20 -20 -20 -20 -20 -20 -20 -20 -20 -20 -20
0 10 19 19 16 -20 8 -20 -20 -20 -20 -20 -20 -5 -1 -20 -20 -20 -20 -20 -20 -20 -20 -10 -20 -20 -20 -20 -20 -20 -20 -20 -20 -20 -20 -20 -20 -20 -20 -20 -20 -20 -20 -20 -20 -20 -20 -20 -20 -20 -20 -20 -20 -20
21 17 -1 -2 4 -3 7 -19 -3 -20 -20 -20 -15 5 -19 -20 -20 -20 -20 -20 -20 -20 -20 -20 -20 -20 -20 -20 -20 -20 -20 -20 -20 -20 -20 -20 -20 -20 -20 -20 -20 -20 -20 -20 -20 -20 -20 -20 -20 -20 -20 -20 -20 -20
14 -20 5 -18 8 9 -19 -20 -20 -5 -20 -20 -16 -11 -20 -19 -20 -20 -20 -20 -20 -20 -20 -20 -20 -20 -20 -20 -20 -20 -20 -20 -20 -20 -20 -20 -20 -20 -20 -20 -20 -20 -20 -20 -20 -20 -20 -20 -20 -20 -20 -20 -20 -20
-20 -18 12 17 14 9 22 -3 -19 -20 -20 -20 -20 -20 8 -20 -20 -20 -20 -20 -20 -20 -20 -20 -20 -20 -20 -20 -20 -20 -20 -20 -20 -20 -20 -20 -20 -20 -20 -20 -20 -20 -20 -20 -20 -20 -20 -20 -20 -20 -20 -20 -20 -20
-0 -4 8 16 -3 -20 -20 -20 -20 -20 -20 -20 -20 -20 -20 -16 -20 -20 -20 -20 -20 -20 -20 -20 -20 -20 -20 -20 -20 -20 -20 -20 -20 -20 -20 -20 -20 -20 -20 -20 -20 -20 -20 -20 -20 -20 -20 -20 -20 -20 -20 -20 -20 -20
-19 -20 -20 -12 -20 -20 -20 -20 -20 -20 -20 -20 -20 -10 -20 -20 -20 -20 -20 -20 -20 -20 -20 -20 -20 -20 -20 -20 -20 -20 -20 -20 -20 -20 -20 -20 -20 -20 -20 -20 -20 -20 -20 -20 -20 -20 -20 -20 -20 -20 -20 -20 -20 -20
-20 -20 -20 -20 -20 -20 -20 -20 -20 -20 -20 -20 -19 -16 7 -17 -20 -3 -20 -20 -20 -20 -20 -20 -20 -20 -20 -20 -20 -20 -20 -19 -20 -20 -20 -20 -20 -20 -20 -20 -20 -20 -20 -20 -20 -20 -20 -20 -20 -20 -20 -20 -20 -20
-20 -20 -17 -20 -16 -20 -20 -20 -20 -20 -20 -12 -18 -9 -20 -20 -20 -20 -20 -20 -20 -20 -20 -20 -20 -20 -20 -20 -20 -20 -20 -20 -20 -20 -20 -20 -15 3 -8 -19 -16 -20 -20 -20 -20 -20 -20 -20 -20 -20 -20 -20 -20 -20
-20 -20 -20 -20 -20 -20 -20 -20 -20 -20 -9 -5 -5 -14 -14 -20 -20 -20 -20 -20 -20 -20 -20 -20 -20 -20 -3 -20 -18 -13 -20 -20 -20 -20 -20 -13 -3 4 -13 -4 6 -4 -20 -20 -20 -20 -20 -20 -20 -20 -20 -20 -20 -20
-20 -20 -20 -20 -20 -20 -20 -20 -20 -20 -6 -5 7 -18 -19 -10 -8 -4 -20 -20 -20 -17 14 -14 -20 -20 -20 -20 -20 -20 -20 -20 -20 -20 -20 -20 -6 9 -2 3 -1 3 3 10 -20 -10 -20 -20 -20 -20 -20 -20 -20 -20
-20 -20 -20 -20 -20 -20 -20 -20 -20 -20 -20 -20 -20 -20 14 17 19 24 2 -20 -20 11 -5 -15 -17 -0 -20 -20 -20 -20 -20 -20 -20 -20 -20 -20 -20 -20 -13 -20 -20 3 -20 -20 -20 -20 -20 -20 -20 -20 -20 -20 -20 -20
-20 -20 -20 -20 -20 -20 -20 -20 -20 -20 -20 -20 -20 -20 -20 -7 -20 -13 -20 -20 -16 -6 -20 -20 -20 -20 -20 -20 -20 -20 -20 -20 -20 -20 -20 -20 -20 -20 -20 2 9 -18 -20 -20 -20 -20 -20 -20 -20 -20 -20 -20 -20 -20
-20 -20 -20 -20 -20 -20 -20 -20 -20 -20 -20 -20 -20 -20 -12 -20 -20 -20 -5 -20 2 2 -20 -20 -20 -20 -20 -20 -20 -20 -20 -20 -20 -20 -20 -20 -20 -20 -20 -13 -9 -20 -19 -20 -20 -20 -20 -20 -20 -20 -20 -20 -20 -20
-20 -20 -20 -20 -20 -20 -20 -20 -20 -20 -20 -20 -20 -20 -20 -20 -20 -20 -16 -18 -20 -20 -20 -20 -20 -20 -20 -20 -20 -20 -20 -20 -20 -20 -20 -20 -20 -20 -20 -20 -20 -20 -20 -20 -20 -20 -20 -20 -20 -20 -20 -20 -20 -20
-20 -20 -20 -20 -20 -20 -20 -20 -20 -20 -20 -20 -20 -20 -20 -20 -20 -20 -20 -12 -19 -20 -20 -20 -20 -20 -20 -20 -20 -20 -20 -20 -20 -20 -20 -20 -20 -20 -20 -20 -20 -20 -20 -20 -20 -20 -20 -20 -20 -19 -20 -20 -18 -15
-20 -20 -20 -20 -20 -20 -13 -20 -20 -20 -20 -20 -20 -20 -20 -20 -20 -20 -20 -18 -20 -20 -20 -20 -20 -17 -20 -20 -20 -20 -20 -20 -18 -20 -20 -20 -20 -20 -20 -20 -20 -20 -20 -19 -20 -20 -20 -20 -9 -20 -1 0 -18 -20
-20 -20 -20 -20 -20 -20 -20 -20 -20 -20 -20 -20 -20 -20 -20 -20 -20 -20 -20 -20 -20 -20 -20 -20 -20 -18 -20 -20 -20 -20 -20 -20 -20 -20 -20 -20 -20 -20 -18 -19 -20 -18 -20 -20 -20 -20 -20 -12 -20 -20 -11 -11 -17 -18
-20 -20 -20 -20 -20 -20 -20 -20 -20 -20 -7 13 -20 -20 -20 -20 -20 -19 -20 -20 -20 -20 -20 -20 -20 -20 -20 -20 -20 -20 -20 -20 -20 -20 -20 -20 -20 -20 -20 -20 -20 -20 -20 -20 -19 -16 -20 -20 -20 -19 -19 -20 -20 -20
-20 -20 -20 -20 -20 -20 -20 -20 -20 -20 -20 -20 -20 -20 -20 -20 -20 -20 -20 -20 -20 -20 -16 -20 -20 -20 -20 -20 -20 -20 -13 -12 -18 -20 -20 -20 -20 -20 -20 -20 -20 -20 -20 -20 -17 -18 -18 -20 -20 -20 -20 -20 -20 -20
-17 -19 -20 -20 -20 -20 -20 -20 -18 -20 -20 -20 -20 -20 -20 -20 -16 -20 -20 -20 -20 -20 -20 -20 -20 -3 -16 -20 -20 -20 -20 -20 -20 -19 -20 -20 -20 -20 -20 -20 -20 -20 -20 -20 -20 -20 -20 -20 -20 -20 -20 -20 -20 -20
-20 -20 -20 -20 -20 -20 -20 -20 -20 -20 -20 -20 -20 -16 -20 -20 -20 -20 -20 -20 -20 -20 -19 -18 -20 -20 -16 -16 -20 -20 -20 -20 -20 -20 -20 -20 -20 -20 -20 -20 -20 -20 -20 -20 -20 -20 -20 -20 -20 -20 -20 -20 -20 -20
-6 8 -20 -7 -1 -20 -20 -20 -7 -12 -20 -20 -20 -20 -20 -20 -20 -20 -20 -20 -20 -20 -20 -20 -20 -20 -20 -20 -20 -20 -20 -20 -20 -20 -20 -20 -20 -20 -20 -20 -20 -20 -20 -20 -20 -20 -20 -20 -20 -20 -20 -20 -20 -20
-20 -14 -10 -8 -17 -12 -20 -20 -17 -10 -20 -11 -18 -20 -20 -20 -20 -20 -20 -20 -20 -20 -20 -20 -20 -20 -20 -20 -20 -20 -20 -20 -20 -20 -20 -20 -20 -20 -20 -20 -20 -20 -20 -20 -20 -20 -20 -20 -20 -20 -20 -20 -20 -20

GFSWCAN_prec_radar_138.txt.gz
Reflectivity
-20 -20 -20 2 -4 -20 -20 23 22 11 12 15 16 18 -17 12 17 16 -17 -14 19 11 -20 -1 -14 -20 -20 -15 -18 -20 -16 1 9 11 6 -8 -20 -20 -20 -20 -20 -20 -3 -20 -20 -19 -19 -20 -20 -20 -20 -20 -20 -20
-20 -20 -20 7 12 -20 -20 23 13 -20 10 -5 6 -3 20 15 21 16 -20 -7 -3 26 -4 -10 -11 -11 -7 7 -1 -1 12 15 9 9 -1 1 -20 -20 -4 -13 -20 -20 -20 -20 -20 -20 -20 -20 -20 -20 -20 -20 -20 -20
-20 -20 1 2 14 -20 9 28 7 -1 7 11 10 10 13 17 21 20 10 27 30 15 15 19 26 19 25 23 14 19 15 18 9 -10 -10 -20 9 -20 6 -8 -16 -3 -20 -20 -20 -20 -20 -20 -20 -20 -20 -20 -20 -20
-17 -16 8 17 -20 11 31 15 13 -20 -20 -20 2 18 17 27 31 28 31 32 13 -20 16 28 -12 -16 7 -3 -13 -11 25 10 9 -3 -5 -20 -19 -20 -20 -20 -20 -20 -20 -20 -20 -20 -20 -20 -20 -20 -20 -20 -20 -20
-6 -14 12 15 -20 11 16 13 5 -20 -20 -12 28 19 28 34 33 33 32 2 -4 15 12 22 5 12 -2 -8 -5 -6 -14 -16 -19 -20 -20 -20 -20 -20 -20 -20 -20 -20 -20 -20 -20 -20 -20 -20 -20 -20 -20 -20 -20 -20
16 6 16 -9 21 27 18 4 -16 -20 -19 25 12 19 31 32 33 32 36 25 17 -20 -7 -12 -2 16 -20 -19 -20 -20 -8 -20 -20 -20 -20 -20 -20 -20 -20 -20 -20 -20 -20 -20 -20 -20 -20 -20 -20 -20 -20 -20 -20 -20
3 2 -16 10 24 24 -17 -20 -20 -18 27 23 29 27 31 30 19 -6 -20 -20 -15 -20 8 -15 -20 -20 -20 -20 -20 -20 -20 -20 -20 -20 -20 -20 -20 -20 -20 -20 -20 -20 -20 -20 -20 -20 -20 -20 -20 -20 -20 -20 -20 -20
7 -14 -2 31 32 12 14 -20 -20 21 27 1 19 31 22 -17 -11 -20 -19 -20 -20 -20 -19 -17 -20 -20 -20 -20 -20 -20 -20 -20 -20 -20 -20 -20 -20 -20 -20 -20 -20 -20 -20 -20 -20 -20 -20 -20 -20 -20 -20 -20 -20 -20
4 3 17 33 20 7 -20 -20 12 32 -4 21 22 25 -5 -6 -20 -20 -20 -20 -20 -20 -20 -20 -20 -20 -20 -20 -20 -20 -20 -20 -20 -20 -20 -20 -20 -20 -20 -20 -20 -20 -20 -20 -20 -20 -20 -20 -20 -20 -20 -20 -20 -20
13 37 33 29 -5 -20 -20 -20 23 28 -10 15 3 10 -11 -20 -20 -20 -20 -20 -20 -20 -20 -20 -20 -20 -20 -20 -20 -20 -20 -20 -20 -20 -20 -20 -20 -20 -20 -20 -20 -20 -20 -20 -20 -20 -20 -20 -20 -20 -20 -20 -20 -20
35 21 -1 -20 -20 -20 -20 11 31 11 -6 -8 -20 9 -20 -20 -20 -20 -20 -20 -20 -20 -20 -20 -20 -20 -20 -20 -20 -20 -20 -20 -20 -20 -20 -20 -20 -20 -20 -20 -20 -20 -20 -20 -20 -20 -20 -20 -20 -20 -20 -20 -20 -20
33 24 8 -20 -20 -20 -20 -5 17 11 -6 -20 -1 1 -20 -20 -20 -20 -20 -20 -20 -20 -20 -20 -20 -20 -20 -20 -20 -20 -20 -20 -20 -20 -20 -20 -20 -20 -20 -20 -20 -20 -20 -20 -20 -20 -20 -20 -20 -20 -20 -20 -20 -20
1 -19 5 -20 -20 -16 -20 -20 -5 3 1 -19 -1 -20 -20 -20 -20 -20 -20 -20 -20 -20 -20 -20 -20 -20 -20 -20 -20 -20 -20 -20 -20 -20 -20 -20 -20 -20 -20 -20 -20 -20 -20 -20 -20 -20 -20 -20 -20 -20 -20 -20 -20 -20
19 14 7 -18 -20 -18 -20 -20 -20 -20 -12 -20 -16 -20 -20 -20 -20 -20 -20 -20 -20 -20 -20 -20 -20 -20 -20 -20 -20 -20 -20 -20 -20 -20 -20 -20 -20 -20 -20 -20 -20 -20 -20 -20 -20 -20 -20 -20 -20 -20 -20 -20 -20 -20
-9 6 -1 4 -3 -12 -20 -20 -20 -15 -8 -20 -20 -20 -20 -20 -20 -11 -20 -20 -20 -20 -20 -20 -20 -20 -20 -20 -20 -20 -20 -20 -20 -20 -20 -20 -20 -20 -20 -20 -20 -20 -20 -20 -20 -20 -20 -20 -20 -20 -20 -20 -20 -20
-4 6 12 20 -10 -16 -11 -20 -20 -20 -20 -20 -20 -20 -20 -20 -20 -20 -20 -20 -20 -20 -20 -20 -20 -20 -20 -20 -20 -20 -20 -20 -20 4 -20 -20 -20 -20 -20 -20 -20 -20 -20 -20 -20 -20 -20 -20 -20 -20 -20 -20 -20 -20
10 -2 -15 -20 -20 -20 -20 -20 -20 -20 -20 -20 -19 -20 -2 -20 -20 -20 -20 -20 -20 -20 -20 -20 -20 -20 -20 -20 -20 -20 -20 -20 -19 -20 -20 -20 -20 -20 -20 -20 -20 -20 -20 -20 -20 -20 -20 -20 -20 -20 -20 -20 -20 -20
-20 -19 -16 -20 -20 -20 -20 -20 -20 -20 -20 -19 -20 -20 -20 -20 -16 -20 -20 -20 -20 -20 -20 -20 -20 -20 -20 -20 -20 -20 -20 -20 -20 -20 -20 -20 -0 -18 -20 -20 -20 -20 -20 -20 -20 -20 -20 -20 -20 -20 -20 -20 -20 -20
-20 -20 -20 -20 -20 -20 -20 -20 -20 -20 -19 -20 -20 -20 -20 -20 -20 -20 -18 -19 -20 -20 -20 -20 -20 -20 -18 -19 -20 -20 -20 -20 -20 -20 -20 -17 -20 -20 -20 -20 -20 -20 -20 -20 -20 -20 -20 -20 -20 -20 -20 -20 -20 -20
-20 -20 -20 -20 -20 -20 -20 -20 -20 -20 -20 -18 -18 -20 -20 -20 -19 -13 -14 -7 -20 -20 -20 -20 -20 -2 -3 -17 -20 -20 -20 -20 -20 -20 -20 -20 -20 -20 -20 -16 -20 2 -20 -14 -1 -2 -20 -20 -20 -20 -20 -20 -20 -20
-20 -20 -20 -20 -20 -20 -20 -20 -20 -20 -20 -19 -18 -20 -18 16 7 3 -1 5 -20 -20 -20 -18 -3 7 -17 2 -20 -20 -20 -20 -20 -20 -20 -20 -20 -20 -20 -20 -20 6 -8 9 -20 -13 -6 -20 -20 -20 -20 -20 -20 -20
-20 -20 -20 -20 -20 -20 -20 -20 -20 -20 -20 -20 -20 -20 -19 -20 4 5 -8 -20 -20 -17 -16 -16 4 -12 -20 -20 -20 -20 -20 -20 -20 -20 -20 -20 -20 -20 -14 -16 -17 -20 -20 -20 -20 -20 -20 -20 -20 -20 -20 -20 -20 -20
-20 -20 -20 -20 -20 -20 -20 -20 -20 -20 -20 -20 -20 -20 -20 -20 0 -8 -20 -20 -20 -10 -19 -20 -20 -20 -20 -20 -20 -20 -20 -20 -20 -20 -20 -20 -20 -20 -20 -20 -20 -20 -20 -20 -20 -20 -20 -20 -20 -20 -20 -20 -20 -19
-20 -20 -20 -20 -20 -20 -20 -20 -20 -20 -20 -20 -20 -20 -20 -20 -20 -20 -20 -20 -10 -5 -15 -20 -20 -20 -20 -20 -20 -20 -20 -20 -20 -20 -20 -20 -20 -20 -20 -20 -20 -20 -20 -20 -20 -20 -20 -20 -20 -20 -20 -20 -15 -18
-20 -20 -20 -20 -20 -20 -20 -20 -20 -20 -20 -20 -20 -20 -20 -20 -20 -20 -20 -19 -19 -20 -20 -20 -20 -20 -20 -20 -20 -20 -20 -20 -20 -20 -20 -20 -20 -20 -20 -20 -20 -20 -20 -20 -20 -20 -20 -20 -20 -16 -18 -17 -19 -16
-20 -20 -20 -20 -20 -20 -20 -20 -20 -20 -20 -20 -20 -20 -20 -20 -20 -20 -20 -18 -20 -20 -20 -20 -20 -20 -18 -20 -20 -20 -20 -20 -20 -20 -20 -20 -20 -20 -20 -20 -20 -20 -20 -20 -20 -20 -20 -20 -18 -7 -12 -16 -20 -20
-20 -20 -20 -20 -20 -20 -20 -20 -20 -20 -20 -20 -20 -20 -20 -20 -20 -20 -20 -20 -20 -20 -20 -20 -20 -20 -20 -20 -20 -20 -20 -19 -20 -20 -20 -20 -20 -20 -20 -20 -20 -20 -20 -20 -20 -20 -20 -20 -20 -20 -20 -12 -3 -13
-20 -20 -20 -20 -20 -20 -20 -20 -20 -20 7 7 -20 -20 -20 -20 -20 -20 -20 -20 -20 -20 -20 -20 -20 -20 -20 -20 -20 -20 -20 -20 -20 -20 -20 -20 -20 -20 -20 -20 -20 -20 -20 -20 -20 -20 -20 -20 -20 -20 -20 -20 -20 -10
-20 -20 -20 -20 -20 -20 -20 -20 -20 -1 -20 -20 -20 -20 -20 -20 -19 -20 -20 -20 -20 -20 -20 -20 -20 -20 -20 -20 -20 -20 -20 -20 -20 -20 -20 -20 -20 -20 -20 -20 -20 -20 -20 -19 -5 -14 -20 -20 -20 -20 -20 -20 -20 -20
-20 -20 -20 -20 -20 -20 -20 -20 -20 -20 -15 -20 -20 -20 -20 -20 -20 -20 -20 -20 -20 -20 -16 -20 -20 -20 -20 -20 -20 -20 -20 -20 -20 -20 -20 -20 -20 -20 -20 -20 -20 -20 -20 -20 -20 -19 -20 -20 -20 -20 -20 -20 -20 -20
-20 -20 -20 -20 -20 -20 -20 -20 -20 -20 -14 -20 -20 -20 -20 -20 -20 -20 -20 -20 -20 -20 -20 -20 -20 -20 -20 -20 -20 -20 -20 -20 -20 -20 -20 -20 -20 -20 -20 -20 -20 -20 -20 -20 -20 -20 -20 -20 -20 -20 -20 -20 -20 -20
-20 -20 -20 -20 -20 -20 -20 -20 -20 -20 -20 -20 -20 -20 -20 -20 -20 -20 -20 -20 -20 -20 -20 -20 -20 -20 -20 -20 -20 -20 -20 -20 -20 -20 -20 -20 -20 -20 -20 -20 -20 -20 -20 -20 -20 -20 -20 -20 -20 -20 -20 -20 -20 -20
-20 -20 -20 -20 -20 -20 -20 -20 -20 -20 -20 -20 -20 -20 -20 -20 -20 -20 -20 -20 -20 -20 -20 -20 -20 -20 -20 -20 -20 -20 -20 -20 -20 -20 -20 -20 -20 -20 -20 -20 -20 -20 -20 -20 -20 -20 -20 -20 -20 -20 -20 -20 -20 -20

GFSWCAN_prec_radar_144.txt.gz
Reflectivity
28 32 22 6 -2 -4 -19 -20 -20 -20 -20 -20 31 16 -20 12 -6 8 11 -12 -2 25 1 -20 1 30 27 13 21 7 18 -3 27 14 14 -19 -20 -20 -20 -20 -20 -19 14 -11 -20 -4 -12 -20 -20 -20 -20 -20 -20 -20
27 28 17 13 -4 -20 9 -20 -20 1 -20 20 21 20 -17 -20 -6 15 10 14 16 17 18 10 25 5 -11 20 25 28 -19 -20 -20 -20 -20 -20 -20 -20 -18 -17 -20 5 -20 -17 -15 -19 -19 -20 -20 -20 -20 -20 -20 -20
23 3 10 -20 -20 -20 -20 -20 -20 2 18 14 17 16 5 14 1 11 18 2 12 28 6 5 -19 -20 26 27 28 -0 8 19 -20 -20 11 7 -18 -20 -20 -20 -20 -20 -20 -20 -20 -20 -20 -20 -20 -20 -20 -20 -20 -20
-12 -19 -20 -20 -20 -20 -20 -20 -20 -20 -20 4 18 7 15 15 12 18 17 -17 15 30 30 -20 -20 -16 3 23 27 19 26 1 23 11 22 -2 -20 -20 -20 -20 -20 -20 -8 -20 -20 -20 -20 -20 -20 -20 -20 -20 -20 -20
-20 -20 -20 -20 -20 -20 -20 -20 -20 -7 11 8 -11 -13 10 -9 16 21 16 -4 8 29 29 12 -20 -20 -15 11 20 21 18 18 17 -3 19 -20 -20 -19 -20 -20 -20 -20 -20 -20 -20 -20 -20 -20 -20 -20 -20 -20 -20 -20
-20 -20 -20 -20 -20 -20 -20 -20 -20 -20 17 -20 10 18 21 28 28 21 26 -0 -20 -1 37 15 25 -20 -17 7 24 22 8 19 25 28 29 21 -19 -18 -20 -20 -20 -20 -20 -20 -20 -20 -20 -20 -20 -20 -20 -20 -20 -20
-20 -20 -20 -20 -10 -18 -20 -20 -20 18 -20 -20 -20 2 8 26 29 23 8 -11 2 14 35 15 11 -9 10 -1 12 26 26 26 18 -3 -7 -9 -20 -20 -20 -20 -20 -20 -20 -20 -20 -20 -20 -20 -20 -20 -20 -20 -20 -20
-20 -20 -20 -20 -5 -14 -20 -20 -7 5 -20 -20 -20 14 24 30 32 30 -5 22 19 36 20 11 3 20 14 -2 -14 -20 -3 23 -15 -20 -20 -20 -20 -20 -20 -20 -20 -20 -20 -20 -20 -20 -20 -20 -20 -20 -20 -20 -20 -20
-20 -20 -20 -20 -5 -20 -20 2 16 9 -20 2 9 31 34 35 32 26 36 28 21 27 26 6 -8 -8 -9 -20 -20 -20 -20 -20 -20 -20 -20 -20 -20 -20 -20 -20 -20 -20 -20 -20 -20 -20 -20 -20 -20 -20 -20 -20 -20 -20
-20 -20 -20 -20 -20 -20 -20 11 -19 -20 -6 27 35 36 23 32 35 31 30 36 39 20 -14 5 -11 -19 -20 -20 -20 -20 -20 -20 -20 -20 -20 -20 -20 -20 -20 -20 -20 -20 -20 -20 -20 -20 -20 -20 -20 -20 -20 -20 -20 -20
-20 -5 -20 -20 -20 18 28 -20 1 28 35 34 36 31 22 24 34 15 1 -13 -8 -18 -20 -20 -4 8 -20 -20 -20 -20 -20 -20 -20 -20 -20 -20 -20 -20 -20 -20 -20 -20 -20 -20 -20 -20 -20 -20 -20 -20 -20 -20 -20 -20
-10 9 -18 -0 30 34 1 -5 20 30 34 34 32 20 19 12 11 -3 -18 -20 -20 -20 -20 -20 -20 -20 -20 -20 -20 -20 -20 -20 -20 -20 -20 -20 -20 -20 -20 -20 -20 -20 -20 -20 -20 -20 -20 -20 -20 -20 -20 -20 -20 -20
6 15 30 33 11 -15 -20 -1 4 26 13 33 25 6 -15 -15 -17 -20 -20 -20 -20 -20 -20 -20 -20 -19 -20 -20 -20 -20 -20 -20 -20 -20 -20 -20 -20 -20 -20 -20 -20 -20 -20 -20 -20 -20 -20 -20 -20 -20 -20 -20 -20 -20
27 34 13 -20 -20 -6 24 26 26 23 -5 13 11 -20 -13 -16 -20 -20 -20 -20 -20 -20 -20 -20 -20 -20 -20 -20 -20 -20 -20 -20 -20 -20 -20 -20 -20 -20 -20 -20 -20 -20 -20 -20 -20 -20 -20 -20 -20 -20 -20 -20 -20 -20
-7 -20 -20 -14 12 29 15 -5 -4 7 1 -20 -20 -20 -20 -20 -20 -20 -20 -20 -20 -20 -20 -20 -20 -20 -20 -20 -20 -20 -20 -20 -20 -20 -20 -20 -20 -20 -20 -20 -20 -20 -20 -20 -20 -20 -20 -20 -20 -20 -20 -20 -20 -20
-20 -16 -5 -2 24 17 9 -20 -20 -20 -20 -20 -20 -20 -20 -20 -20 -20 -20 -20 -20 -20 -20 -20 -20 -20 -20 -20 -20 -20 -20 -20 -20 -20 -20 -7 -20 -20 -20 -20 -20 -20 -20 -20 -20 -20 -20 -20 -20 -20 -20 -20 -20 -20
-20 -19 -1 -6 22 13 -6 -10 -20 -20 -20 -20 -20 -20 -20 -20 -20 -20 -20 -20 -20 -20 -20 -20 -20 -20 -20 -20 -20 -20 -20 -20 -20 -20 -15 -17 -20 -20 -20 -20 -20 -20 -20 -20 -20 -20 -20 -20 -20 -20 -20 -20 -20 -20
-18 -20 -20 -20 2 -17 -20 -20 -20 -20 -20 -19 -16 -20 -20 -20 -20 -20 -20 -20 -20 -20 -20 -20 -20 -20 -20 -20 -20 -20 -20 -16 -6 -20 -20 -20 -20 -20 -20 -20 -20 -20 -20 -20 -20 -20 -20 -20 -20 -20 -20 -20 -20 -20
-20 -20 -20 -20 -20 -20 -20 -20 -20 -20 -18 -20 -20 -20 -20 -20 -7 16 -20 -20 -20 -20 -20 -20 -20 -20 -20 -20 -20 -18 -9 -20 -20 -20 -20 -20 -20 -20 -20 -20 -20 -20 -20 -20 -20 -20 -20 -20 -20 -20 -20 -20 -20 -20
-20 -20 -20 -20 -20 -20 -20 -20 -20 -20 -20 -20 -20 -20 -20 -4 4 22 5 -20 -20 -20 -20 -20 -20 -20 -19 -19 -20 -20 -20 -20 -20 -20 -20 -20 -18 -20 -20 -20 -20 -20 -20 -20 -20 -20 -20 -20 -20 -20 -20 -20 -20 -20
-20 -20 -20 -20 -20 -20 -20 -20 -20 -20 -20 -20 -20 -20 -20 -20 -20 -20 9 -20 -20 -20 -20 -20 -20 -20 -20 -9 -19 -20 -20 -20 -20 -20 -20 -20 -20 -20 -20 -20 -20 -20 -11 0 -20 -16 -20 -20 -20 -20 -20 -20 -20 -20
-20 -20 -20 -20 -20 -20 -20 -20 -20 -20 -20 -20 -20 -20 -20 -20 -20 -20 -20 -20 -19 -20 -19 -20 -19 -15 -19 -20 -20 -20 -20 -20 -20 -20 -20 -7 -20 -20 -20 -6 -16 -20 -20 -20 -20 -20 -20 -20 -20 -20 -20 -20 -20 -20
-20 -20 -20 -20 -20 -20 -20 -20 -20 -20 -20 -20 -20 -20 -20 -20 -18 -20 -20 -20 -20 -15 -16 -18 -17 -17 -20 -20 -20 -20 -20 -20 -20 -20 -20 -20 -20 -20 -20 -20 -20 -20 -20 -20 -20 -20 -20 -20 -20 -20 -20 -20 -20 -20
-20 -20 -20 -20 -20 -20 -20 -20 -20 -20 -20 -20 -20 -20 -20 -20 -20 -20 -20 -20 -20 -18 -20 -19 -18 -17 -20 -20 -20 -20 -20 -20 -20 -20 -20 -20 -20 -20 -20 -20 -20 -20 -20 -20 -20 -20 -20 -20 -20 -20 -20 -20 -20 -20
-20 -20 -20 -20 -20 -20 -20 -20 -20 -20 -20 -20 -20 -20 -20 -20 -20 -20 -20 -20 -20 -18 -19 -19 -20 -20 -20 -20 -20 -20 -20 -20 -20 -20 -20 -20 -20 -20 -20 -20 -20 -20 -20 -20 -20 -20 -20 -20 -20 -20 -20 -20 -20 -20
-20 -20 -20 -20 -20 -20 -20 -20 -20 -20 -20 -20 -20 -20 -20 -20 -20 -20 -20 -20 -20 -20 -20 -20 -20 -20 -14 -18 -20 -20 -20 -20 -20 -20 -20 -20 -20 -20 -20 -20 -20 -20 -20 -20 -20 -20 -20 -20 -20 -20 -20 -20 -20 -20
-20 -20 -20 -20 -20 -20 -20 -20 -20 -20 -20 -20 -20 -20 -20 -20 -20 -20 -20 -20 -20 -20 -20 -20 -20 -20 -20 -20 -20 -20 -20 -20 -20 -20 -20 -20 -20 -20 -20 -20 -20 -20 -20 -20 -20 -20 -20 -20 -20 -20 -20 -20 -20 -20
-20 -20 -20 -20 -20 -20 -20 -20 -20 -20 -20 -20 -20 -20 -20 -20 -20 -20 -20 -20 -20 -20 -20 -20 -20 -20 -20 -20 -20 -20 -20 -20 -20 -20 -20 -20 -20 -20 -20 -20 -20 -8 -20 -20 -20 -20 -20 -20 -20 -20 -20 -20 -20 -20
-20 -20 -20 -20 -20 -20 -20 -20 -20 -20 -20 -20 -20 -20 -20 -20 -20 -20 -20 -20 -20 -20 -20 -20 -20 -20 -20 -20 -20 -20 -20 -20 -20 -20 -20 -20 -20 -20 -20 -20 -20 -20 -20 -20 -20 -20 -20 -20 -20 -20 -20 -20 -20 -20
-20 -20 -20 -20 -20 -20 -20 -20 -20 -20 -20 -20 -20 -20 -20 -20 -20 -20 -20 -20 -20 -20 -20 -20 -20 -20 -20 -20 -20 -20 -20 -20 -20 -20 -20 -20 -20 -20 -20 -20 -20 -20 -20 -20 -20 -20 -20 -20 -20 -20 -20 -20 -20 -20
-20 -20 -20 -20 -20 -20 -20 -20 -20 -20 -18 -20 -20 -20 -20 -20 -20 -20 -20 -20 -20 -20 -20 -20 -20 -20 -20 -20 -20 -20 -20 -20 -20 -20 -20 -20 -20 -20 -20 -20 -20 -20 -20 -20 -20 -20 -20 -20 -20 -20 -20 -20 -20 -20
-20 -20 -20 -20 -20 -20 -20 -20 -20 -20 -20 -20 -20 -20 -20 -20 -20 -20 -20 -20 -20 -20 -20 -20 -20 -20 -20 -20 -20 -20 -20 -20 -20 -20 -20 -20 -20 -20 -20 -20 -20 -20 -20 -20 -20 -20 -20 -20 -20 -20 -20 -20 -20 -20
-20 -20 -20 -20 -20 -20 -20 -20 -20 -20 -20 -20 -20 -20 -20 -20 -20 -20 -20 -20 -20 -20 -20 -20 -20 -20 -20 -20 -20 -20 -20 -20 -20 -20 -20 -20 -20 -20 -20 -20 -20 -20 -20 -20 -20 -20 -20 -20 -20 -20 -20 -20 -20 -20

GFSWCAN_prec_radar_147.txt.gz
Reflectivity
20 39 16 29 26 15 18 13 -6 -20 -20 -20 -20 -20 -7 16 11 1 13 8 17 30 8 -14 -20 3 4 2 23 12 30 29 31 6 8 12 -20 -18 -12 -20 -20 -20 2 15 11 16 -20 -10 -20 -20 -20 -20 -20 -20
35 37 27 17 17 -6 -14 -20 -20 -20 -20 -20 -20 -20 12 17 17 20 11 2 26 12 -17 -20 -20 -20 -19 -11 27 30 19 21 18 15 14 -19 -20 -20 -20 -20 -20 -1 -20 -20 -20 -20 -20 -20 -20 -20 -20 -20 -20 -20
23 20 14 12 -1 -20 -20 -20 -20 -20 -20 -20 -20 17 27 27 16 22 13 -4 24 32 12 3 -20 -20 19 1 13 35 25 23 -8 -20 -20 -20 -20 -20 -20 -20 -20 -20 -20 -20 -14 -20 -20 -20 -20 -20 -20 -20 -20 -20
38 31 20 10 2 -10 -20 -20 -12 -16 -20 2 9 20 31 28 22 23 12 1 3 33 19 -20 -13 -20 -20 -20 17 27 14 -17 -18 28 -20 -20 7 7 -14 -20 -20 -20 -20 -20 -20 -20 -20 -20 -20 -20 -20 -20 -20 -20
34 25 -5 -11 -6 -20 -20 -20 -20 -20 -17 -18 13 24 30 20 17 15 4 2 14 16 18 -1 -20 -20 -20 -20 2 20 25 12 8 20 35 25 -18 -8 -20 -20 -20 -20 -20 -20 -20 -20 -20 -20 -20 -20 -20 -20 -20 -20
13 -20 -20 -20 -20 -20 -20 -20 -20 -20 -20 17 -4 18 23 12 18 10 32 15 -5 -18 31 -2 -7 -5 -20 -20 4 22 28 29 26 34 27 7 -20 0 -20 -20 -20 -20 -20 -20 -20 -20 -20 -20 -20 -20 -20 -20 -20 -20
-20 -20 -20 -20 -20 -10 -20 -20 -20 -20 15 12 15 15 15 16 11 12 12 -1 -13 -1 32 -14 -20 -12 -4 15 30 34 32 31 27 33 24 3 -20 -18 4 -20 -20 -20 -20 -20 -20 -20 -20 -20 -20 -20 -20 -20 -20 -20
-19 -20 -20 -20 -18 -20 -20 -20 -20 -4 17 15 14 10 14 29 32 26 -9 -12 33 27 23 1 -20 22 23 25 33 29 33 31 28 19 -5 15 12 -6 -19 -20 -20 -20 -20 -20 -20 -20 -20 -20 -20 -20 -20 -20 -20 -20
-20 -20 -20 -20 -20 -20 -20 -20 -20 29 28 3 -20 -20 -5 24 21 -7 7 -2 10 32 22 -5 -12 6 13 19 -14 -17 14 -5 -12 3 5 3 4 -17 -20 -20 -20 -20 -20 -20 -20 -20 -20 -20 -20 -20 -20 -20 -20 -20
-20 -20 -20 -20 -19 -19 -20 -20 11 36 17 -20 -14 27 8 -0 -15 8 30 40 40 36 26 -20 -20 0 -12 -18 -20 -20 -20 -8 -15 -12 -3 -18 -20 -20 -20 -20 -20 -20 -20 -20 -20 -20 -20 -20 -20 -20 -20 -20 -20 -20
-20 -17 -19 -20 -20 -20 -20 16 28 7 -20 8 25 -2 25 27 32 35 23 26 32 12 -20 -20 -19 -10 -8 -1 -20 -20 -20 -20 -20 -20 -20 -20 -20 -20 -20 -20 -20 -20 -20 -20 -20 -20 -20 -20 -20 -20 -20 -20 -20 -20
-20 -20 -20 -20 -20 -20 -8 23 -16 -20 -13 18 30 32 35 35 19 5 -3 -17 -20 -20 -20 -15 4 13 13 -9 -20 -17 -18 -20 -20 -20 -20 -20 -20 -20 -20 -20 -20 -20 -20 -20 -20 -20 -20 -20 -20 -20 -20 -20 -20 -20
-20 7 -20 -20 -20 18 21 -19 -4 28 31 32 30 21 20 10 8 -20 -20 -20 -20 -20 -1 -7 -10 10 4 -16 -20 -20 -20 -20 -20 -20 -20 -20 -20 -20 -20 -20 -20 -20 -20 -20 -20 -20 -20 -20 -20 -20 -20 -20 -20 -20
-19 -17 -3 26 31 26 10 3 24 33 35 25 15 13 18 -7 -20 -20 -9 5 -4 -20 -20 -20 -20 -2 -18 -20 -20 -20 -20 -20 -20 -20 -20 -20 -20 -20 -20 -20 -20 -20 -20 -20 -20 -20 -20 -20 -20 -20 -20 -20 -20 -20
32 34 17 14 14 27 30 32 29 25 15 17 7 -16 -20 -20 -20 -20 -20 -20 -20 -20 -20 -20 -20 -20 -19 -20 -20 -20 -20 -20 -20 -20 -20 -20 -20 -20 -20 -20 -20 -20 -20 -20 -20 -20 -20 -20 -20 -20 -20 -20 -20 -20
14 8 -0 22 15 10 -6 -3 4 9 6 3 -9 -15 -20 -20 -20 -20 -19 -18 -20 -20 -20 -20 -20 -20 -20 -20 -20 -20 -20 -20 -20 -16 -16 -18 -20 -20 -20 -20 -20 -20 -20 -20 -20 -20 -20 -20 -20 -20 -20 -20 -20 -20
-20 4 25 20 -13 1 -16 -4 7 -20 -20 -20 -20 -20 -20 -20 -17 -17 -9 -20 -20 -20 -20 -20 -20 -20 -20 -20 -20 -20 -20 -20 -19 -20 -20 -20 -20 -20 -20 -20 -20 -20 -20 -20 -20 -20 -20 -20 -20 -20 -20 -20 -20 -20
-16 4 5 -18 -12 -18 -20 -20 -20 -20 -20 -20 -20 -20 -20 -20 -18 -6 -8 -20 -20 -20 -20 -20 -20 -20 -20 -20 -20 -20 -20 -20 -20 -20 -20 -20 -20 -20 -20 -20 -20 -20 -20 -20 -20 -20 -20 -20 -20 -20 -20 -20 -20 -20
-19 -2 -14 -14 -20 -20 -20 -20 -20 -20 -14 -20 -20 -20 -20 -9 -4 -11 -20 -20 -20 -20 -20 -20 -20 -20 -17 -20 -20 -20 -20 -17 -20 -20 -20 -20 -20 -20 -20 -20 -20 -20 -20 -20 -20 -20 -20 -20 -20 -20 -20 -20 -20 -20
-20 -20 -20 -20 -20 -20 -20 -20 -20 -20 -20 -20 -20 -20 -19 3 6 -9 -20 -20 -20 -20 -20 -20 -20 -20 -20 -20 -20 -20 -20 -20 -20 -20 -20 -20 -20 -20 -20 -20 -20 -20 -20 -20 -20 -20 -20 -20 -20 -20 -20 -20 -20 -20
-20 -20 -20 -20 -20 -20 -20 -20 -20 -20 -20 -20 -20 -20 -20 -20 -20 -20 -20 -20 -20 -20 -20 -20 -20 -20 -20 -20 -20 -20 -20 -20 -20 -20 -20 -20 -20 -20 -20 -20 -20 -20 -20 -20 -20 -20 -8 -20 -20 -20 -20 -20 -20 -20
-20 -20 -20 -20 -20 -20 -20 -20 -20 -20 -20 -20 -20 -20 -20 -20 -20 -20 -2 -3 -20 -20 -20 -20 -20 -17 -20 -20 -20 -20 -20 -20 -20 -20 -11 -8 -20 -20 -20 -20 -20 -20 -20 -20 -20 -20 -20 -20 -20 -20 -20 -20 -20 -20
-20 -20 -20 -20 -20 -20 -20 -20 -20 -20 -20 -20 -20 -20 -20 -20 -20 -20 -20 -20 -20 -19 -20 -18 -16 -19 -20 -20 -20 -20 -20 -20 -20 -20 -19 -20 -20 -20 -20 -20 -20 -20 -20 -20 -20 -20 -20 -20 -20 -20 -20 -20 -20 -20
-20 -20 -20 -20 -20 -20 -20 -20 -20 -20 -20 -20 -20 -20 -20 -20 -20 -20 -20 -20 -20 -18 -17 -16 -16 -16 -20 -20 -20 -20 -20 -20 -20 -20 -20 -20 -20 -20 -20 -20 -20 -20 -20 -20 -20 -20 -20 -20 -20 -20 -20 -20 -20 -20
-20 -20 -20 -20 -20 -20 -20 -20 -20 -20 -20 -20 -20 -20 -20 -20 -20 -20 -20 -20 -20 -19 -18 -16 -19 -20 -20 -20 -19 -20 -20 -20 -20 -20 -20 -20 -20 -20 -20 -20 -20 -20 -20 -20 -20 -20 -20 -20 -20 -20 -19 -19 -20 -20
-20 -20 -20 -20 -20 -20 -20 -20 -20 -20 -20 -20 -20 -20 -20 -20 -20 -20 -20 -20 -20 -20 -20 -20 -20 -20 -20 -20 -13 -20 -20 -20 -20 -20 -20 -20 -20 -20 -20 -20 -20 -20 -20 -20 -20 -20 -20 -20 -20 -20 -20 -20 -20 -20
-20 -20 -20 -20 -20 -20 -20 -20 -20 -20 -20 -20 -20 -20 -20 -20 -20 -20 -20 -20 -20 -20 -20 -20 -20 -20 -20 -20 -20 -20 -20 -20 -20 -20 -20 -20 -20 -20 -20 -20 -20 -20 -20 -20 -20 -20 -20 -20 -20 -20 -20 -20 -20 -20
-20 -20 -20 -20 -20 -20 -20 -20 -20 -20 -20 -20 -20 -20 -20 -20 -20 -20 -20 -20 -20 -20 -20 -20 -19 -18 -20 -20 -20 -20 -20 -20 -20 -20 -20 -20 -20 -20 -20 -20 -20 -20 -20 -20 -20 -20 -20 -20 -20 -20 -20 -20 -20 -20
-20 -20 -20 -20 -20 -20 -20 -20 -20 -20 -20 -20 -20 -20 -20 -20 -20 -20 -20 -20 -20 -20 -20 -20 -20 -20 -20 -20 -20 -20 -20 -20 -20 -20 -20 -20 -20 -20 -20 -20 -20 -20 -20 -20 -20 -20 -20 -20 -20 -20 -20 -20 -20 -20
-20 -20 -20 -20 -20 -20 -20 -20 -20 -20 -20 -20 -20 -20 -20 -20 -20 -20 -20 -20 -20 -20 -20 -20 -20 -20 -20 -20 -20 -20 -20 -20 -20 -20 -20 -20 -20 -20 -20 -20 -20 -20 -20 -20 -20 -20 -16 -20 -20 -20 -20 -20 -20 -20
-20 -20 -20 -20 -20 -20 -20 -20 -20 -20 -20 -20 -20 -20 -20 -20 -20 -20 -20 -20 -20 -20 -20 -20 -20 -20 -20 -20 -20 -20 -20 -20 -20 -20 -20 -20 -20 -20 -20 -20 -20 -20 -20 -20 -20 -20 -20 -20 -20 -20 -20 -20 -20 -20
-20 -20 -20 -20 -20 -20 -20 -20 -20 -20 -20 -20 -20 -20 -20 -20 -20 -20 -20 -20 -20 -20 -20 -20 -20 -20 -20 -20 -20 -20 -20 -20 -20 -20 -20 -20 -20 -20 -20 -20 -20 -20 -20 -20 -20 -20 -20 -20 -20 -20 -20 -20 -20 -20
-20 -20 -20 -20 -20 -20 -20 -20 -20 -20 -20 -20 -20 -20 -20 -20 -20 -20 -20 -20 -20 -20 -20 -20 -20 -20 -20 -20 -20 -20 -20 -20 -20 -20 -20 -20 -20 -20 -20 -20 -20 -20 -20 -20 -20 -20 -20 -20 -20 -20 -20 -20 -20 -20

GFSWCAN_prec_radar_150.txt.gz
Reflectivity
9 -4 13 1 25 26 19 28 36 30 13 -3 -20 -20 -7 15 17 -6 6 6 19 1 -16 10 -11 3 3 14 11 -8 0 -2 30 11 17 14 16 12 9 -3 19 -12 3 17 15 22 18 -20 -20 -20 -20 -20 -20 -20
2 10 -0 38 25 14 12 34 29 7 1 -20 -20 -20 12 13 15 16 19 13 11 18 14 5 -20 -20 -18 -17 15 18 15 15 24 27 18 20 17 16 -5 11 -20 10 -17 22 19 20 -20 -20 -20 -20 -20 -20 -20 -20
0 6 33 27 3 36 30 6 -20 -20 -20 -20 -20 -15 -20 -20 7 11 18 -8 2 19 17 2 -20 -20 -20 -20 9 18 6 18 23 25 27 22 18 16 17 -17 17 17 -20 -13 17 -20 -20 -20 -20 -20 -20 -20 -20 -20
-2 -9 27 23 31 21 8 -2 -14 -11 -20 -20 -3 -6 -20 8 20 17 5 -6 8 5 5 -10 -20 -10 -20 -20 -20 -9 4 16 24 26 32 20 20 -20 16 17 -2 15 -20 -20 -5 -20 -20 -20 -20 -20 -20 -20 -20 -20
31 33 34 34 14 3 -3 6 -10 -20 -20 -20 -20 -20 -20 -7 30 33 29 17 7 8 15 -1 -19 -20 -20 -16 12 -14 12 24 32 19 -2 16 15 -16 -20 -17 -20 -20 -20 13 19 -20 -20 -20 -20 -20 -20 -20 -20 -20
37 36 26 9 -20 -20 -20 -20 -20 -20 -20 1 8 16 18 31 33 31 40 25 12 0 -2 1 4 -20 -20 -20 -19 15 15 27 25 26 1 2 -20 24 19 12 -20 -20 -20 -20 -20 -20 -20 -20 -20 -20 -20 -20 -20 -20
37 14 -18 -20 -20 -20 -20 -20 -20 -20 -20 12 19 -1 11 33 30 26 4 7 1 5 28 4 -20 -15 -20 -10 15 9 24 33 26 28 22 23 24 23 22 5 -18 -20 -20 -20 -20 -20 -20 -20 -20 -20 -20 -20 -20 -20
13 -19 -20 -20 -20 -20 -20 -20 -20 -9 17 4 14 13 16 25 29 20 -17 -8 16 12 7 15 8 -20 -2 26 22 25 36 32 32 30 11 11 -10 18 18 -20 -20 -20 -20 -20 -20 -20 -20 -20 -20 -20 -20 -20 -20 -20
-19 -20 -20 -20 -20 -20 -20 -20 -20 12 8 22 18 20 20 23 22 7 -19 -4 29 25 30 2 2 7 17 34 27 17 25 26 8 8 7 11 30 20 -19 -20 -12 -20 -20 -20 -20 -20 -20 -20 -20 -20 -20 -20 -20 -20
-20 -20 -20 -20 -20 -20 -20 -20 -2 21 15 -20 -20 -9 7 -2 -7 -2 15 19 28 25 12 19 -7 13 14 27 18 -11 -20 -12 9 6 -20 -13 -20 -14 -16 -18 -20 -20 -20 -20 -20 -20 -20 -20 -20 -20 -20 -20 -20 -20
-20 -20 -20 -20 -20 -20 -20 6 26 32 -1 -6 -18 -13 -1 13 20 23 23 21 19 13 11 -3 -13 9 -16 28 6 -20 -4 -20 -5 -4 -11 5 -20 -20 -20 -20 -20 -20 -20 -20 -20 -20 -20 -20 -20 -20 -20 -20 -20 -20
-20 -20 -20 -20 -20 -20 -20 18 14 21 -5 -3 -8 14 28 33 28 16 18 16 13 19 -20 -5 -6 8 31 15 -10 -20 -20 -20 -20 -20 -20 -20 -20 -20 -20 -20 -20 -20 -20 -20 -20 -20 -20 -20 -20 -20 -20 -20 -20 -20
-20 -20 -20 -20 -20 -20 9 28 24 -17 -8 22 31 26 15 15 8 -11 -17 6 11 -19 -20 -20 5 23 20 16 -6 -20 -20 -20 -20 -18 -20 -20 -20 -20 -20 -20 -20 -20 -20 -20 -20 -20 -20 -20 -20 -20 -20 -20 -20 -20
-9 -11 -20 -20 -20 6 11 21 -9 26 28 22 10 6 14 -11 -17 -20 -18 -19 -15 -19 -10 7 26 16 -20 -20 -20 -20 -20 -20 -3 0 -20 -20 -20 -20 -20 -20 -20 -20 -20 -20 -20 -20 -20 -20 -20 -20 -20 -20 -20 -20
-20 -20 -12 -8 21 17 23 7 27 24 23 12 -8 5 -4 -14 -8 -5 -18 -5 -15 -17 -20 -20 -20 -20 -19 -20 -20 -20 -13 -13 -20 -20 -20 -20 -20 -20 -20 -20 -20 -20 -20 -20 -20 -20 -20 -20 -20 -20 -20 -20 -20 -20
26 23 18 10 15 12 16 23 9 8 18 15 -8 8 8 10 11 4 -11 -8 -15 -18 -20 -20 -20 -20 -20 -20 -20 -20 -20 -20 -20 -13 -13 -9 -20 -20 -20 -20 -20 -20 -20 -20 -20 -20 -20 -20 -20 -20 -20 -20 -20 -20
-19 3 17 8 24 31 29 17 2 23 15 12 10 10 -1 -17 -16 -11 -12 -6 -20 -20 7 -20 -20 -20 -20 -20 -20 -20 -20 -19 -3 -4 -2 -2 -19 -20 -20 -20 -20 -20 -20 -20 -20 -20 -20 -20 -20 -20 -20 -20 -20 -20
-2 -8 8 -11 21 20 12 10 -11 -3 -14 1 -10 -5 -3 -14 6 11 -0 -20 -20 -20 -20 -20 -20 -20 -20 -20 -17 -19 -20 -5 -20 -20 -1 -2 -6 -20 -20 -20 -20 -20 -20 -20 -20 -20 -20 -20 -20 -20 -20 -20 -20 -20
-20 -20 -20 -20 -13 -16 -20 -20 -20 -20 5 -10 -20 -1 -3 -20 10 17 -20 -20 -20 -20 -20 -20 -20 -20 -18 -16 1 -3 -20 -20 -20 -20 -17 -17 -20 -20 -20 -20 -20 -20 -20 -20 -20 -20 -20 -20 -20 -20 -20 -20 -20 -20
-7 -20 -20 -20 -18 -17 -20 -20 -20 -20 -14 -20 -20 -16 11 4 -13 -3 -18 -20 -20 -20 -20 -20 -20 -20 -15 -18 -6 -20 -20 -20 -20 -20 -16 -20 -9 -20 -14 -20 -20 -20 -20 -20 -20 -20 -20 -20 -20 -20 -20 -20 -20 -20
-20 -20 -20 -20 -20 -20 -20 -20 -20 -20 -20 4 -20 3 1 -12 -20 -20 -20 -20 -20 -20 -20 -20 -20 -6 -20 -11 -20 -20 -20 -20 -20 -20 -20 -5 -19 -20 -20 -20 -20 -20 -20 -20 -20 -16 -5 -20 -20 -20 -20 -2 -7 -20
-20 -20 -20 -20 -20 -20 -20 -20 -20 -20 -2 -20 -17 -20 -20 -5 -20 -20 -20 -20 -20 -19 -20 -20 -19 -20 -20 -20 -20 -20 -20 -20 -20 -20 -20 -20 -20 -20 -20 -20 -20 -15 -15 -1 -14 -3 -20 -20 -20 -20 -20 -20 -20 -4
-20 -20 -20 -20 -20 -20 -20 -20 -20 -20 -20 -20 -20 -20 -20 -11 -10 -20 -20 -20 -15 -20 -20 -20 -20 -20 -20 -20 -20 -20 -20 -20 -13 -9 -13 0 -20 -20 -20 -20 -11 2 1 -18 -19 2 -8 -20 -20 -20 -20 -20 -20 -11
-20 -20 -20 -20 -20 -20 -20 -20 -20 -20 -20 -20 -20 -20 -19 -12 -19 -20 -20 -20 -17 -20 -10 -8 -19 -20 -20 -20 -20 -20 -20 -17 -20 -16 -20 -11 -20 -20 -20 -20 -20 -20 -20 -20 -20 3 -20 -4 -20 -20 -20 -20 -20 -20
-20 -20 -20 -20 -20 -20 -20 -20 -20 -20 -20 -20 -20 -20 -20 -20 -13 -20 -20 -13 -19 -1 -14 -7 -16 -17 -20 -20 -20 -20 -20 -20 -20 -20 -20 -20 -20 -20 -20 -20 -20 -20 -20 -7 -7 -20 -6 -18 -7 -13 -19 -17 -17 -4
-20 -20 -20 -20 -20 -20 -20 -20 -20 -20 -20 -20 -20 -20 -20 -20 -20 -20 -20 -8 -1 -20 -17 -8 -20 -20 -20 -20 -20 -20 -2 -12 -20 -20 -20 -20 -20 -7 -7 -20 -20 -20 -20 -6 -4 -3 -20 -11 -20 -20 -18 -18 -19 -20
-20 -20 -20 -20 -20 -20 -20 -20 -20 -20 -20 -20 -20 -20 -20 -20 -20 -20 -20 -20 -20 -20 -20 -20 -20 -20 -20 -20 -20 -20 -20 -20 -20 -20 -20 -20 -20 -20 -20 -20 -20 -20 -20 -20 -20 -2 -2 -10 -20 -20 -20 -20 -20 -20
-20 -20 -20 -20 -20 -20 -20 -20 -20 -20 -20 -20 -20 -20 -20 -20 -20 -8 -5 -20 -4 -20 -20 -20 -20 -20 -20 -20 -20 -20 -20 -20 -20 -20 -20 -20 -20 -20 -20 -20 -20 -20 -20 -20 -18 -19 -19 -20 -20 -20 -20 -20 -20 -20
-20 -20 -20 -20 -20 -20 -20 -20 -20 -1 -20 -12 -12 -20 -20 -20 -20 -20 -20 -20 -20 -4 -6 -20 -20 -20 -20 -20 -20 -20 -20 -20 -20 -20 -20 -20 -20 -20 -20 -20 -20 -20 -11 -20 -20 -20 -20 -20 -20 -20 -20 -20 -20 -20
-20 -20 -20 -20 -20 -20 -20 -20 3 -9 -20 -20 -20 -20 -20 -20 -20 -20 -20 -20 -3 -1 1 -1 -13 -13 -20 -13 -20 -20 -20 -20 -20 -20 -20 -20 -20 -20 -20 -20 -20 -20 -3 -20 -20 -20 -20 -20 -20 -20 -20 -20 -20 -20
-20 -20 -20 -20 -20 -20 -20 -20 -15 -11 -6 5 -20 -8 -20 -20 -20 -20 -20 -20 -20 -20 -20 -20 -20 -20 -20 -20 -20 -20 -20 -20 -20 -20 -20 -20 -20 -20 -20 -20 -20 -20 -20 -20 -20 -20 -20 -20 -20 -20 -20 -20 -20 -20
-20 -20 -20 -20 -20 -20 -20 -6 -18 4 -18 -14 -10 -20 -20 -20 -20 -20 -20 -20 -20 -20 -20 -19 -20 -20 -20 -20 -20 -20 -20 -20 -20 -20 -20 -20 -20 -20 -20 -20 -20 -20 -20 -20 -20 -20 -20 -20 -20 -20 -20 -20 -20 -20
-20 -20 -20 -20 -20 -20 -20 -20 -20 -20 -20 -20 -20 -20 -20 -4 -20 -20 -20 -20 -20 -20 -20 -20 -20 -20 -20 -20 -20 -20 -20 -20 -20 -20 -20 -20 -20 -20 -20 -20 -20 -20 -20 -20 -20 -20 -20 -20 -20 -20 -20 -20 -20 -20

GFSWCAN_prec_radar_156.txt.gz
Reflectivity
16 7 13 14 11 -10 -9 -17 -13 -20 -20 -20 33 41 39 36 28 6 18 15 21 -9 -9 -20 -20 -20 -16 8 19 18 10 20 -13 22 10 -1 6 5 7 -20 16 18 14 10 7 11 9 -20 -20 5 -5 -20 -20 -20
13 16 -4 12 26 9 17 8 -6 -20 19 17 32 36 34 29 25 9 16 16 28 24 -12 -16 -20 -20 -8 2 3 -3 19 -20 -0 -14 -1 18 25 11 22 20 11 16 11 10 -17 -1 3 12 -20 -20 -20 -20 -20 -20
-3 16 20 11 14 11 12 -16 -18 2 18 34 35 35 32 30 19 14 12 18 27 24 -20 -20 -20 -20 -20 -20 -20 9 -20 9 18 20 16 15 1 6 15 15 16 -20 -11 16 19 -6 22 1 5 -20 -20 -20 -20 -20
17 7 3 -0 8 23 28 17 15 8 27 27 33 31 33 20 13 10 25 13 27 -5 14 -20 -20 -20 -20 -20 -20 -20 -20 -20 -12 -2 6 20 1 -5 12 35 27 20 12 33 23 15 -20 -5 7 -20 -20 -20 -20 -20
14 -0 8 3 -6 8 38 21 12 34 23 30 24 21 18 19 23 27 24 34 13 22 21 1 -20 -20 -20 -20 -20 -20 -20 -0 16 3 31 3 -19 4 -20 13 3 5 16 20 14 7 -20 -12 -20 -20 -20 -20 -20 -20
13 3 -19 -12 -13 17 27 12 6 36 35 30 31 29 20 23 17 8 27 13 18 28 -1 -5 -20 -20 -20 -20 -19 -10 14 9 9 11 15 5 -20 17 18 11 -7 1 -20 -20 -19 -20 -20 -20 -20 -20 -20 -20 -20 -20
-18 -13 14 26 18 25 20 30 36 36 37 31 25 8 -14 -20 -4 -20 2 -19 -17 -18 -16 5 -19 -13 -20 -20 -3 8 17 21 9 -2 11 12 4 22 17 -1 -20 -20 -20 -20 -20 -20 -20 -20 -20 -20 -20 -20 -20 -20
9 34 39 35 35 33 35 30 22 14 -6 -19 -20 -20 -5 -20 -20 -20 -20 -12 11 -7 28 2 -20 20 23 4 4 -7 -6 -7 2 27 35 5 4 25 22 -13 -20 -20 -20 -20 -20 -20 -20 -20 -20 -20 -20 -20 -20 -20
36 34 35 27 -0 -13 -13 -7 -12 -20 -20 -20 -4 17 -4 1 29 24 30 18 13 11 -1 6 -19 14 -4 -10 -7 8 5 14 19 24 -2 8 17 16 -8 -10 -20 -20 -20 -20 -20 -20 -20 -20 -20 -20 -20 -20 -20 -20
-19 -20 -20 -20 -20 -20 -20 -20 -20 -20 -20 -19 10 29 24 16 19 22 30 31 18 19 3 5 -20 19 -8 8 12 23 30 24 3 -8 -5 16 -3 -20 -20 -20 -20 -20 -19 -20 -20 -19 8 -5 -20 -20 -20 -20 -20 -20
-20 -20 -20 -20 -20 -20 -20 -20 -20 -9 5 15 29 29 16 32 32 33 14 -4 23 15 3 -8 -20 3 20 17 17 18 30 34 26 20 5 12 -16 -20 -20 -5 -3 -10 -14 -20 -1 -20 -20 -20 -20 -20 -20 -20 -20 -20
-20 -20 -20 -20 -18 -18 -20 3 3 17 26 -6 -9 -16 22 -4 6 -6 -8 2 2 -19 -20 -20 -20 -20 7 -12 9 22 19 10 9 19 -1 -20 -8 -20 -20 -20 -11 7 -20 -20 -20 -20 -20 -20 -20 -20 -20 -20 -20 -20
-20 -20 -20 -20 10 8 -20 -4 12 2 -19 -20 -20 -20 4 -2 12 -4 9 4 -4 1 9 15 1 -3 -17 -11 5 28 13 -16 11 4 -18 -9 -20 -20 -20 -18 -20 -20 -20 -20 -20 -20 -20 -20 -20 -20 -20 -20 -20 -20
-20 -20 -20 -20 4 -5 3 -15 -4 -19 -20 -18 -6 4 5 5 -19 3 19 20 2 21 23 7 -3 1 1 3 13 6 5 8 -2 -1 -17 -19 -20 -20 -6 -1 -20 -20 -20 -20 -20 -20 -20 -20 -20 -20 -20 -20 -20 -20
-20 -20 -20 -20 6 2 6 1 -20 -20 -12 20 10 16 -3 -5 -12 -8 -19 -17 14 -3 -4 16 16 18 33 -0 -14 9 -20 -13 -20 -19 -8 -20 -20 -20 -16 -4 -20 -20 -20 -20 -20 -20 -20 -20 -20 -20 -20 -20 -20 -20
-20 -20 7 -14 9 -15 23 7 -9 4 2 -0 -5 -4 -4 -11 -15 -9 -7 -4 2 8 18 17 22 19 -15 -14 -17 -19 -20 -20 1 -20 -17 -20 -20 -20 -20 -20 -20 -20 -20 -20 -20 -20 -20 -20 -20 -20 -20 -20 -20 -20
-20 2 19 6 5 23 22 3 -19 -20 3 5 14 -20 7 5 16 1 0 -1 -6 10 36 12 -19 -2 6 1 -20 -20 -16 -3 -5 -7 -12 -20 -20 -20 -20 -16 -20 -20 -20 -20 -20 -20 -20 -20 -20 -20 -20 -20 -20 -20
13 9 16 24 6 2 5 -17 11 14 -4 4 13 15 8 25 -2 6 -11 -12 5 14 18 11 -13 -20 -20 7 13 -20 -20 -20 -18 -9 -6 -20 -20 -20 -14 -20 -20 -20 -20 -20 -20 -20 -20 -20 -20 -20 -20 -20 -20 -20
18 -1 -20 -8 1 14 -16 -11 7 10 3 13 8 -8 -3 -4 -12 14 12 -11 18 19 20 18 -20 -19 -5 -20 -10 -9 -20 -15 -6 -2 -5 -14 -20 -20 -20 -20 -20 -20 -20 -20 -20 -20 -20 -20 -20 -20 -20 -20 -20 -20
-20 -20 -20 -20 -13 12 4 6 -2 7 -20 -17 -19 -1 3 -5 -14 22 5 -9 -2 12 9 2 -17 -16 -14 -20 -19 -20 -6 -18 -20 -15 -14 0 -15 -20 -20 -20 -20 -20 -20 -20 -20 -20 -20 -20 -20 -20 -20 -20 -20 -20
-20 -20 -20 -20 -20 -16 -2 3 -8 -20 -20 2 3 3 9 -20 10 22 23 -20 1 8 -20 -20 -7 -20 -13 -15 -8 10 -20 -10 -20 6 -20 -2 -1 13 -20 -20 -20 -20 -20 -20 -20 -20 -20 -20 -20 -20 -20 -9 -20 -13
-20 -20 -20 -20 -11 -20 -8 -8 -18 -19 -16 9 7 3 15 12 1 -20 -20 13 12 -20 -17 -12 -7 -20 -20 -20 -20 -20 -20 -20 -20 -20 -20 -20 -20 -15 -7 -7 -15 -14 -7 -6 -13 -20 -20 -20 -20 -16 -20 -3 -20 -16
-20 -20 -20 -20 -20 -20 -20 -20 -2 -1 8 9 5 8 8 -6 -20 -19 -20 -20 -20 -20 -20 -20 -20 -20 -20 -20 -20 -20 -20 -20 -20 -20 -18 -20 -20 -20 -20 -20 -20 -20 -20 -20 -20 -4 -19 3 -4 -16 -20 -19 -11 -8
-20 -20 -20 -20 -20 -20 -20 -20 -20 -20 -6 3 10 8 -4 -4 -20 -0 4 -20 -10 -20 -20 -18 -20 -20 -20 -20 -20 -20 -20 -20 -20 -20 -3 -19 -20 -20 -8 -4 -20 -20 -20 -20 -19 -16 -20 -18 6 -17 -20 -15 -5 3
-20 -20 -20 -20 -20 -20 -20 -19 -20 -2 5 -5 -10 6 -18 -20 5 0 -3 -2 -19 -4 -19 -20 -20 -3 -2 -20 -20 -20 -20 -20 -20 -20 -20 -20 -20 -20 -20 -20 -20 -20 -20 -20 -19 -3 5 -17 5 -6 2 4 5 -5
-20 -20 -20 -20 -15 -7 -20 -3 -13 -15 5 -3 8 -1 -10 11 8 0 -2 -1 2 -10 -3 -3 4 -15 -20 -20 -20 -20 -20 -20 -20 -20 -20 -20 -20 -7 -12 -20 -20 -20 -20 -20 -1 4 -5 6 8 -2 6 7 6 -5
-20 -20 -20 -20 -20 -20 -20 -20 -20 -14 1 0 9 2 -6 -7 5 -11 -20 -14 -8 -19 -8 -1 6 11 -14 -20 -20 -20 -20 -20 -20 -20 -20 -20 -20 -20 -20 -6 -19 -20 -17 -20 -20 5 -10 2 -0 7 2 -2 -1 -11
-20 -20 -20 -20 -20 -20 -20 -8 -11 -13 -9 -4 -12 -3 0 11 7 -18 -12 -20 -5 -20 -20 -6 -6 -11 -19 -20 -20 -20 -20 -20 -20 -20 -20 -20 -20 -9 -20 -20 -20 -5 -16 -20 -18 -7 -11 -8 -17 -20 -9 -5 -1 -10
-13 -13 -20 -20 -20 -20 -20 -18 -19 -4 -20 -19 -0 2 7 -20 -15 -20 -20 -20 -20 -5 6 -2 -1 -1 -4 -10 2 1 -5 -2 -20 -9 -6 -20 -6 -3 -20 -20 -19 -14 -20 -20 -20 -20 -20 -13 -3 -20 -20 -13 -11 -18
-13 -17 -10 -3 -20 -20 -11 -20 -5 8 -20 -8 -8 -15 -16 -20 -20 -20 -20 -20 -12 -9 6 6 -20 -20 -3 -2 -3 0 -8 -19 -20 6 5 4 -18 -20 -20 -13 2 -0 -5 -20 -20 -20 -20 -20 -20 -20 -20 -20 -20 -20
-20 -20 -13 -18 -8 8 2 -19 -12 -14 5 -0 -16 3 -3 13 -20 -20 -20 -20 -10 1 -1 -1 -18 6 -14 2 -4 -13 0 -14 -20 -20 -20 -20 -20 -16 -1 -13 0 -0 -2 -9 -8 -8 -6 -2 -10 -20 -11 -20 -16 -20
-19 -20 1 5 8 -0 -20 1 9 9 11 10 10 11 -3 -6 5 -18 -6 -15 -20 -19 -6 7 -1 -20 12 -10 -20 -20 -19 -20 -20 -20 -20 -20 -2 -20 -20 -8 -1 1 1 0 -1 1 -11 -4 -17 -20 -20 -20 -20 -20
-3 -14 -20 6 6 3 9 -4 4 2 7 -2 -5 6 14 6 10 -8 -17 -20 -5 -3 10 7 1 2 -16 -5 -20 -20 -20 -20 -20 -20 -20 -20 -20 -8 -1 -1 -2 -7 -11 -4 -2 -3 -9 -20 -6 -20 -20 -20 -20 -20